<?xml version="1.0" encoding="UTF-8" standalone="no" ?>
<gpx xmlns="http://www.topografix.com/GPX/1/1" xmlns:xsi="http://www.w3.org/2001/XMLSchema-instance" xsi:schemaLocation="http://www.topografix.com/GPX/1/1 http://www.topografix.com/GPX/1/1/gpx.xsd" version="1.1" creator="VisuGPX - https://www.visugpx.com">
  <metadata>
    <name>Les balcons du Bugey 2023 65 km</name>
  </metadata>
  <trk>
    <name><![CDATA[BB 2023 VTT 65 km-16457800]]></name>
    <trkseg>
      <trkpt lat="45.82725" lon="5.42114">
        <ele>205</ele>
        <time>2023-04-18T20:33:55Z</time>
      </trkpt>
      <trkpt lat="45.82596" lon="5.42222">
        <ele>203</ele>
        <time>2023-04-18T20:34:30Z</time>
      </trkpt>
      <trkpt lat="45.82584" lon="5.42228">
        <ele>203</ele>
        <time>2023-04-18T20:34:33Z</time>
      </trkpt>
      <trkpt lat="45.82579" lon="5.42201">
        <ele>203</ele>
        <time>2023-04-18T20:34:37Z</time>
      </trkpt>
      <trkpt lat="45.82581" lon="5.42188">
        <ele>204</ele>
        <time>2023-04-18T20:34:40Z</time>
      </trkpt>
      <trkpt lat="45.82569" lon="5.4212">
        <ele>205</ele>
        <time>2023-04-18T20:34:51Z</time>
      </trkpt>
      <trkpt lat="45.82562" lon="5.42097">
        <ele>205</ele>
        <time>2023-04-18T20:34:55Z</time>
      </trkpt>
      <trkpt lat="45.82543" lon="5.42083">
        <ele>204</ele>
        <time>2023-04-18T20:35:00Z</time>
      </trkpt>
      <trkpt lat="45.82512" lon="5.42097">
        <ele>203</ele>
        <time>2023-04-18T20:35:08Z</time>
      </trkpt>
      <trkpt lat="45.82472" lon="5.42122">
        <ele>203</ele>
        <time>2023-04-18T20:35:18Z</time>
      </trkpt>
      <trkpt lat="45.82439" lon="5.42146">
        <ele>202</ele>
        <time>2023-04-18T20:35:26Z</time>
      </trkpt>
      <trkpt lat="45.82406" lon="5.42087">
        <ele>205</ele>
        <time>2023-04-18T20:35:39Z</time>
      </trkpt>
      <trkpt lat="45.82373" lon="5.42057">
        <ele>204</ele>
        <time>2023-04-18T20:35:48Z</time>
      </trkpt>
      <trkpt lat="45.82316" lon="5.42018">
        <ele>203</ele>
        <time>2023-04-18T20:36:03Z</time>
      </trkpt>
      <trkpt lat="45.82296" lon="5.42014">
        <ele>203</ele>
        <time>2023-04-18T20:36:07Z</time>
      </trkpt>
      <trkpt lat="45.8227" lon="5.42024">
        <ele>202</ele>
        <time>2023-04-18T20:36:14Z</time>
      </trkpt>
      <trkpt lat="45.82262" lon="5.42022">
        <ele>202</ele>
        <time>2023-04-18T20:36:16Z</time>
      </trkpt>
      <trkpt lat="45.82256" lon="5.41999">
        <ele>203</ele>
        <time>2023-04-18T20:36:20Z</time>
      </trkpt>
      <trkpt lat="45.82249" lon="5.41986">
        <ele>203</ele>
        <time>2023-04-18T20:36:22Z</time>
      </trkpt>
      <trkpt lat="45.82205" lon="5.41939">
        <ele>204</ele>
        <time>2023-04-18T20:36:35Z</time>
      </trkpt>
      <trkpt lat="45.82166" lon="5.4187">
        <ele>205</ele>
        <time>2023-04-18T20:36:49Z</time>
      </trkpt>
      <trkpt lat="45.82164" lon="5.41794">
        <ele>209</ele>
        <time>2023-04-18T20:37:02Z</time>
      </trkpt>
      <trkpt lat="45.82161" lon="5.41785">
        <ele>210</ele>
        <time>2023-04-18T20:37:03Z</time>
      </trkpt>
      <trkpt lat="45.82134" lon="5.4178">
        <ele>209</ele>
        <time>2023-04-18T20:37:10Z</time>
      </trkpt>
      <trkpt lat="45.82126" lon="5.41773">
        <ele>209</ele>
        <time>2023-04-18T20:37:12Z</time>
      </trkpt>
      <trkpt lat="45.82113" lon="5.41736">
        <ele>210</ele>
        <time>2023-04-18T20:37:19Z</time>
      </trkpt>
      <trkpt lat="45.82101" lon="5.41725">
        <ele>209</ele>
        <time>2023-04-18T20:37:22Z</time>
      </trkpt>
      <trkpt lat="45.82087" lon="5.41703">
        <ele>209</ele>
        <time>2023-04-18T20:37:27Z</time>
      </trkpt>
      <trkpt lat="45.82079" lon="5.41702">
        <ele>209</ele>
        <time>2023-04-18T20:37:29Z</time>
      </trkpt>
      <trkpt lat="45.82065" lon="5.41707">
        <ele>208</ele>
        <time>2023-04-18T20:37:32Z</time>
      </trkpt>
      <trkpt lat="45.82054" lon="5.41706">
        <ele>207</ele>
        <time>2023-04-18T20:37:35Z</time>
      </trkpt>
      <trkpt lat="45.82044" lon="5.41692">
        <ele>206</ele>
        <time>2023-04-18T20:37:38Z</time>
      </trkpt>
      <trkpt lat="45.82035" lon="5.41643">
        <ele>207</ele>
        <time>2023-04-18T20:37:46Z</time>
      </trkpt>
      <trkpt lat="45.82043" lon="5.41626">
        <ele>209</ele>
        <time>2023-04-18T20:37:50Z</time>
      </trkpt>
      <trkpt lat="45.82053" lon="5.41618">
        <ele>210</ele>
        <time>2023-04-18T20:37:52Z</time>
      </trkpt>
      <trkpt lat="45.82052" lon="5.41606">
        <ele>211</ele>
        <time>2023-04-18T20:37:54Z</time>
      </trkpt>
      <trkpt lat="45.82021" lon="5.41581">
        <ele>210</ele>
        <time>2023-04-18T20:38:03Z</time>
      </trkpt>
      <trkpt lat="45.82017" lon="5.4157">
        <ele>210</ele>
        <time>2023-04-18T20:38:05Z</time>
      </trkpt>
      <trkpt lat="45.82027" lon="5.41557">
        <ele>210</ele>
        <time>2023-04-18T20:38:08Z</time>
      </trkpt>
      <trkpt lat="45.82046" lon="5.41544">
        <ele>212</ele>
        <time>2023-04-18T20:38:13Z</time>
      </trkpt>
      <trkpt lat="45.82061" lon="5.41542">
        <ele>212</ele>
        <time>2023-04-18T20:38:16Z</time>
      </trkpt>
      <trkpt lat="45.82079" lon="5.41548">
        <ele>213</ele>
        <time>2023-04-18T20:38:20Z</time>
      </trkpt>
      <trkpt lat="45.82108" lon="5.41573">
        <ele>214</ele>
        <time>2023-04-18T20:38:28Z</time>
      </trkpt>
      <trkpt lat="45.8213" lon="5.41583">
        <ele>215</ele>
        <time>2023-04-18T20:38:34Z</time>
      </trkpt>
      <trkpt lat="45.82178" lon="5.41596">
        <ele>215</ele>
        <time>2023-04-18T20:38:45Z</time>
      </trkpt>
      <trkpt lat="45.82238" lon="5.41589">
        <ele>217</ele>
        <time>2023-04-18T20:38:59Z</time>
      </trkpt>
      <trkpt lat="45.82269" lon="5.41591">
        <ele>216</ele>
        <time>2023-04-18T20:39:06Z</time>
      </trkpt>
      <trkpt lat="45.82289" lon="5.41589">
        <ele>215</ele>
        <time>2023-04-18T20:39:11Z</time>
      </trkpt>
      <trkpt lat="45.8231" lon="5.41576">
        <ele>215</ele>
        <time>2023-04-18T20:39:17Z</time>
      </trkpt>
      <trkpt lat="45.82325" lon="5.41552">
        <ele>215</ele>
        <time>2023-04-18T20:39:22Z</time>
      </trkpt>
      <trkpt lat="45.82334" lon="5.41519">
        <ele>216</ele>
        <time>2023-04-18T20:39:28Z</time>
      </trkpt>
      <trkpt lat="45.82329" lon="5.41435">
        <ele>218</ele>
        <time>2023-04-18T20:39:41Z</time>
      </trkpt>
      <trkpt lat="45.82334" lon="5.41403">
        <ele>218</ele>
        <time>2023-04-18T20:39:47Z</time>
      </trkpt>
      <trkpt lat="45.82333" lon="5.41371">
        <ele>219</ele>
        <time>2023-04-18T20:39:52Z</time>
      </trkpt>
      <trkpt lat="45.82325" lon="5.41333">
        <ele>219</ele>
        <time>2023-04-18T20:39:58Z</time>
      </trkpt>
      <trkpt lat="45.82312" lon="5.41312">
        <ele>219</ele>
        <time>2023-04-18T20:40:03Z</time>
      </trkpt>
      <trkpt lat="45.82232" lon="5.4121">
        <ele>218</ele>
        <time>2023-04-18T20:40:28Z</time>
      </trkpt>
      <trkpt lat="45.82169" lon="5.41115">
        <ele>216</ele>
        <time>2023-04-18T20:40:49Z</time>
      </trkpt>
      <trkpt lat="45.82232" lon="5.40847">
        <ele>217</ele>
        <time>2023-04-18T20:41:35Z</time>
      </trkpt>
      <trkpt lat="45.82231" lon="5.4083">
        <ele>217</ele>
        <time>2023-04-18T20:41:38Z</time>
      </trkpt>
      <trkpt lat="45.82203" lon="5.40747">
        <ele>220</ele>
        <time>2023-04-18T20:41:53Z</time>
      </trkpt>
      <trkpt lat="45.82202" lon="5.40733">
        <ele>220</ele>
        <time>2023-04-18T20:41:55Z</time>
      </trkpt>
      <trkpt lat="45.8221" lon="5.40701">
        <ele>220</ele>
        <time>2023-04-18T20:42:01Z</time>
      </trkpt>
      <trkpt lat="45.82221" lon="5.40683">
        <ele>221</ele>
        <time>2023-04-18T20:42:05Z</time>
      </trkpt>
      <trkpt lat="45.82224" lon="5.40671">
        <ele>221</ele>
        <time>2023-04-18T20:42:07Z</time>
      </trkpt>
      <trkpt lat="45.82218" lon="5.40662">
        <ele>221</ele>
        <time>2023-04-18T20:42:09Z</time>
      </trkpt>
      <trkpt lat="45.82209" lon="5.40658">
        <ele>221</ele>
        <time>2023-04-18T20:42:11Z</time>
      </trkpt>
      <trkpt lat="45.82198" lon="5.40663">
        <ele>221</ele>
        <time>2023-04-18T20:42:14Z</time>
      </trkpt>
      <trkpt lat="45.82179" lon="5.40658">
        <ele>221</ele>
        <time>2023-04-18T20:42:18Z</time>
      </trkpt>
      <trkpt lat="45.82167" lon="5.40647">
        <ele>221</ele>
        <time>2023-04-18T20:42:22Z</time>
      </trkpt>
      <trkpt lat="45.82135" lon="5.40561">
        <ele>220</ele>
        <time>2023-04-18T20:42:37Z</time>
      </trkpt>
      <trkpt lat="45.82122" lon="5.40538">
        <ele>221</ele>
        <time>2023-04-18T20:42:42Z</time>
      </trkpt>
      <trkpt lat="45.82092" lon="5.40496">
        <ele>222</ele>
        <time>2023-04-18T20:42:52Z</time>
      </trkpt>
      <trkpt lat="45.82019" lon="5.40413">
        <ele>221</ele>
        <time>2023-04-18T20:43:14Z</time>
      </trkpt>
      <trkpt lat="45.81977" lon="5.40349">
        <ele>221</ele>
        <time>2023-04-18T20:43:28Z</time>
      </trkpt>
      <trkpt lat="45.81978" lon="5.40336">
        <ele>221</ele>
        <time>2023-04-18T20:43:30Z</time>
      </trkpt>
      <trkpt lat="45.82019" lon="5.40327">
        <ele>220</ele>
        <time>2023-04-18T20:43:40Z</time>
      </trkpt>
      <trkpt lat="45.82098" lon="5.40304">
        <ele>220</ele>
        <time>2023-04-18T20:43:59Z</time>
      </trkpt>
      <trkpt lat="45.82118" lon="5.40302">
        <ele>221</ele>
        <time>2023-04-18T20:44:03Z</time>
      </trkpt>
      <trkpt lat="45.82138" lon="5.40304">
        <ele>221</ele>
        <time>2023-04-18T20:44:08Z</time>
      </trkpt>
      <trkpt lat="45.82177" lon="5.40314">
        <ele>222</ele>
        <time>2023-04-18T20:44:17Z</time>
      </trkpt>
      <trkpt lat="45.82221" lon="5.40317">
        <ele>222</ele>
        <time>2023-04-18T20:44:28Z</time>
      </trkpt>
      <trkpt lat="45.8226" lon="5.40312">
        <ele>222</ele>
        <time>2023-04-18T20:44:37Z</time>
      </trkpt>
      <trkpt lat="45.82291" lon="5.40316">
        <ele>223</ele>
        <time>2023-04-18T20:44:44Z</time>
      </trkpt>
      <trkpt lat="45.82316" lon="5.40325">
        <ele>224</ele>
        <time>2023-04-18T20:44:50Z</time>
      </trkpt>
      <trkpt lat="45.82325" lon="5.403">
        <ele>224</ele>
        <time>2023-04-18T20:44:55Z</time>
      </trkpt>
      <trkpt lat="45.82326" lon="5.40268">
        <ele>225</ele>
        <time>2023-04-18T20:45:00Z</time>
      </trkpt>
      <trkpt lat="45.82333" lon="5.40211">
        <ele>226</ele>
        <time>2023-04-18T20:45:09Z</time>
      </trkpt>
      <trkpt lat="45.82333" lon="5.40173">
        <ele>228</ele>
        <time>2023-04-18T20:45:15Z</time>
      </trkpt>
      <trkpt lat="45.8233" lon="5.40156">
        <ele>228</ele>
        <time>2023-04-18T20:45:18Z</time>
      </trkpt>
      <trkpt lat="45.82312" lon="5.4014">
        <ele>228</ele>
        <time>2023-04-18T20:45:23Z</time>
      </trkpt>
      <trkpt lat="45.82296" lon="5.40118">
        <ele>228</ele>
        <time>2023-04-18T20:45:28Z</time>
      </trkpt>
      <trkpt lat="45.82278" lon="5.40079">
        <ele>228</ele>
        <time>2023-04-18T20:45:36Z</time>
      </trkpt>
      <trkpt lat="45.82273" lon="5.4005">
        <ele>230</ele>
        <time>2023-04-18T20:45:41Z</time>
      </trkpt>
      <trkpt lat="45.82285" lon="5.39971">
        <ele>233</ele>
        <time>2023-04-18T20:45:54Z</time>
      </trkpt>
      <trkpt lat="45.82295" lon="5.39948">
        <ele>234</ele>
        <time>2023-04-18T20:45:58Z</time>
      </trkpt>
      <trkpt lat="45.82338" lon="5.39887">
        <ele>238</ele>
        <time>2023-04-18T20:46:13Z</time>
      </trkpt>
      <trkpt lat="45.82449" lon="5.3978">
        <ele>243</ele>
        <time>2023-04-18T20:46:44Z</time>
      </trkpt>
      <trkpt lat="45.82482" lon="5.39737">
        <ele>244</ele>
        <time>2023-04-18T20:46:54Z</time>
      </trkpt>
      <trkpt lat="45.82528" lon="5.39708">
        <ele>245</ele>
        <time>2023-04-18T20:47:06Z</time>
      </trkpt>
      <trkpt lat="45.82545" lon="5.39689">
        <ele>245</ele>
        <time>2023-04-18T20:47:11Z</time>
      </trkpt>
      <trkpt lat="45.8255" lon="5.39675">
        <ele>245</ele>
        <time>2023-04-18T20:47:14Z</time>
      </trkpt>
      <trkpt lat="45.82551" lon="5.39663">
        <ele>245</ele>
        <time>2023-04-18T20:47:15Z</time>
      </trkpt>
      <trkpt lat="45.8255" lon="5.39506">
        <ele>245</ele>
        <time>2023-04-18T20:47:41Z</time>
      </trkpt>
      <trkpt lat="45.82558" lon="5.39446">
        <ele>250</ele>
        <time>2023-04-18T20:47:51Z</time>
      </trkpt>
      <trkpt lat="45.82556" lon="5.39393">
        <ele>253</ele>
        <time>2023-04-18T20:48:00Z</time>
      </trkpt>
      <trkpt lat="45.82565" lon="5.39371">
        <ele>254</ele>
        <time>2023-04-18T20:48:04Z</time>
      </trkpt>
      <trkpt lat="45.82585" lon="5.39359">
        <ele>255</ele>
        <time>2023-04-18T20:48:09Z</time>
      </trkpt>
      <trkpt lat="45.826" lon="5.39354">
        <ele>255</ele>
        <time>2023-04-18T20:48:12Z</time>
      </trkpt>
      <trkpt lat="45.82641" lon="5.39301">
        <ele>257</ele>
        <time>2023-04-18T20:48:25Z</time>
      </trkpt>
      <trkpt lat="45.82672" lon="5.39272">
        <ele>258</ele>
        <time>2023-04-18T20:48:34Z</time>
      </trkpt>
      <trkpt lat="45.82684" lon="5.39251">
        <ele>258</ele>
        <time>2023-04-18T20:48:38Z</time>
      </trkpt>
      <trkpt lat="45.82665" lon="5.39205">
        <ele>257</ele>
        <time>2023-04-18T20:48:47Z</time>
      </trkpt>
      <trkpt lat="45.82658" lon="5.39169">
        <ele>257</ele>
        <time>2023-04-18T20:48:53Z</time>
      </trkpt>
      <trkpt lat="45.82643" lon="5.39125">
        <ele>255</ele>
        <time>2023-04-18T20:49:01Z</time>
      </trkpt>
      <trkpt lat="45.82641" lon="5.39112">
        <ele>255</ele>
        <time>2023-04-18T20:49:03Z</time>
      </trkpt>
      <trkpt lat="45.82646" lon="5.39081">
        <ele>255</ele>
        <time>2023-04-18T20:49:08Z</time>
      </trkpt>
      <trkpt lat="45.82694" lon="5.39019">
        <ele>253</ele>
        <time>2023-04-18T20:49:24Z</time>
      </trkpt>
      <trkpt lat="45.827" lon="5.39008">
        <ele>253</ele>
        <time>2023-04-18T20:49:26Z</time>
      </trkpt>
      <trkpt lat="45.82686" lon="5.38917">
        <ele>250</ele>
        <time>2023-04-18T20:49:41Z</time>
      </trkpt>
      <trkpt lat="45.82691" lon="5.38854">
        <ele>252</ele>
        <time>2023-04-18T20:49:51Z</time>
      </trkpt>
      <trkpt lat="45.8269" lon="5.38798">
        <ele>253</ele>
        <time>2023-04-18T20:50:00Z</time>
      </trkpt>
      <trkpt lat="45.82694" lon="5.38767">
        <ele>254</ele>
        <time>2023-04-18T20:50:06Z</time>
      </trkpt>
      <trkpt lat="45.82709" lon="5.38736">
        <ele>255</ele>
        <time>2023-04-18T20:50:12Z</time>
      </trkpt>
      <trkpt lat="45.82736" lon="5.38695">
        <ele>257</ele>
        <time>2023-04-18T20:50:21Z</time>
      </trkpt>
      <trkpt lat="45.8276" lon="5.3865">
        <ele>258</ele>
        <time>2023-04-18T20:50:30Z</time>
      </trkpt>
      <trkpt lat="45.828" lon="5.38559">
        <ele>260</ele>
        <time>2023-04-18T20:50:48Z</time>
      </trkpt>
      <trkpt lat="45.82806" lon="5.38557">
        <ele>260</ele>
        <time>2023-04-18T20:50:49Z</time>
      </trkpt>
      <trkpt lat="45.82843" lon="5.38607">
        <ele>258</ele>
        <time>2023-04-18T20:51:01Z</time>
      </trkpt>
      <trkpt lat="45.82874" lon="5.38643">
        <ele>258</ele>
        <time>2023-04-18T20:51:10Z</time>
      </trkpt>
      <trkpt lat="45.82899" lon="5.38668">
        <ele>258</ele>
        <time>2023-04-18T20:51:17Z</time>
      </trkpt>
      <trkpt lat="45.83004" lon="5.38741">
        <ele>261</ele>
        <time>2023-04-18T20:51:45Z</time>
      </trkpt>
      <trkpt lat="45.83029" lon="5.38746">
        <ele>261</ele>
        <time>2023-04-18T20:51:50Z</time>
      </trkpt>
      <trkpt lat="45.83177" lon="5.38732">
        <ele>261</ele>
        <time>2023-04-18T20:52:25Z</time>
      </trkpt>
      <trkpt lat="45.83195" lon="5.3874">
        <ele>262</ele>
        <time>2023-04-18T20:52:30Z</time>
      </trkpt>
      <trkpt lat="45.83213" lon="5.38742">
        <ele>262</ele>
        <time>2023-04-18T20:52:34Z</time>
      </trkpt>
      <trkpt lat="45.83234" lon="5.38736">
        <ele>263</ele>
        <time>2023-04-18T20:52:39Z</time>
      </trkpt>
      <trkpt lat="45.83263" lon="5.38748">
        <ele>264</ele>
        <time>2023-04-18T20:52:46Z</time>
      </trkpt>
      <trkpt lat="45.83357" lon="5.38799">
        <ele>268</ele>
        <time>2023-04-18T20:53:09Z</time>
      </trkpt>
      <trkpt lat="45.83381" lon="5.38806">
        <ele>270</ele>
        <time>2023-04-18T20:53:15Z</time>
      </trkpt>
      <trkpt lat="45.83421" lon="5.38806">
        <ele>272</ele>
        <time>2023-04-18T20:53:24Z</time>
      </trkpt>
      <trkpt lat="45.83471" lon="5.38794">
        <ele>274</ele>
        <time>2023-04-18T20:53:36Z</time>
      </trkpt>
      <trkpt lat="45.8348" lon="5.38758">
        <ele>274</ele>
        <time>2023-04-18T20:53:42Z</time>
      </trkpt>
      <trkpt lat="45.83483" lon="5.38725">
        <ele>276</ele>
        <time>2023-04-18T20:53:48Z</time>
      </trkpt>
      <trkpt lat="45.83483" lon="5.38684">
        <ele>278</ele>
        <time>2023-04-18T20:53:54Z</time>
      </trkpt>
      <trkpt lat="45.83478" lon="5.38659">
        <ele>280</ele>
        <time>2023-04-18T20:53:59Z</time>
      </trkpt>
      <trkpt lat="45.83465" lon="5.38626">
        <ele>283</ele>
        <time>2023-04-18T20:54:05Z</time>
      </trkpt>
      <trkpt lat="45.83473" lon="5.3863">
        <ele>284</ele>
        <time>2023-04-18T20:54:07Z</time>
      </trkpt>
      <trkpt lat="45.83491" lon="5.38656">
        <ele>281</ele>
        <time>2023-04-18T20:54:13Z</time>
      </trkpt>
      <trkpt lat="45.83499" lon="5.38662">
        <ele>281</ele>
        <time>2023-04-18T20:54:15Z</time>
      </trkpt>
      <trkpt lat="45.83513" lon="5.38645">
        <ele>285</ele>
        <time>2023-04-18T20:54:19Z</time>
      </trkpt>
      <trkpt lat="45.83544" lon="5.38634">
        <ele>289</ele>
        <time>2023-04-18T20:54:27Z</time>
      </trkpt>
      <trkpt lat="45.83548" lon="5.3863">
        <ele>290</ele>
        <time>2023-04-18T20:54:28Z</time>
      </trkpt>
      <trkpt lat="45.83536" lon="5.38609">
        <ele>293</ele>
        <time>2023-04-18T20:54:32Z</time>
      </trkpt>
      <trkpt lat="45.83551" lon="5.38596">
        <ele>297</ele>
        <time>2023-04-18T20:54:36Z</time>
      </trkpt>
      <trkpt lat="45.83563" lon="5.38571">
        <ele>301</ele>
        <time>2023-04-18T20:54:41Z</time>
      </trkpt>
      <trkpt lat="45.8357" lon="5.38548">
        <ele>304</ele>
        <time>2023-04-18T20:54:45Z</time>
      </trkpt>
      <trkpt lat="45.83597" lon="5.3855">
        <ele>306</ele>
        <time>2023-04-18T20:54:52Z</time>
      </trkpt>
      <trkpt lat="45.8361" lon="5.38547">
        <ele>308</ele>
        <time>2023-04-18T20:54:55Z</time>
      </trkpt>
      <trkpt lat="45.83622" lon="5.38552">
        <ele>309</ele>
        <time>2023-04-18T20:54:58Z</time>
      </trkpt>
      <trkpt lat="45.83652" lon="5.38556">
        <ele>312</ele>
        <time>2023-04-18T20:55:05Z</time>
      </trkpt>
      <trkpt lat="45.83679" lon="5.38548">
        <ele>314</ele>
        <time>2023-04-18T20:55:11Z</time>
      </trkpt>
      <trkpt lat="45.837" lon="5.38525">
        <ele>317</ele>
        <time>2023-04-18T20:55:17Z</time>
      </trkpt>
      <trkpt lat="45.83705" lon="5.3851">
        <ele>318</ele>
        <time>2023-04-18T20:55:20Z</time>
      </trkpt>
      <trkpt lat="45.83699" lon="5.38422">
        <ele>319</ele>
        <time>2023-04-18T20:55:34Z</time>
      </trkpt>
      <trkpt lat="45.83702" lon="5.38409">
        <ele>320</ele>
        <time>2023-04-18T20:55:37Z</time>
      </trkpt>
      <trkpt lat="45.83727" lon="5.38423">
        <ele>321</ele>
        <time>2023-04-18T20:55:43Z</time>
      </trkpt>
      <trkpt lat="45.83771" lon="5.38468">
        <ele>323</ele>
        <time>2023-04-18T20:55:55Z</time>
      </trkpt>
      <trkpt lat="45.83788" lon="5.38474">
        <ele>323</ele>
        <time>2023-04-18T20:56:00Z</time>
      </trkpt>
      <trkpt lat="45.83808" lon="5.38477">
        <ele>324</ele>
        <time>2023-04-18T20:56:04Z</time>
      </trkpt>
      <trkpt lat="45.83822" lon="5.38476">
        <ele>324</ele>
        <time>2023-04-18T20:56:08Z</time>
      </trkpt>
      <trkpt lat="45.83841" lon="5.38481">
        <ele>324</ele>
        <time>2023-04-18T20:56:12Z</time>
      </trkpt>
      <trkpt lat="45.83874" lon="5.38501">
        <ele>323</ele>
        <time>2023-04-18T20:56:20Z</time>
      </trkpt>
      <trkpt lat="45.83892" lon="5.385">
        <ele>324</ele>
        <time>2023-04-18T20:56:25Z</time>
      </trkpt>
      <trkpt lat="45.83906" lon="5.38493">
        <ele>324</ele>
        <time>2023-04-18T20:56:28Z</time>
      </trkpt>
      <trkpt lat="45.83933" lon="5.38497">
        <ele>325</ele>
        <time>2023-04-18T20:56:34Z</time>
      </trkpt>
      <trkpt lat="45.8396" lon="5.38489">
        <ele>326</ele>
        <time>2023-04-18T20:56:41Z</time>
      </trkpt>
      <trkpt lat="45.83974" lon="5.38482">
        <ele>326</ele>
        <time>2023-04-18T20:56:44Z</time>
      </trkpt>
      <trkpt lat="45.84" lon="5.38461">
        <ele>328</ele>
        <time>2023-04-18T20:56:51Z</time>
      </trkpt>
      <trkpt lat="45.84025" lon="5.38447">
        <ele>328</ele>
        <time>2023-04-18T20:56:58Z</time>
      </trkpt>
      <trkpt lat="45.84031" lon="5.38428">
        <ele>330</ele>
        <time>2023-04-18T20:57:01Z</time>
      </trkpt>
      <trkpt lat="45.84023" lon="5.38419">
        <ele>330</ele>
        <time>2023-04-18T20:57:03Z</time>
      </trkpt>
      <trkpt lat="45.84009" lon="5.38414">
        <ele>330</ele>
        <time>2023-04-18T20:57:07Z</time>
      </trkpt>
      <trkpt lat="45.83987" lon="5.38429">
        <ele>329</ele>
        <time>2023-04-18T20:57:12Z</time>
      </trkpt>
      <trkpt lat="45.83983" lon="5.38437">
        <ele>329</ele>
        <time>2023-04-18T20:57:14Z</time>
      </trkpt>
      <trkpt lat="45.83973" lon="5.38405">
        <ele>331</ele>
        <time>2023-04-18T20:57:20Z</time>
      </trkpt>
      <trkpt lat="45.83984" lon="5.38362">
        <ele>334</ele>
        <time>2023-04-18T20:57:27Z</time>
      </trkpt>
      <trkpt lat="45.83977" lon="5.38342">
        <ele>336</ele>
        <time>2023-04-18T20:57:31Z</time>
      </trkpt>
      <trkpt lat="45.83968" lon="5.38331">
        <ele>336</ele>
        <time>2023-04-18T20:57:34Z</time>
      </trkpt>
      <trkpt lat="45.83982" lon="5.38296">
        <ele>338</ele>
        <time>2023-04-18T20:57:40Z</time>
      </trkpt>
      <trkpt lat="45.83986" lon="5.38258">
        <ele>340</ele>
        <time>2023-04-18T20:57:46Z</time>
      </trkpt>
      <trkpt lat="45.84013" lon="5.38224">
        <ele>342</ele>
        <time>2023-04-18T20:57:55Z</time>
      </trkpt>
      <trkpt lat="45.8402" lon="5.38207">
        <ele>342</ele>
        <time>2023-04-18T20:57:58Z</time>
      </trkpt>
      <trkpt lat="45.84021" lon="5.38193">
        <ele>343</ele>
        <time>2023-04-18T20:58:00Z</time>
      </trkpt>
      <trkpt lat="45.84029" lon="5.38182">
        <ele>343</ele>
        <time>2023-04-18T20:58:03Z</time>
      </trkpt>
      <trkpt lat="45.84023" lon="5.38182">
        <ele>343</ele>
        <time>2023-04-18T20:58:04Z</time>
      </trkpt>
      <trkpt lat="45.84054" lon="5.38172">
        <ele>344</ele>
        <time>2023-04-18T20:58:12Z</time>
      </trkpt>
      <trkpt lat="45.84088" lon="5.38174">
        <ele>345</ele>
        <time>2023-04-18T20:58:20Z</time>
      </trkpt>
      <trkpt lat="45.84108" lon="5.38166">
        <ele>344</ele>
        <time>2023-04-18T20:58:24Z</time>
      </trkpt>
      <trkpt lat="45.84138" lon="5.38132">
        <ele>346</ele>
        <time>2023-04-18T20:58:33Z</time>
      </trkpt>
      <trkpt lat="45.8415" lon="5.38113">
        <ele>347</ele>
        <time>2023-04-18T20:58:38Z</time>
      </trkpt>
      <trkpt lat="45.84175" lon="5.38093">
        <ele>348</ele>
        <time>2023-04-18T20:58:44Z</time>
      </trkpt>
      <trkpt lat="45.8419" lon="5.38072">
        <ele>349</ele>
        <time>2023-04-18T20:58:49Z</time>
      </trkpt>
      <trkpt lat="45.842" lon="5.38044">
        <ele>350</ele>
        <time>2023-04-18T20:58:54Z</time>
      </trkpt>
      <trkpt lat="45.84221" lon="5.37999">
        <ele>353</ele>
        <time>2023-04-18T20:59:03Z</time>
      </trkpt>
      <trkpt lat="45.84228" lon="5.37966">
        <ele>354</ele>
        <time>2023-04-18T20:59:09Z</time>
      </trkpt>
      <trkpt lat="45.84243" lon="5.37951">
        <ele>355</ele>
        <time>2023-04-18T20:59:13Z</time>
      </trkpt>
      <trkpt lat="45.84262" lon="5.37922">
        <ele>356</ele>
        <time>2023-04-18T20:59:19Z</time>
      </trkpt>
      <trkpt lat="45.84235" lon="5.37909">
        <ele>355</ele>
        <time>2023-04-18T20:59:26Z</time>
      </trkpt>
      <trkpt lat="45.84192" lon="5.37897">
        <ele>353</ele>
        <time>2023-04-18T20:59:36Z</time>
      </trkpt>
      <trkpt lat="45.8417" lon="5.37885">
        <ele>353</ele>
        <time>2023-04-18T20:59:42Z</time>
      </trkpt>
      <trkpt lat="45.84126" lon="5.37854">
        <ele>351</ele>
        <time>2023-04-18T20:59:53Z</time>
      </trkpt>
      <trkpt lat="45.84082" lon="5.37817">
        <ele>349</ele>
        <time>2023-04-18T21:00:05Z</time>
      </trkpt>
      <trkpt lat="45.84055" lon="5.37776">
        <ele>347</ele>
        <time>2023-04-18T21:00:14Z</time>
      </trkpt>
      <trkpt lat="45.84016" lon="5.37682">
        <ele>344</ele>
        <time>2023-04-18T21:00:32Z</time>
      </trkpt>
      <trkpt lat="45.83994" lon="5.37614">
        <ele>343</ele>
        <time>2023-04-18T21:00:44Z</time>
      </trkpt>
      <trkpt lat="45.83985" lon="5.37574">
        <ele>342</ele>
        <time>2023-04-18T21:00:51Z</time>
      </trkpt>
      <trkpt lat="45.83985" lon="5.37563">
        <ele>342</ele>
        <time>2023-04-18T21:00:53Z</time>
      </trkpt>
      <trkpt lat="45.84001" lon="5.37555">
        <ele>343</ele>
        <time>2023-04-18T21:00:57Z</time>
      </trkpt>
      <trkpt lat="45.84016" lon="5.37541">
        <ele>344</ele>
        <time>2023-04-18T21:01:01Z</time>
      </trkpt>
      <trkpt lat="45.84025" lon="5.37538">
        <ele>344</ele>
        <time>2023-04-18T21:01:03Z</time>
      </trkpt>
      <trkpt lat="45.84088" lon="5.37534">
        <ele>348</ele>
        <time>2023-04-18T21:01:18Z</time>
      </trkpt>
      <trkpt lat="45.84102" lon="5.37536">
        <ele>349</ele>
        <time>2023-04-18T21:01:21Z</time>
      </trkpt>
      <trkpt lat="45.84134" lon="5.37552">
        <ele>350</ele>
        <time>2023-04-18T21:01:29Z</time>
      </trkpt>
      <trkpt lat="45.84162" lon="5.37561">
        <ele>352</ele>
        <time>2023-04-18T21:01:36Z</time>
      </trkpt>
      <trkpt lat="45.843" lon="5.3759">
        <ele>359</ele>
        <time>2023-04-18T21:02:08Z</time>
      </trkpt>
      <trkpt lat="45.8433" lon="5.37617">
        <ele>362</ele>
        <time>2023-04-18T21:02:17Z</time>
      </trkpt>
      <trkpt lat="45.84354" lon="5.3763">
        <ele>364</ele>
        <time>2023-04-18T21:02:23Z</time>
      </trkpt>
      <trkpt lat="45.84384" lon="5.37631">
        <ele>366</ele>
        <time>2023-04-18T21:02:30Z</time>
      </trkpt>
      <trkpt lat="45.84399" lon="5.37637">
        <ele>366</ele>
        <time>2023-04-18T21:02:33Z</time>
      </trkpt>
      <trkpt lat="45.84426" lon="5.37655">
        <ele>368</ele>
        <time>2023-04-18T21:02:40Z</time>
      </trkpt>
      <trkpt lat="45.84451" lon="5.37665">
        <ele>369</ele>
        <time>2023-04-18T21:02:46Z</time>
      </trkpt>
      <trkpt lat="45.84472" lon="5.37669">
        <ele>370</ele>
        <time>2023-04-18T21:02:51Z</time>
      </trkpt>
      <trkpt lat="45.84505" lon="5.37667">
        <ele>372</ele>
        <time>2023-04-18T21:02:59Z</time>
      </trkpt>
      <trkpt lat="45.84539" lon="5.37656">
        <ele>375</ele>
        <time>2023-04-18T21:03:07Z</time>
      </trkpt>
      <trkpt lat="45.84558" lon="5.37626">
        <ele>376</ele>
        <time>2023-04-18T21:03:14Z</time>
      </trkpt>
      <trkpt lat="45.84568" lon="5.376">
        <ele>377</ele>
        <time>2023-04-18T21:03:19Z</time>
      </trkpt>
      <trkpt lat="45.84575" lon="5.37562">
        <ele>377</ele>
        <time>2023-04-18T21:03:25Z</time>
      </trkpt>
      <trkpt lat="45.84582" lon="5.37543">
        <ele>377</ele>
        <time>2023-04-18T21:03:28Z</time>
      </trkpt>
      <trkpt lat="45.84621" lon="5.37499">
        <ele>378</ele>
        <time>2023-04-18T21:03:40Z</time>
      </trkpt>
      <trkpt lat="45.8463" lon="5.37484">
        <ele>379</ele>
        <time>2023-04-18T21:03:43Z</time>
      </trkpt>
      <trkpt lat="45.84601" lon="5.37429">
        <ele>379</ele>
        <time>2023-04-18T21:03:55Z</time>
      </trkpt>
      <trkpt lat="45.84596" lon="5.3741">
        <ele>380</ele>
        <time>2023-04-18T21:03:58Z</time>
      </trkpt>
      <trkpt lat="45.84597" lon="5.3739">
        <ele>380</ele>
        <time>2023-04-18T21:04:01Z</time>
      </trkpt>
      <trkpt lat="45.8458" lon="5.37353">
        <ele>380</ele>
        <time>2023-04-18T21:04:08Z</time>
      </trkpt>
      <trkpt lat="45.84572" lon="5.37283">
        <ele>380</ele>
        <time>2023-04-18T21:04:20Z</time>
      </trkpt>
      <trkpt lat="45.84574" lon="5.37253">
        <ele>380</ele>
        <time>2023-04-18T21:04:25Z</time>
      </trkpt>
      <trkpt lat="45.84574" lon="5.37224">
        <ele>379</ele>
        <time>2023-04-18T21:04:29Z</time>
      </trkpt>
      <trkpt lat="45.84572" lon="5.37218">
        <ele>379</ele>
        <time>2023-04-18T21:04:31Z</time>
      </trkpt>
      <trkpt lat="45.8454" lon="5.37186">
        <ele>378</ele>
        <time>2023-04-18T21:04:40Z</time>
      </trkpt>
      <trkpt lat="45.84531" lon="5.37185">
        <ele>378</ele>
        <time>2023-04-18T21:04:42Z</time>
      </trkpt>
      <trkpt lat="45.84462" lon="5.37155">
        <ele>374</ele>
        <time>2023-04-18T21:04:59Z</time>
      </trkpt>
      <trkpt lat="45.84428" lon="5.37157">
        <ele>370</ele>
        <time>2023-04-18T21:05:07Z</time>
      </trkpt>
      <trkpt lat="45.84418" lon="5.37152">
        <ele>369</ele>
        <time>2023-04-18T21:05:09Z</time>
      </trkpt>
      <trkpt lat="45.84405" lon="5.3714">
        <ele>369</ele>
        <time>2023-04-18T21:05:13Z</time>
      </trkpt>
      <trkpt lat="45.844" lon="5.37127">
        <ele>369</ele>
        <time>2023-04-18T21:05:15Z</time>
      </trkpt>
      <trkpt lat="45.84408" lon="5.3711">
        <ele>370</ele>
        <time>2023-04-18T21:05:18Z</time>
      </trkpt>
      <trkpt lat="45.8443" lon="5.37046">
        <ele>371</ele>
        <time>2023-04-18T21:05:30Z</time>
      </trkpt>
      <trkpt lat="45.84449" lon="5.3703">
        <ele>372</ele>
        <time>2023-04-18T21:05:35Z</time>
      </trkpt>
      <trkpt lat="45.8445" lon="5.37005">
        <ele>372</ele>
        <time>2023-04-18T21:05:39Z</time>
      </trkpt>
      <trkpt lat="45.84444" lon="5.3698">
        <ele>371</ele>
        <time>2023-04-18T21:05:43Z</time>
      </trkpt>
      <trkpt lat="45.84446" lon="5.36957">
        <ele>371</ele>
        <time>2023-04-18T21:05:47Z</time>
      </trkpt>
      <trkpt lat="45.84443" lon="5.36948">
        <ele>371</ele>
        <time>2023-04-18T21:05:49Z</time>
      </trkpt>
      <trkpt lat="45.84435" lon="5.36946">
        <ele>370</ele>
        <time>2023-04-18T21:05:51Z</time>
      </trkpt>
      <trkpt lat="45.84343" lon="5.36975">
        <ele>362</ele>
        <time>2023-04-18T21:06:13Z</time>
      </trkpt>
      <trkpt lat="45.84178" lon="5.37037">
        <ele>350</ele>
        <time>2023-04-18T21:06:53Z</time>
      </trkpt>
      <trkpt lat="45.84102" lon="5.37045">
        <ele>345</ele>
        <time>2023-04-18T21:07:10Z</time>
      </trkpt>
      <trkpt lat="45.84057" lon="5.3706">
        <ele>343</ele>
        <time>2023-04-18T21:07:21Z</time>
      </trkpt>
      <trkpt lat="45.84022" lon="5.37068">
        <ele>341</ele>
        <time>2023-04-18T21:07:29Z</time>
      </trkpt>
      <trkpt lat="45.83958" lon="5.37071">
        <ele>336</ele>
        <time>2023-04-18T21:07:44Z</time>
      </trkpt>
      <trkpt lat="45.83954" lon="5.37059">
        <ele>335</ele>
        <time>2023-04-18T21:07:47Z</time>
      </trkpt>
      <trkpt lat="45.83961" lon="5.3705">
        <ele>336</ele>
        <time>2023-04-18T21:07:49Z</time>
      </trkpt>
      <trkpt lat="45.83975" lon="5.37021">
        <ele>336</ele>
        <time>2023-04-18T21:07:55Z</time>
      </trkpt>
      <trkpt lat="45.83994" lon="5.36951">
        <ele>334</ele>
        <time>2023-04-18T21:08:07Z</time>
      </trkpt>
      <trkpt lat="45.84012" lon="5.36917">
        <ele>334</ele>
        <time>2023-04-18T21:08:14Z</time>
      </trkpt>
      <trkpt lat="45.84033" lon="5.36892">
        <ele>336</ele>
        <time>2023-04-18T21:08:20Z</time>
      </trkpt>
      <trkpt lat="45.84055" lon="5.36872">
        <ele>337</ele>
        <time>2023-04-18T21:08:26Z</time>
      </trkpt>
      <trkpt lat="45.84126" lon="5.36818">
        <ele>341</ele>
        <time>2023-04-18T21:08:45Z</time>
      </trkpt>
      <trkpt lat="45.84171" lon="5.36761">
        <ele>344</ele>
        <time>2023-04-18T21:08:59Z</time>
      </trkpt>
      <trkpt lat="45.84193" lon="5.36726">
        <ele>344</ele>
        <time>2023-04-18T21:09:07Z</time>
      </trkpt>
      <trkpt lat="45.84218" lon="5.36692">
        <ele>345</ele>
        <time>2023-04-18T21:09:15Z</time>
      </trkpt>
      <trkpt lat="45.84275" lon="5.36653">
        <ele>347</ele>
        <time>2023-04-18T21:09:29Z</time>
      </trkpt>
      <trkpt lat="45.84303" lon="5.36627">
        <ele>347</ele>
        <time>2023-04-18T21:09:37Z</time>
      </trkpt>
      <trkpt lat="45.84302" lon="5.36607">
        <ele>347</ele>
        <time>2023-04-18T21:09:40Z</time>
      </trkpt>
      <trkpt lat="45.8428" lon="5.36603">
        <ele>347</ele>
        <time>2023-04-18T21:09:46Z</time>
      </trkpt>
      <trkpt lat="45.84214" lon="5.36576">
        <ele>345</ele>
        <time>2023-04-18T21:10:02Z</time>
      </trkpt>
      <trkpt lat="45.84175" lon="5.36567">
        <ele>343</ele>
        <time>2023-04-18T21:10:11Z</time>
      </trkpt>
      <trkpt lat="45.84087" lon="5.36531">
        <ele>338</ele>
        <time>2023-04-18T21:10:32Z</time>
      </trkpt>
      <trkpt lat="45.84078" lon="5.36523">
        <ele>337</ele>
        <time>2023-04-18T21:10:35Z</time>
      </trkpt>
      <trkpt lat="45.84073" lon="5.3651">
        <ele>337</ele>
        <time>2023-04-18T21:10:37Z</time>
      </trkpt>
      <trkpt lat="45.84072" lon="5.36501">
        <ele>336</ele>
        <time>2023-04-18T21:10:39Z</time>
      </trkpt>
      <trkpt lat="45.84075" lon="5.36478">
        <ele>336</ele>
        <time>2023-04-18T21:10:42Z</time>
      </trkpt>
      <trkpt lat="45.8405" lon="5.36442">
        <ele>334</ele>
        <time>2023-04-18T21:10:51Z</time>
      </trkpt>
      <trkpt lat="45.84019" lon="5.36417">
        <ele>333</ele>
        <time>2023-04-18T21:10:59Z</time>
      </trkpt>
      <trkpt lat="45.83971" lon="5.36387">
        <ele>329</ele>
        <time>2023-04-18T21:11:11Z</time>
      </trkpt>
      <trkpt lat="45.8395" lon="5.3637">
        <ele>327</ele>
        <time>2023-04-18T21:11:17Z</time>
      </trkpt>
      <trkpt lat="45.83926" lon="5.36346">
        <ele>325</ele>
        <time>2023-04-18T21:11:24Z</time>
      </trkpt>
      <trkpt lat="45.83917" lon="5.36342">
        <ele>325</ele>
        <time>2023-04-18T21:11:26Z</time>
      </trkpt>
      <trkpt lat="45.83896" lon="5.36347">
        <ele>324</ele>
        <time>2023-04-18T21:11:31Z</time>
      </trkpt>
      <trkpt lat="45.83827" lon="5.36324">
        <ele>320</ele>
        <time>2023-04-18T21:11:47Z</time>
      </trkpt>
      <trkpt lat="45.83792" lon="5.36339">
        <ele>319</ele>
        <time>2023-04-18T21:11:56Z</time>
      </trkpt>
      <trkpt lat="45.83787" lon="5.36332">
        <ele>318</ele>
        <time>2023-04-18T21:11:58Z</time>
      </trkpt>
      <trkpt lat="45.83777" lon="5.36346">
        <ele>317</ele>
        <time>2023-04-18T21:12:01Z</time>
      </trkpt>
      <trkpt lat="45.83781" lon="5.36323">
        <ele>317</ele>
        <time>2023-04-18T21:12:05Z</time>
      </trkpt>
      <trkpt lat="45.83751" lon="5.36277">
        <ele>313</ele>
        <time>2023-04-18T21:12:15Z</time>
      </trkpt>
      <trkpt lat="45.83728" lon="5.36225">
        <ele>309</ele>
        <time>2023-04-18T21:12:25Z</time>
      </trkpt>
      <trkpt lat="45.83717" lon="5.36193">
        <ele>306</ele>
        <time>2023-04-18T21:12:31Z</time>
      </trkpt>
      <trkpt lat="45.83703" lon="5.36177">
        <ele>304</ele>
        <time>2023-04-18T21:12:35Z</time>
      </trkpt>
      <trkpt lat="45.83696" lon="5.36174">
        <ele>304</ele>
        <time>2023-04-18T21:12:37Z</time>
      </trkpt>
      <trkpt lat="45.83681" lon="5.36144">
        <ele>301</ele>
        <time>2023-04-18T21:12:43Z</time>
      </trkpt>
      <trkpt lat="45.83734" lon="5.3612">
        <ele>299</ele>
        <time>2023-04-18T21:12:56Z</time>
      </trkpt>
      <trkpt lat="45.83754" lon="5.36102">
        <ele>298</ele>
        <time>2023-04-18T21:13:01Z</time>
      </trkpt>
      <trkpt lat="45.83824" lon="5.35987">
        <ele>298</ele>
        <time>2023-04-18T21:13:26Z</time>
      </trkpt>
      <trkpt lat="45.8387" lon="5.35887">
        <ele>304</ele>
        <time>2023-04-18T21:13:45Z</time>
      </trkpt>
      <trkpt lat="45.83884" lon="5.35864">
        <ele>307</ele>
        <time>2023-04-18T21:13:50Z</time>
      </trkpt>
      <trkpt lat="45.83919" lon="5.35818">
        <ele>311</ele>
        <time>2023-04-18T21:14:02Z</time>
      </trkpt>
      <trkpt lat="45.83914" lon="5.35817">
        <ele>311</ele>
        <time>2023-04-18T21:14:03Z</time>
      </trkpt>
      <trkpt lat="45.83904" lon="5.35807">
        <ele>312</ele>
        <time>2023-04-18T21:14:06Z</time>
      </trkpt>
      <trkpt lat="45.83884" lon="5.35768">
        <ele>316</ele>
        <time>2023-04-18T21:14:13Z</time>
      </trkpt>
      <trkpt lat="45.83879" lon="5.35763">
        <ele>317</ele>
        <time>2023-04-18T21:14:15Z</time>
      </trkpt>
      <trkpt lat="45.8387" lon="5.3577">
        <ele>317</ele>
        <time>2023-04-18T21:14:17Z</time>
      </trkpt>
      <trkpt lat="45.8387" lon="5.35781">
        <ele>315</ele>
        <time>2023-04-18T21:14:19Z</time>
      </trkpt>
      <trkpt lat="45.83865" lon="5.35799">
        <ele>313</ele>
        <time>2023-04-18T21:14:22Z</time>
      </trkpt>
      <trkpt lat="45.83851" lon="5.35797">
        <ele>314</ele>
        <time>2023-04-18T21:14:25Z</time>
      </trkpt>
      <trkpt lat="45.83843" lon="5.35793">
        <ele>315</ele>
        <time>2023-04-18T21:14:27Z</time>
      </trkpt>
      <trkpt lat="45.83828" lon="5.35765">
        <ele>319</ele>
        <time>2023-04-18T21:14:33Z</time>
      </trkpt>
      <trkpt lat="45.83802" lon="5.35811">
        <ele>310</ele>
        <time>2023-04-18T21:14:43Z</time>
      </trkpt>
      <trkpt lat="45.83784" lon="5.35807">
        <ele>310</ele>
        <time>2023-04-18T21:14:47Z</time>
      </trkpt>
      <trkpt lat="45.8373" lon="5.35806">
        <ele>308</ele>
        <time>2023-04-18T21:15:00Z</time>
      </trkpt>
      <trkpt lat="45.83694" lon="5.358">
        <ele>309</ele>
        <time>2023-04-18T21:15:08Z</time>
      </trkpt>
      <trkpt lat="45.83649" lon="5.35813">
        <ele>306</ele>
        <time>2023-04-18T21:15:19Z</time>
      </trkpt>
      <trkpt lat="45.83546" lon="5.35784">
        <ele>305</ele>
        <time>2023-04-18T21:15:43Z</time>
      </trkpt>
      <trkpt lat="45.83495" lon="5.35758">
        <ele>305</ele>
        <time>2023-04-18T21:15:56Z</time>
      </trkpt>
      <trkpt lat="45.83492" lon="5.35746">
        <ele>306</ele>
        <time>2023-04-18T21:15:58Z</time>
      </trkpt>
      <trkpt lat="45.83515" lon="5.35714">
        <ele>310</ele>
        <time>2023-04-18T21:16:06Z</time>
      </trkpt>
      <trkpt lat="45.83515" lon="5.357">
        <ele>312</ele>
        <time>2023-04-18T21:16:08Z</time>
      </trkpt>
      <trkpt lat="45.83503" lon="5.35681">
        <ele>313</ele>
        <time>2023-04-18T21:16:12Z</time>
      </trkpt>
      <trkpt lat="45.83483" lon="5.35661">
        <ele>313</ele>
        <time>2023-04-18T21:16:18Z</time>
      </trkpt>
      <trkpt lat="45.83457" lon="5.35643">
        <ele>312</ele>
        <time>2023-04-18T21:16:24Z</time>
      </trkpt>
      <trkpt lat="45.83391" lon="5.35622">
        <ele>310</ele>
        <time>2023-04-18T21:16:40Z</time>
      </trkpt>
      <trkpt lat="45.83359" lon="5.35597">
        <ele>311</ele>
        <time>2023-04-18T21:16:49Z</time>
      </trkpt>
      <trkpt lat="45.83335" lon="5.3559">
        <ele>311</ele>
        <time>2023-04-18T21:16:54Z</time>
      </trkpt>
      <trkpt lat="45.83303" lon="5.35575">
        <ele>308</ele>
        <time>2023-04-18T21:17:02Z</time>
      </trkpt>
      <trkpt lat="45.83254" lon="5.35559">
        <ele>303</ele>
        <time>2023-04-18T21:17:14Z</time>
      </trkpt>
      <trkpt lat="45.83247" lon="5.35564">
        <ele>302</ele>
        <time>2023-04-18T21:17:16Z</time>
      </trkpt>
      <trkpt lat="45.8323" lon="5.35601">
        <ele>298</ele>
        <time>2023-04-18T21:17:23Z</time>
      </trkpt>
      <trkpt lat="45.83207" lon="5.35641">
        <ele>295</ele>
        <time>2023-04-18T21:17:32Z</time>
      </trkpt>
      <trkpt lat="45.83183" lon="5.35712">
        <ele>293</ele>
        <time>2023-04-18T21:17:44Z</time>
      </trkpt>
      <trkpt lat="45.83165" lon="5.35813">
        <ele>293</ele>
        <time>2023-04-18T21:18:01Z</time>
      </trkpt>
      <trkpt lat="45.83154" lon="5.35838">
        <ele>293</ele>
        <time>2023-04-18T21:18:06Z</time>
      </trkpt>
      <trkpt lat="45.83148" lon="5.35863">
        <ele>295</ele>
        <time>2023-04-18T21:18:10Z</time>
      </trkpt>
      <trkpt lat="45.8315" lon="5.35883">
        <ele>296</ele>
        <time>2023-04-18T21:18:14Z</time>
      </trkpt>
      <trkpt lat="45.83169" lon="5.35889">
        <ele>297</ele>
        <time>2023-04-18T21:18:18Z</time>
      </trkpt>
      <trkpt lat="45.83179" lon="5.35906">
        <ele>298</ele>
        <time>2023-04-18T21:18:22Z</time>
      </trkpt>
      <trkpt lat="45.83171" lon="5.35954">
        <ele>299</ele>
        <time>2023-04-18T21:18:30Z</time>
      </trkpt>
      <trkpt lat="45.83166" lon="5.35938">
        <ele>299</ele>
        <time>2023-04-18T21:18:33Z</time>
      </trkpt>
      <trkpt lat="45.83121" lon="5.35928">
        <ele>298</ele>
        <time>2023-04-18T21:18:43Z</time>
      </trkpt>
      <trkpt lat="45.83036" lon="5.35883">
        <ele>294</ele>
        <time>2023-04-18T21:19:05Z</time>
      </trkpt>
      <trkpt lat="45.8301" lon="5.35875">
        <ele>293</ele>
        <time>2023-04-18T21:19:11Z</time>
      </trkpt>
      <trkpt lat="45.82978" lon="5.35857">
        <ele>292</ele>
        <time>2023-04-18T21:19:19Z</time>
      </trkpt>
      <trkpt lat="45.82936" lon="5.35848">
        <ele>291</ele>
        <time>2023-04-18T21:19:29Z</time>
      </trkpt>
      <trkpt lat="45.82894" lon="5.35858">
        <ele>291</ele>
        <time>2023-04-18T21:19:39Z</time>
      </trkpt>
      <trkpt lat="45.82849" lon="5.35862">
        <ele>291</ele>
        <time>2023-04-18T21:19:49Z</time>
      </trkpt>
      <trkpt lat="45.82815" lon="5.35883">
        <ele>291</ele>
        <time>2023-04-18T21:19:58Z</time>
      </trkpt>
      <trkpt lat="45.82802" lon="5.35886">
        <ele>291</ele>
        <time>2023-04-18T21:20:01Z</time>
      </trkpt>
      <trkpt lat="45.82788" lon="5.35882">
        <ele>290</ele>
        <time>2023-04-18T21:20:04Z</time>
      </trkpt>
      <trkpt lat="45.82763" lon="5.35868">
        <ele>289</ele>
        <time>2023-04-18T21:20:11Z</time>
      </trkpt>
      <trkpt lat="45.82736" lon="5.35845">
        <ele>288</ele>
        <time>2023-04-18T21:20:18Z</time>
      </trkpt>
      <trkpt lat="45.82729" lon="5.35834">
        <ele>288</ele>
        <time>2023-04-18T21:20:20Z</time>
      </trkpt>
      <trkpt lat="45.82726" lon="5.35818">
        <ele>287</ele>
        <time>2023-04-18T21:20:23Z</time>
      </trkpt>
      <trkpt lat="45.82733" lon="5.35768">
        <ele>286</ele>
        <time>2023-04-18T21:20:31Z</time>
      </trkpt>
      <trkpt lat="45.82756" lon="5.35706">
        <ele>286</ele>
        <time>2023-04-18T21:20:43Z</time>
      </trkpt>
      <trkpt lat="45.82758" lon="5.3566">
        <ele>286</ele>
        <time>2023-04-18T21:20:50Z</time>
      </trkpt>
      <trkpt lat="45.82771" lon="5.35529">
        <ele>286</ele>
        <time>2023-04-18T21:21:12Z</time>
      </trkpt>
      <trkpt lat="45.82759" lon="5.35508">
        <ele>286</ele>
        <time>2023-04-18T21:21:16Z</time>
      </trkpt>
      <trkpt lat="45.82752" lon="5.35499">
        <ele>286</ele>
        <time>2023-04-18T21:21:18Z</time>
      </trkpt>
      <trkpt lat="45.82725" lon="5.35476">
        <ele>286</ele>
        <time>2023-04-18T21:21:26Z</time>
      </trkpt>
      <trkpt lat="45.82679" lon="5.35441">
        <ele>286</ele>
        <time>2023-04-18T21:21:38Z</time>
      </trkpt>
      <trkpt lat="45.82652" lon="5.35438">
        <ele>285</ele>
        <time>2023-04-18T21:21:44Z</time>
      </trkpt>
      <trkpt lat="45.82638" lon="5.35441">
        <ele>285</ele>
        <time>2023-04-18T21:21:48Z</time>
      </trkpt>
      <trkpt lat="45.8261" lon="5.35456">
        <ele>283</ele>
        <time>2023-04-18T21:21:54Z</time>
      </trkpt>
      <trkpt lat="45.82603" lon="5.35456">
        <ele>283</ele>
        <time>2023-04-18T21:21:56Z</time>
      </trkpt>
      <trkpt lat="45.82591" lon="5.35382">
        <ele>286</ele>
        <time>2023-04-18T21:22:08Z</time>
      </trkpt>
      <trkpt lat="45.82573" lon="5.3536">
        <ele>286</ele>
        <time>2023-04-18T21:22:14Z</time>
      </trkpt>
      <trkpt lat="45.8258" lon="5.35298">
        <ele>290</ele>
        <time>2023-04-18T21:22:24Z</time>
      </trkpt>
      <trkpt lat="45.82529" lon="5.3529">
        <ele>287</ele>
        <time>2023-04-18T21:22:36Z</time>
      </trkpt>
      <trkpt lat="45.82492" lon="5.35293">
        <ele>286</ele>
        <time>2023-04-18T21:22:45Z</time>
      </trkpt>
      <trkpt lat="45.82454" lon="5.35288">
        <ele>285</ele>
        <time>2023-04-18T21:22:54Z</time>
      </trkpt>
      <trkpt lat="45.82407" lon="5.35265">
        <ele>284</ele>
        <time>2023-04-18T21:23:05Z</time>
      </trkpt>
      <trkpt lat="45.82351" lon="5.35246">
        <ele>282</ele>
        <time>2023-04-18T21:23:19Z</time>
      </trkpt>
      <trkpt lat="45.82308" lon="5.35227">
        <ele>281</ele>
        <time>2023-04-18T21:23:29Z</time>
      </trkpt>
      <trkpt lat="45.82283" lon="5.35219">
        <ele>281</ele>
        <time>2023-04-18T21:23:35Z</time>
      </trkpt>
      <trkpt lat="45.82284" lon="5.35189">
        <ele>282</ele>
        <time>2023-04-18T21:23:40Z</time>
      </trkpt>
      <trkpt lat="45.82219" lon="5.35073">
        <ele>282</ele>
        <time>2023-04-18T21:24:04Z</time>
      </trkpt>
      <trkpt lat="45.82202" lon="5.35048">
        <ele>281</ele>
        <time>2023-04-18T21:24:10Z</time>
      </trkpt>
      <trkpt lat="45.82184" lon="5.35027">
        <ele>280</ele>
        <time>2023-04-18T21:24:16Z</time>
      </trkpt>
      <trkpt lat="45.8219" lon="5.35017">
        <ele>280</ele>
        <time>2023-04-18T21:24:18Z</time>
      </trkpt>
      <trkpt lat="45.82221" lon="5.34997">
        <ele>283</ele>
        <time>2023-04-18T21:24:26Z</time>
      </trkpt>
      <trkpt lat="45.82241" lon="5.3498">
        <ele>285</ele>
        <time>2023-04-18T21:24:31Z</time>
      </trkpt>
      <trkpt lat="45.82258" lon="5.34957">
        <ele>286</ele>
        <time>2023-04-18T21:24:36Z</time>
      </trkpt>
      <trkpt lat="45.82262" lon="5.34937">
        <ele>286</ele>
        <time>2023-04-18T21:24:40Z</time>
      </trkpt>
      <trkpt lat="45.82258" lon="5.34921">
        <ele>286</ele>
        <time>2023-04-18T21:24:43Z</time>
      </trkpt>
      <trkpt lat="45.82259" lon="5.34896">
        <ele>286</ele>
        <time>2023-04-18T21:24:47Z</time>
      </trkpt>
      <trkpt lat="45.82267" lon="5.34884">
        <ele>286</ele>
        <time>2023-04-18T21:24:49Z</time>
      </trkpt>
      <trkpt lat="45.82295" lon="5.34864">
        <ele>287</ele>
        <time>2023-04-18T21:24:57Z</time>
      </trkpt>
      <trkpt lat="45.823" lon="5.34845">
        <ele>287</ele>
        <time>2023-04-18T21:25:00Z</time>
      </trkpt>
      <trkpt lat="45.82305" lon="5.34795">
        <ele>286</ele>
        <time>2023-04-18T21:25:08Z</time>
      </trkpt>
      <trkpt lat="45.82303" lon="5.34784">
        <ele>286</ele>
        <time>2023-04-18T21:25:10Z</time>
      </trkpt>
      <trkpt lat="45.82305" lon="5.34749">
        <ele>285</ele>
        <time>2023-04-18T21:25:16Z</time>
      </trkpt>
      <trkpt lat="45.82295" lon="5.34713">
        <ele>281</ele>
        <time>2023-04-18T21:25:22Z</time>
      </trkpt>
      <trkpt lat="45.82277" lon="5.34691">
        <ele>279</ele>
        <time>2023-04-18T21:25:28Z</time>
      </trkpt>
      <trkpt lat="45.82278" lon="5.34674">
        <ele>277</ele>
        <time>2023-04-18T21:25:30Z</time>
      </trkpt>
      <trkpt lat="45.82289" lon="5.3465">
        <ele>274</ele>
        <time>2023-04-18T21:25:35Z</time>
      </trkpt>
      <trkpt lat="45.82327" lon="5.3465">
        <ele>275</ele>
        <time>2023-04-18T21:25:44Z</time>
      </trkpt>
      <trkpt lat="45.82401" lon="5.34657">
        <ele>280</ele>
        <time>2023-04-18T21:26:01Z</time>
      </trkpt>
      <trkpt lat="45.82505" lon="5.34652">
        <ele>282</ele>
        <time>2023-04-18T21:26:26Z</time>
      </trkpt>
      <trkpt lat="45.82538" lon="5.34657">
        <ele>283</ele>
        <time>2023-04-18T21:26:33Z</time>
      </trkpt>
      <trkpt lat="45.82569" lon="5.34657">
        <ele>285</ele>
        <time>2023-04-18T21:26:41Z</time>
      </trkpt>
      <trkpt lat="45.82591" lon="5.34652">
        <ele>287</ele>
        <time>2023-04-18T21:26:46Z</time>
      </trkpt>
      <trkpt lat="45.82622" lon="5.3465">
        <ele>288</ele>
        <time>2023-04-18T21:26:53Z</time>
      </trkpt>
      <trkpt lat="45.82661" lon="5.34638">
        <ele>291</ele>
        <time>2023-04-18T21:27:02Z</time>
      </trkpt>
      <trkpt lat="45.82709" lon="5.34635">
        <ele>293</ele>
        <time>2023-04-18T21:27:14Z</time>
      </trkpt>
      <trkpt lat="45.82755" lon="5.34642">
        <ele>296</ele>
        <time>2023-04-18T21:27:24Z</time>
      </trkpt>
      <trkpt lat="45.82798" lon="5.34658">
        <ele>298</ele>
        <time>2023-04-18T21:27:35Z</time>
      </trkpt>
      <trkpt lat="45.82818" lon="5.34663">
        <ele>298</ele>
        <time>2023-04-18T21:27:39Z</time>
      </trkpt>
      <trkpt lat="45.8291" lon="5.34666">
        <ele>304</ele>
        <time>2023-04-18T21:28:01Z</time>
      </trkpt>
      <trkpt lat="45.82937" lon="5.34674">
        <ele>304</ele>
        <time>2023-04-18T21:28:07Z</time>
      </trkpt>
      <trkpt lat="45.82978" lon="5.34681">
        <ele>305</ele>
        <time>2023-04-18T21:28:17Z</time>
      </trkpt>
      <trkpt lat="45.83013" lon="5.34693">
        <ele>306</ele>
        <time>2023-04-18T21:28:25Z</time>
      </trkpt>
      <trkpt lat="45.83029" lon="5.34696">
        <ele>307</ele>
        <time>2023-04-18T21:28:29Z</time>
      </trkpt>
      <trkpt lat="45.83179" lon="5.34718">
        <ele>313</ele>
        <time>2023-04-18T21:29:04Z</time>
      </trkpt>
      <trkpt lat="45.83301" lon="5.34732">
        <ele>317</ele>
        <time>2023-04-18T21:29:33Z</time>
      </trkpt>
      <trkpt lat="45.83343" lon="5.34742">
        <ele>318</ele>
        <time>2023-04-18T21:29:43Z</time>
      </trkpt>
      <trkpt lat="45.83383" lon="5.34762">
        <ele>319</ele>
        <time>2023-04-18T21:29:53Z</time>
      </trkpt>
      <trkpt lat="45.834" lon="5.34768">
        <ele>320</ele>
        <time>2023-04-18T21:29:57Z</time>
      </trkpt>
      <trkpt lat="45.83419" lon="5.34781">
        <ele>320</ele>
        <time>2023-04-18T21:30:02Z</time>
      </trkpt>
      <trkpt lat="45.83427" lon="5.34815">
        <ele>319</ele>
        <time>2023-04-18T21:30:08Z</time>
      </trkpt>
      <trkpt lat="45.83456" lon="5.34859">
        <ele>319</ele>
        <time>2023-04-18T21:30:18Z</time>
      </trkpt>
      <trkpt lat="45.83481" lon="5.34803">
        <ele>320</ele>
        <time>2023-04-18T21:30:28Z</time>
      </trkpt>
      <trkpt lat="45.83486" lon="5.34785">
        <ele>320</ele>
        <time>2023-04-18T21:30:32Z</time>
      </trkpt>
      <trkpt lat="45.83522" lon="5.34729">
        <ele>322</ele>
        <time>2023-04-18T21:30:44Z</time>
      </trkpt>
      <trkpt lat="45.83527" lon="5.34703">
        <ele>323</ele>
        <time>2023-04-18T21:30:48Z</time>
      </trkpt>
      <trkpt lat="45.83531" lon="5.34695">
        <ele>324</ele>
        <time>2023-04-18T21:30:50Z</time>
      </trkpt>
      <trkpt lat="45.83564" lon="5.34693">
        <ele>323</ele>
        <time>2023-04-18T21:30:58Z</time>
      </trkpt>
      <trkpt lat="45.83611" lon="5.347">
        <ele>324</ele>
        <time>2023-04-18T21:31:09Z</time>
      </trkpt>
      <trkpt lat="45.83625" lon="5.34708">
        <ele>325</ele>
        <time>2023-04-18T21:31:12Z</time>
      </trkpt>
      <trkpt lat="45.83636" lon="5.34733">
        <ele>324</ele>
        <time>2023-04-18T21:31:17Z</time>
      </trkpt>
      <trkpt lat="45.83656" lon="5.34758">
        <ele>325</ele>
        <time>2023-04-18T21:31:23Z</time>
      </trkpt>
      <trkpt lat="45.83717" lon="5.34813">
        <ele>327</ele>
        <time>2023-04-18T21:31:40Z</time>
      </trkpt>
      <trkpt lat="45.83728" lon="5.34831">
        <ele>328</ele>
        <time>2023-04-18T21:31:44Z</time>
      </trkpt>
      <trkpt lat="45.8374" lon="5.3487">
        <ele>328</ele>
        <time>2023-04-18T21:31:51Z</time>
      </trkpt>
      <trkpt lat="45.83763" lon="5.34927">
        <ele>329</ele>
        <time>2023-04-18T21:32:02Z</time>
      </trkpt>
      <trkpt lat="45.83779" lon="5.3496">
        <ele>329</ele>
        <time>2023-04-18T21:32:08Z</time>
      </trkpt>
      <trkpt lat="45.83809" lon="5.35009">
        <ele>330</ele>
        <time>2023-04-18T21:32:19Z</time>
      </trkpt>
      <trkpt lat="45.83823" lon="5.35011">
        <ele>331</ele>
        <time>2023-04-18T21:32:22Z</time>
      </trkpt>
      <trkpt lat="45.83866" lon="5.34984">
        <ele>334</ele>
        <time>2023-04-18T21:32:33Z</time>
      </trkpt>
      <trkpt lat="45.83911" lon="5.3495">
        <ele>336</ele>
        <time>2023-04-18T21:32:45Z</time>
      </trkpt>
      <trkpt lat="45.83936" lon="5.34936">
        <ele>338</ele>
        <time>2023-04-18T21:32:51Z</time>
      </trkpt>
      <trkpt lat="45.83954" lon="5.34937">
        <ele>339</ele>
        <time>2023-04-18T21:32:55Z</time>
      </trkpt>
      <trkpt lat="45.83973" lon="5.34934">
        <ele>340</ele>
        <time>2023-04-18T21:33:00Z</time>
      </trkpt>
      <trkpt lat="45.8399" lon="5.34927">
        <ele>341</ele>
        <time>2023-04-18T21:33:04Z</time>
      </trkpt>
      <trkpt lat="45.84014" lon="5.34903">
        <ele>342</ele>
        <time>2023-04-18T21:33:11Z</time>
      </trkpt>
      <trkpt lat="45.84025" lon="5.34899">
        <ele>343</ele>
        <time>2023-04-18T21:33:13Z</time>
      </trkpt>
      <trkpt lat="45.84039" lon="5.34899">
        <ele>343</ele>
        <time>2023-04-18T21:33:17Z</time>
      </trkpt>
      <trkpt lat="45.84062" lon="5.34909">
        <ele>344</ele>
        <time>2023-04-18T21:33:22Z</time>
      </trkpt>
      <trkpt lat="45.84072" lon="5.34894">
        <ele>344</ele>
        <time>2023-04-18T21:33:26Z</time>
      </trkpt>
      <trkpt lat="45.84074" lon="5.34887">
        <ele>344</ele>
        <time>2023-04-18T21:33:27Z</time>
      </trkpt>
      <trkpt lat="45.84072" lon="5.34866">
        <ele>343</ele>
        <time>2023-04-18T21:33:30Z</time>
      </trkpt>
      <trkpt lat="45.84064" lon="5.34846">
        <ele>343</ele>
        <time>2023-04-18T21:33:34Z</time>
      </trkpt>
      <trkpt lat="45.84046" lon="5.3483">
        <ele>342</ele>
        <time>2023-04-18T21:33:39Z</time>
      </trkpt>
      <trkpt lat="45.84015" lon="5.34811">
        <ele>340</ele>
        <time>2023-04-18T21:33:47Z</time>
      </trkpt>
      <trkpt lat="45.84014" lon="5.34807">
        <ele>340</ele>
        <time>2023-04-18T21:33:48Z</time>
      </trkpt>
      <trkpt lat="45.84014" lon="5.34796">
        <ele>339</ele>
        <time>2023-04-18T21:33:49Z</time>
      </trkpt>
      <trkpt lat="45.84021" lon="5.34768">
        <ele>337</ele>
        <time>2023-04-18T21:33:54Z</time>
      </trkpt>
      <trkpt lat="45.84035" lon="5.34744">
        <ele>337</ele>
        <time>2023-04-18T21:33:59Z</time>
      </trkpt>
      <trkpt lat="45.84044" lon="5.34721">
        <ele>336</ele>
        <time>2023-04-18T21:34:04Z</time>
      </trkpt>
      <trkpt lat="45.84051" lon="5.34692">
        <ele>335</ele>
        <time>2023-04-18T21:34:09Z</time>
      </trkpt>
      <trkpt lat="45.84056" lon="5.34648">
        <ele>334</ele>
        <time>2023-04-18T21:34:16Z</time>
      </trkpt>
      <trkpt lat="45.8406" lon="5.34604">
        <ele>333</ele>
        <time>2023-04-18T21:34:23Z</time>
      </trkpt>
      <trkpt lat="45.84056" lon="5.34562">
        <ele>331</ele>
        <time>2023-04-18T21:34:30Z</time>
      </trkpt>
      <trkpt lat="45.84042" lon="5.34499">
        <ele>328</ele>
        <time>2023-04-18T21:34:41Z</time>
      </trkpt>
      <trkpt lat="45.84035" lon="5.34447">
        <ele>325</ele>
        <time>2023-04-18T21:34:49Z</time>
      </trkpt>
      <trkpt lat="45.84038" lon="5.34434">
        <ele>324</ele>
        <time>2023-04-18T21:34:52Z</time>
      </trkpt>
      <trkpt lat="45.84053" lon="5.34413">
        <ele>322</ele>
        <time>2023-04-18T21:34:56Z</time>
      </trkpt>
      <trkpt lat="45.84056" lon="5.34405">
        <ele>322</ele>
        <time>2023-04-18T21:34:58Z</time>
      </trkpt>
      <trkpt lat="45.84057" lon="5.34387">
        <ele>320</ele>
        <time>2023-04-18T21:35:01Z</time>
      </trkpt>
      <trkpt lat="45.84049" lon="5.34384">
        <ele>320</ele>
        <time>2023-04-18T21:35:03Z</time>
      </trkpt>
      <trkpt lat="45.84018" lon="5.34356">
        <ele>318</ele>
        <time>2023-04-18T21:35:11Z</time>
      </trkpt>
      <trkpt lat="45.84009" lon="5.34345">
        <ele>317</ele>
        <time>2023-04-18T21:35:14Z</time>
      </trkpt>
      <trkpt lat="45.83975" lon="5.34317">
        <ele>316</ele>
        <time>2023-04-18T21:35:23Z</time>
      </trkpt>
      <trkpt lat="45.83902" lon="5.34249">
        <ele>314</ele>
        <time>2023-04-18T21:35:44Z</time>
      </trkpt>
      <trkpt lat="45.83778" lon="5.34188">
        <ele>312</ele>
        <time>2023-04-18T21:36:14Z</time>
      </trkpt>
      <trkpt lat="45.8373" lon="5.34173">
        <ele>311</ele>
        <time>2023-04-18T21:36:26Z</time>
      </trkpt>
      <trkpt lat="45.8373" lon="5.34169">
        <ele>311</ele>
        <time>2023-04-18T21:36:26Z</time>
      </trkpt>
      <trkpt lat="45.83755" lon="5.34141">
        <ele>311</ele>
        <time>2023-04-18T21:36:34Z</time>
      </trkpt>
      <trkpt lat="45.83761" lon="5.34121">
        <ele>312</ele>
        <time>2023-04-18T21:36:37Z</time>
      </trkpt>
      <trkpt lat="45.83762" lon="5.34101">
        <ele>313</ele>
        <time>2023-04-18T21:36:41Z</time>
      </trkpt>
      <trkpt lat="45.83753" lon="5.34081">
        <ele>313</ele>
        <time>2023-04-18T21:36:44Z</time>
      </trkpt>
      <trkpt lat="45.83735" lon="5.34051">
        <ele>314</ele>
        <time>2023-04-18T21:36:51Z</time>
      </trkpt>
      <trkpt lat="45.83728" lon="5.34017">
        <ele>315</ele>
        <time>2023-04-18T21:36:57Z</time>
      </trkpt>
      <trkpt lat="45.83678" lon="5.33609">
        <ele>327</ele>
        <time>2023-04-18T21:38:04Z</time>
      </trkpt>
      <trkpt lat="45.83632" lon="5.33415">
        <ele>315</ele>
        <time>2023-04-18T21:38:37Z</time>
      </trkpt>
      <trkpt lat="45.83638" lon="5.33392">
        <ele>313</ele>
        <time>2023-04-18T21:38:41Z</time>
      </trkpt>
      <trkpt lat="45.83661" lon="5.33353">
        <ele>308</ele>
        <time>2023-04-18T21:38:50Z</time>
      </trkpt>
      <trkpt lat="45.8367" lon="5.33346">
        <ele>307</ele>
        <time>2023-04-18T21:38:52Z</time>
      </trkpt>
      <trkpt lat="45.83719" lon="5.33347">
        <ele>305</ele>
        <time>2023-04-18T21:39:03Z</time>
      </trkpt>
      <trkpt lat="45.83729" lon="5.33343">
        <ele>304</ele>
        <time>2023-04-18T21:39:06Z</time>
      </trkpt>
      <trkpt lat="45.83759" lon="5.33306">
        <ele>297</ele>
        <time>2023-04-18T21:39:15Z</time>
      </trkpt>
      <trkpt lat="45.83925" lon="5.33254">
        <ele>280</ele>
        <time>2023-04-18T21:39:55Z</time>
      </trkpt>
      <trkpt lat="45.84041" lon="5.33282">
        <ele>273</ele>
        <time>2023-04-18T21:40:22Z</time>
      </trkpt>
      <trkpt lat="45.84051" lon="5.33295">
        <ele>272</ele>
        <time>2023-04-18T21:40:25Z</time>
      </trkpt>
      <trkpt lat="45.84048" lon="5.33303">
        <ele>272</ele>
        <time>2023-04-18T21:40:27Z</time>
      </trkpt>
      <trkpt lat="45.84057" lon="5.33351">
        <ele>275</ele>
        <time>2023-04-18T21:40:35Z</time>
      </trkpt>
      <trkpt lat="45.84073" lon="5.33377">
        <ele>277</ele>
        <time>2023-04-18T21:40:41Z</time>
      </trkpt>
      <trkpt lat="45.84104" lon="5.33418">
        <ele>277</ele>
        <time>2023-04-18T21:40:51Z</time>
      </trkpt>
      <trkpt lat="45.84111" lon="5.33433">
        <ele>279</ele>
        <time>2023-04-18T21:40:53Z</time>
      </trkpt>
      <trkpt lat="45.84116" lon="5.33457">
        <ele>283</ele>
        <time>2023-04-18T21:40:58Z</time>
      </trkpt>
      <trkpt lat="45.84165" lon="5.33499">
        <ele>281</ele>
        <time>2023-04-18T21:41:11Z</time>
      </trkpt>
      <trkpt lat="45.84201" lon="5.33539">
        <ele>285</ele>
        <time>2023-04-18T21:41:21Z</time>
      </trkpt>
      <trkpt lat="45.84247" lon="5.3357">
        <ele>284</ele>
        <time>2023-04-18T21:41:33Z</time>
      </trkpt>
      <trkpt lat="45.84333" lon="5.33639">
        <ele>289</ele>
        <time>2023-04-18T21:41:56Z</time>
      </trkpt>
      <trkpt lat="45.84446" lon="5.33704">
        <ele>291</ele>
        <time>2023-04-18T21:42:25Z</time>
      </trkpt>
      <trkpt lat="45.84476" lon="5.33704">
        <ele>288</ele>
        <time>2023-04-18T21:42:32Z</time>
      </trkpt>
      <trkpt lat="45.84492" lon="5.33699">
        <ele>284</ele>
        <time>2023-04-18T21:42:36Z</time>
      </trkpt>
      <trkpt lat="45.8451" lon="5.33697">
        <ele>283</ele>
        <time>2023-04-18T21:42:40Z</time>
      </trkpt>
      <trkpt lat="45.84558" lon="5.33697">
        <ele>284</ele>
        <time>2023-04-18T21:42:51Z</time>
      </trkpt>
      <trkpt lat="45.84571" lon="5.33699">
        <ele>284</ele>
        <time>2023-04-18T21:42:54Z</time>
      </trkpt>
      <trkpt lat="45.84634" lon="5.33741">
        <ele>287</ele>
        <time>2023-04-18T21:43:10Z</time>
      </trkpt>
      <trkpt lat="45.84679" lon="5.33782">
        <ele>290</ele>
        <time>2023-04-18T21:43:23Z</time>
      </trkpt>
      <trkpt lat="45.84679" lon="5.33794">
        <ele>292</ele>
        <time>2023-04-18T21:43:25Z</time>
      </trkpt>
      <trkpt lat="45.84674" lon="5.33807">
        <ele>294</ele>
        <time>2023-04-18T21:43:27Z</time>
      </trkpt>
      <trkpt lat="45.84677" lon="5.33816">
        <ele>295</ele>
        <time>2023-04-18T21:43:29Z</time>
      </trkpt>
      <trkpt lat="45.8469" lon="5.33818">
        <ele>296</ele>
        <time>2023-04-18T21:43:32Z</time>
      </trkpt>
      <trkpt lat="45.84714" lon="5.33803">
        <ele>293</ele>
        <time>2023-04-18T21:43:38Z</time>
      </trkpt>
      <trkpt lat="45.84728" lon="5.33797">
        <ele>292</ele>
        <time>2023-04-18T21:43:41Z</time>
      </trkpt>
      <trkpt lat="45.84742" lon="5.33794">
        <ele>291</ele>
        <time>2023-04-18T21:43:45Z</time>
      </trkpt>
      <trkpt lat="45.84759" lon="5.33796">
        <ele>291</ele>
        <time>2023-04-18T21:43:49Z</time>
      </trkpt>
      <trkpt lat="45.84785" lon="5.33809">
        <ele>293</ele>
        <time>2023-04-18T21:43:55Z</time>
      </trkpt>
      <trkpt lat="45.848" lon="5.33826">
        <ele>297</ele>
        <time>2023-04-18T21:44:00Z</time>
      </trkpt>
      <trkpt lat="45.84841" lon="5.33841">
        <ele>300</ele>
        <time>2023-04-18T21:44:09Z</time>
      </trkpt>
      <trkpt lat="45.84878" lon="5.33852">
        <ele>300</ele>
        <time>2023-04-18T21:44:18Z</time>
      </trkpt>
      <trkpt lat="45.84901" lon="5.33853">
        <ele>298</ele>
        <time>2023-04-18T21:44:24Z</time>
      </trkpt>
      <trkpt lat="45.84924" lon="5.3385">
        <ele>296</ele>
        <time>2023-04-18T21:44:29Z</time>
      </trkpt>
      <trkpt lat="45.84939" lon="5.33855">
        <ele>296</ele>
        <time>2023-04-18T21:44:33Z</time>
      </trkpt>
      <trkpt lat="45.85015" lon="5.33898">
        <ele>300</ele>
        <time>2023-04-18T21:44:52Z</time>
      </trkpt>
      <trkpt lat="45.85056" lon="5.33912">
        <ele>300</ele>
        <time>2023-04-18T21:45:01Z</time>
      </trkpt>
      <trkpt lat="45.85075" lon="5.33931">
        <ele>305</ele>
        <time>2023-04-18T21:45:07Z</time>
      </trkpt>
      <trkpt lat="45.85134" lon="5.33972">
        <ele>306</ele>
        <time>2023-04-18T21:45:22Z</time>
      </trkpt>
      <trkpt lat="45.85196" lon="5.34052">
        <ele>317</ele>
        <time>2023-04-18T21:45:42Z</time>
      </trkpt>
      <trkpt lat="45.85244" lon="5.34108">
        <ele>320</ele>
        <time>2023-04-18T21:45:56Z</time>
      </trkpt>
      <trkpt lat="45.85274" lon="5.34158">
        <ele>322</ele>
        <time>2023-04-18T21:46:07Z</time>
      </trkpt>
      <trkpt lat="45.8528" lon="5.34183">
        <ele>326</ele>
        <time>2023-04-18T21:46:11Z</time>
      </trkpt>
      <trkpt lat="45.85282" lon="5.34219">
        <ele>332</ele>
        <time>2023-04-18T21:46:17Z</time>
      </trkpt>
      <trkpt lat="45.85294" lon="5.34289">
        <ele>342</ele>
        <time>2023-04-18T21:46:29Z</time>
      </trkpt>
      <trkpt lat="45.85294" lon="5.34363">
        <ele>350</ele>
        <time>2023-04-18T21:46:41Z</time>
      </trkpt>
      <trkpt lat="45.85292" lon="5.34373">
        <ele>351</ele>
        <time>2023-04-18T21:46:42Z</time>
      </trkpt>
      <trkpt lat="45.85272" lon="5.34416">
        <ele>350</ele>
        <time>2023-04-18T21:46:51Z</time>
      </trkpt>
      <trkpt lat="45.85219" lon="5.34479">
        <ele>354</ele>
        <time>2023-04-18T21:47:07Z</time>
      </trkpt>
      <trkpt lat="45.852" lon="5.34509">
        <ele>355</ele>
        <time>2023-04-18T21:47:14Z</time>
      </trkpt>
      <trkpt lat="45.85173" lon="5.3456">
        <ele>355</ele>
        <time>2023-04-18T21:47:24Z</time>
      </trkpt>
      <trkpt lat="45.85168" lon="5.34591">
        <ele>356</ele>
        <time>2023-04-18T21:47:29Z</time>
      </trkpt>
      <trkpt lat="45.85168" lon="5.34719">
        <ele>362</ele>
        <time>2023-04-18T21:47:50Z</time>
      </trkpt>
      <trkpt lat="45.85157" lon="5.34756">
        <ele>362</ele>
        <time>2023-04-18T21:47:57Z</time>
      </trkpt>
      <trkpt lat="45.85163" lon="5.34759">
        <ele>362</ele>
        <time>2023-04-18T21:47:58Z</time>
      </trkpt>
      <trkpt lat="45.85193" lon="5.34741">
        <ele>363</ele>
        <time>2023-04-18T21:48:06Z</time>
      </trkpt>
      <trkpt lat="45.85235" lon="5.34703">
        <ele>367</ele>
        <time>2023-04-18T21:48:17Z</time>
      </trkpt>
      <trkpt lat="45.85245" lon="5.34687">
        <ele>368</ele>
        <time>2023-04-18T21:48:21Z</time>
      </trkpt>
      <trkpt lat="45.85245" lon="5.34673">
        <ele>369</ele>
        <time>2023-04-18T21:48:23Z</time>
      </trkpt>
      <trkpt lat="45.85249" lon="5.34653">
        <ele>370</ele>
        <time>2023-04-18T21:48:26Z</time>
      </trkpt>
      <trkpt lat="45.85268" lon="5.34626">
        <ele>370</ele>
        <time>2023-04-18T21:48:33Z</time>
      </trkpt>
      <trkpt lat="45.85292" lon="5.34582">
        <ele>373</ele>
        <time>2023-04-18T21:48:42Z</time>
      </trkpt>
      <trkpt lat="45.85329" lon="5.34545">
        <ele>375</ele>
        <time>2023-04-18T21:48:52Z</time>
      </trkpt>
      <trkpt lat="45.8541" lon="5.34484">
        <ele>381</ele>
        <time>2023-04-18T21:49:14Z</time>
      </trkpt>
      <trkpt lat="45.85433" lon="5.34484">
        <ele>382</ele>
        <time>2023-04-18T21:49:19Z</time>
      </trkpt>
      <trkpt lat="45.8547" lon="5.34491">
        <ele>380</ele>
        <time>2023-04-18T21:49:28Z</time>
      </trkpt>
      <trkpt lat="45.85474" lon="5.34519">
        <ele>378</ele>
        <time>2023-04-18T21:49:32Z</time>
      </trkpt>
      <trkpt lat="45.85488" lon="5.34537">
        <ele>375</ele>
        <time>2023-04-18T21:49:37Z</time>
      </trkpt>
      <trkpt lat="45.85502" lon="5.34549">
        <ele>373</ele>
        <time>2023-04-18T21:49:41Z</time>
      </trkpt>
      <trkpt lat="45.85518" lon="5.34568">
        <ele>369</ele>
        <time>2023-04-18T21:49:45Z</time>
      </trkpt>
      <trkpt lat="45.85512" lon="5.34592">
        <ele>368</ele>
        <time>2023-04-18T21:49:50Z</time>
      </trkpt>
      <trkpt lat="45.8551" lon="5.34628">
        <ele>367</ele>
        <time>2023-04-18T21:49:55Z</time>
      </trkpt>
      <trkpt lat="45.85507" lon="5.34638">
        <ele>367</ele>
        <time>2023-04-18T21:49:57Z</time>
      </trkpt>
      <trkpt lat="45.85482" lon="5.34657">
        <ele>369</ele>
        <time>2023-04-18T21:50:04Z</time>
      </trkpt>
      <trkpt lat="45.8544" lon="5.34715">
        <ele>375</ele>
        <time>2023-04-18T21:50:17Z</time>
      </trkpt>
      <trkpt lat="45.85407" lon="5.34754">
        <ele>376</ele>
        <time>2023-04-18T21:50:27Z</time>
      </trkpt>
      <trkpt lat="45.85375" lon="5.34813">
        <ele>375</ele>
        <time>2023-04-18T21:50:40Z</time>
      </trkpt>
      <trkpt lat="45.85372" lon="5.34837">
        <ele>375</ele>
        <time>2023-04-18T21:50:43Z</time>
      </trkpt>
      <trkpt lat="45.85373" lon="5.34841">
        <ele>375</ele>
        <time>2023-04-18T21:50:44Z</time>
      </trkpt>
      <trkpt lat="45.85385" lon="5.34853">
        <ele>375</ele>
        <time>2023-04-18T21:50:48Z</time>
      </trkpt>
      <trkpt lat="45.85396" lon="5.34858">
        <ele>375</ele>
        <time>2023-04-18T21:50:50Z</time>
      </trkpt>
      <trkpt lat="45.85406" lon="5.34869">
        <ele>375</ele>
        <time>2023-04-18T21:50:53Z</time>
      </trkpt>
      <trkpt lat="45.85412" lon="5.34872">
        <ele>375</ele>
        <time>2023-04-18T21:50:55Z</time>
      </trkpt>
      <trkpt lat="45.85417" lon="5.34884">
        <ele>375</ele>
        <time>2023-04-18T21:50:57Z</time>
      </trkpt>
      <trkpt lat="45.85426" lon="5.34896">
        <ele>375</ele>
        <time>2023-04-18T21:51:00Z</time>
      </trkpt>
      <trkpt lat="45.85475" lon="5.34911">
        <ele>376</ele>
        <time>2023-04-18T21:51:12Z</time>
      </trkpt>
      <trkpt lat="45.85488" lon="5.3492">
        <ele>377</ele>
        <time>2023-04-18T21:51:15Z</time>
      </trkpt>
      <trkpt lat="45.85493" lon="5.3493">
        <ele>378</ele>
        <time>2023-04-18T21:51:17Z</time>
      </trkpt>
      <trkpt lat="45.85508" lon="5.34938">
        <ele>380</ele>
        <time>2023-04-18T21:51:21Z</time>
      </trkpt>
      <trkpt lat="45.85517" lon="5.34939">
        <ele>381</ele>
        <time>2023-04-18T21:51:23Z</time>
      </trkpt>
      <trkpt lat="45.85529" lon="5.34944">
        <ele>383</ele>
        <time>2023-04-18T21:51:26Z</time>
      </trkpt>
      <trkpt lat="45.8555" lon="5.34982">
        <ele>386</ele>
        <time>2023-04-18T21:51:34Z</time>
      </trkpt>
      <trkpt lat="45.8557" lon="5.35031">
        <ele>390</ele>
        <time>2023-04-18T21:51:43Z</time>
      </trkpt>
      <trkpt lat="45.85565" lon="5.3505">
        <ele>390</ele>
        <time>2023-04-18T21:51:46Z</time>
      </trkpt>
      <trkpt lat="45.85524" lon="5.35112">
        <ele>392</ele>
        <time>2023-04-18T21:52:00Z</time>
      </trkpt>
      <trkpt lat="45.85505" lon="5.35159">
        <ele>392</ele>
        <time>2023-04-18T21:52:09Z</time>
      </trkpt>
      <trkpt lat="45.85508" lon="5.35169">
        <ele>392</ele>
        <time>2023-04-18T21:52:11Z</time>
      </trkpt>
      <trkpt lat="45.85527" lon="5.35166">
        <ele>393</ele>
        <time>2023-04-18T21:52:15Z</time>
      </trkpt>
      <trkpt lat="45.85545" lon="5.35236">
        <ele>394</ele>
        <time>2023-04-18T21:52:27Z</time>
      </trkpt>
      <trkpt lat="45.8554" lon="5.35273">
        <ele>394</ele>
        <time>2023-04-18T21:52:33Z</time>
      </trkpt>
      <trkpt lat="45.85534" lon="5.35287">
        <ele>393</ele>
        <time>2023-04-18T21:52:36Z</time>
      </trkpt>
      <trkpt lat="45.85526" lon="5.35295">
        <ele>393</ele>
        <time>2023-04-18T21:52:38Z</time>
      </trkpt>
      <trkpt lat="45.85522" lon="5.35294">
        <ele>392</ele>
        <time>2023-04-18T21:52:39Z</time>
      </trkpt>
      <trkpt lat="45.85512" lon="5.35302">
        <ele>392</ele>
        <time>2023-04-18T21:52:42Z</time>
      </trkpt>
      <trkpt lat="45.85496" lon="5.35307">
        <ele>391</ele>
        <time>2023-04-18T21:52:46Z</time>
      </trkpt>
      <trkpt lat="45.85486" lon="5.35307">
        <ele>390</ele>
        <time>2023-04-18T21:52:48Z</time>
      </trkpt>
      <trkpt lat="45.85473" lon="5.35321">
        <ele>389</ele>
        <time>2023-04-18T21:52:52Z</time>
      </trkpt>
      <trkpt lat="45.85462" lon="5.35343">
        <ele>387</ele>
        <time>2023-04-18T21:52:56Z</time>
      </trkpt>
      <trkpt lat="45.85441" lon="5.35357">
        <ele>385</ele>
        <time>2023-04-18T21:53:02Z</time>
      </trkpt>
      <trkpt lat="45.85425" lon="5.35379">
        <ele>384</ele>
        <time>2023-04-18T21:53:07Z</time>
      </trkpt>
      <trkpt lat="45.8542" lon="5.3541">
        <ele>383</ele>
        <time>2023-04-18T21:53:12Z</time>
      </trkpt>
      <trkpt lat="45.85414" lon="5.35427">
        <ele>383</ele>
        <time>2023-04-18T21:53:15Z</time>
      </trkpt>
      <trkpt lat="45.85423" lon="5.35446">
        <ele>383</ele>
        <time>2023-04-18T21:53:19Z</time>
      </trkpt>
      <trkpt lat="45.85447" lon="5.35547">
        <ele>383</ele>
        <time>2023-04-18T21:53:36Z</time>
      </trkpt>
      <trkpt lat="45.85466" lon="5.35654">
        <ele>384</ele>
        <time>2023-04-18T21:53:54Z</time>
      </trkpt>
      <trkpt lat="45.85464" lon="5.357">
        <ele>383</ele>
        <time>2023-04-18T21:54:02Z</time>
      </trkpt>
      <trkpt lat="45.85455" lon="5.35722">
        <ele>382</ele>
        <time>2023-04-18T21:54:06Z</time>
      </trkpt>
      <trkpt lat="45.85438" lon="5.35732">
        <ele>382</ele>
        <time>2023-04-18T21:54:10Z</time>
      </trkpt>
      <trkpt lat="45.854" lon="5.35783">
        <ele>381</ele>
        <time>2023-04-18T21:54:22Z</time>
      </trkpt>
      <trkpt lat="45.85384" lon="5.35801">
        <ele>380</ele>
        <time>2023-04-18T21:54:27Z</time>
      </trkpt>
      <trkpt lat="45.85322" lon="5.35843">
        <ele>377</ele>
        <time>2023-04-18T21:54:43Z</time>
      </trkpt>
      <trkpt lat="45.85183" lon="5.35843">
        <ele>375</ele>
        <time>2023-04-18T21:55:15Z</time>
      </trkpt>
      <trkpt lat="45.85174" lon="5.35849">
        <ele>376</ele>
        <time>2023-04-18T21:55:18Z</time>
      </trkpt>
      <trkpt lat="45.85164" lon="5.35861">
        <ele>376</ele>
        <time>2023-04-18T21:55:21Z</time>
      </trkpt>
      <trkpt lat="45.85153" lon="5.35882">
        <ele>376</ele>
        <time>2023-04-18T21:55:25Z</time>
      </trkpt>
      <trkpt lat="45.85115" lon="5.35927">
        <ele>376</ele>
        <time>2023-04-18T21:55:37Z</time>
      </trkpt>
      <trkpt lat="45.851" lon="5.35934">
        <ele>376</ele>
        <time>2023-04-18T21:55:40Z</time>
      </trkpt>
      <trkpt lat="45.85088" lon="5.35935">
        <ele>376</ele>
        <time>2023-04-18T21:55:43Z</time>
      </trkpt>
      <trkpt lat="45.85073" lon="5.35942">
        <ele>375</ele>
        <time>2023-04-18T21:55:47Z</time>
      </trkpt>
      <trkpt lat="45.85073" lon="5.35965">
        <ele>377</ele>
        <time>2023-04-18T21:55:51Z</time>
      </trkpt>
      <trkpt lat="45.85055" lon="5.36021">
        <ele>378</ele>
        <time>2023-04-18T21:56:01Z</time>
      </trkpt>
      <trkpt lat="45.85048" lon="5.36059">
        <ele>380</ele>
        <time>2023-04-18T21:56:07Z</time>
      </trkpt>
      <trkpt lat="45.85024" lon="5.36077">
        <ele>379</ele>
        <time>2023-04-18T21:56:13Z</time>
      </trkpt>
      <trkpt lat="45.85011" lon="5.36082">
        <ele>378</ele>
        <time>2023-04-18T21:56:16Z</time>
      </trkpt>
      <trkpt lat="45.84998" lon="5.36085">
        <ele>377</ele>
        <time>2023-04-18T21:56:20Z</time>
      </trkpt>
      <trkpt lat="45.84979" lon="5.36077">
        <ele>375</ele>
        <time>2023-04-18T21:56:24Z</time>
      </trkpt>
      <trkpt lat="45.84968" lon="5.36078">
        <ele>374</ele>
        <time>2023-04-18T21:56:27Z</time>
      </trkpt>
      <trkpt lat="45.84949" lon="5.36087">
        <ele>374</ele>
        <time>2023-04-18T21:56:31Z</time>
      </trkpt>
      <trkpt lat="45.8487" lon="5.36169">
        <ele>371</ele>
        <time>2023-04-18T21:56:54Z</time>
      </trkpt>
      <trkpt lat="45.84818" lon="5.36204">
        <ele>367</ele>
        <time>2023-04-18T21:57:08Z</time>
      </trkpt>
      <trkpt lat="45.84782" lon="5.36238">
        <ele>366</ele>
        <time>2023-04-18T21:57:18Z</time>
      </trkpt>
      <trkpt lat="45.84737" lon="5.36269">
        <ele>364</ele>
        <time>2023-04-18T21:57:29Z</time>
      </trkpt>
      <trkpt lat="45.84713" lon="5.36266">
        <ele>361</ele>
        <time>2023-04-18T21:57:35Z</time>
      </trkpt>
      <trkpt lat="45.84666" lon="5.36248">
        <ele>355</ele>
        <time>2023-04-18T21:57:46Z</time>
      </trkpt>
      <trkpt lat="45.84641" lon="5.36234">
        <ele>350</ele>
        <time>2023-04-18T21:57:53Z</time>
      </trkpt>
      <trkpt lat="45.84627" lon="5.36234">
        <ele>348</ele>
        <time>2023-04-18T21:57:56Z</time>
      </trkpt>
      <trkpt lat="45.84627" lon="5.36268">
        <ele>350</ele>
        <time>2023-04-18T21:58:01Z</time>
      </trkpt>
      <trkpt lat="45.84619" lon="5.36292">
        <ele>350</ele>
        <time>2023-04-18T21:58:06Z</time>
      </trkpt>
      <trkpt lat="45.84613" lon="5.36332">
        <ele>352</ele>
        <time>2023-04-18T21:58:12Z</time>
      </trkpt>
      <trkpt lat="45.84615" lon="5.36348">
        <ele>353</ele>
        <time>2023-04-18T21:58:15Z</time>
      </trkpt>
      <trkpt lat="45.84638" lon="5.3639">
        <ele>358</ele>
        <time>2023-04-18T21:58:24Z</time>
      </trkpt>
      <trkpt lat="45.84662" lon="5.36449">
        <ele>364</ele>
        <time>2023-04-18T21:58:35Z</time>
      </trkpt>
      <trkpt lat="45.8467" lon="5.36459">
        <ele>365</ele>
        <time>2023-04-18T21:58:37Z</time>
      </trkpt>
      <trkpt lat="45.84694" lon="5.36477">
        <ele>368</ele>
        <time>2023-04-18T21:58:44Z</time>
      </trkpt>
      <trkpt lat="45.84698" lon="5.36492">
        <ele>368</ele>
        <time>2023-04-18T21:58:46Z</time>
      </trkpt>
      <trkpt lat="45.84717" lon="5.36524">
        <ele>371</ele>
        <time>2023-04-18T21:58:53Z</time>
      </trkpt>
      <trkpt lat="45.84719" lon="5.36539">
        <ele>371</ele>
        <time>2023-04-18T21:58:56Z</time>
      </trkpt>
      <trkpt lat="45.84715" lon="5.36583">
        <ele>371</ele>
        <time>2023-04-18T21:59:03Z</time>
      </trkpt>
      <trkpt lat="45.84715" lon="5.3661">
        <ele>372</ele>
        <time>2023-04-18T21:59:07Z</time>
      </trkpt>
      <trkpt lat="45.84755" lon="5.36776">
        <ele>374</ele>
        <time>2023-04-18T21:59:36Z</time>
      </trkpt>
      <trkpt lat="45.84761" lon="5.36783">
        <ele>374</ele>
        <time>2023-04-18T21:59:37Z</time>
      </trkpt>
      <trkpt lat="45.84782" lon="5.36794">
        <ele>375</ele>
        <time>2023-04-18T21:59:43Z</time>
      </trkpt>
      <trkpt lat="45.848" lon="5.36798">
        <ele>375</ele>
        <time>2023-04-18T21:59:47Z</time>
      </trkpt>
      <trkpt lat="45.84829" lon="5.36796">
        <ele>375</ele>
        <time>2023-04-18T21:59:54Z</time>
      </trkpt>
      <trkpt lat="45.84848" lon="5.36798">
        <ele>376</ele>
        <time>2023-04-18T21:59:58Z</time>
      </trkpt>
      <trkpt lat="45.84896" lon="5.36841">
        <ele>375</ele>
        <time>2023-04-18T22:00:11Z</time>
      </trkpt>
      <trkpt lat="45.84916" lon="5.36851">
        <ele>375</ele>
        <time>2023-04-18T22:00:16Z</time>
      </trkpt>
      <trkpt lat="45.84984" lon="5.36876">
        <ele>378</ele>
        <time>2023-04-18T22:00:33Z</time>
      </trkpt>
      <trkpt lat="45.85051" lon="5.36909">
        <ele>380</ele>
        <time>2023-04-18T22:00:49Z</time>
      </trkpt>
      <trkpt lat="45.85069" lon="5.3692">
        <ele>381</ele>
        <time>2023-04-18T22:00:54Z</time>
      </trkpt>
      <trkpt lat="45.85077" lon="5.36928">
        <ele>382</ele>
        <time>2023-04-18T22:00:56Z</time>
      </trkpt>
      <trkpt lat="45.85134" lon="5.37021">
        <ele>380</ele>
        <time>2023-04-18T22:01:16Z</time>
      </trkpt>
      <trkpt lat="45.85155" lon="5.37047">
        <ele>379</ele>
        <time>2023-04-18T22:01:23Z</time>
      </trkpt>
      <trkpt lat="45.85178" lon="5.37056">
        <ele>377</ele>
        <time>2023-04-18T22:01:28Z</time>
      </trkpt>
      <trkpt lat="45.8522" lon="5.3706">
        <ele>373</ele>
        <time>2023-04-18T22:01:38Z</time>
      </trkpt>
      <trkpt lat="45.85229" lon="5.37065">
        <ele>372</ele>
        <time>2023-04-18T22:01:40Z</time>
      </trkpt>
      <trkpt lat="45.85245" lon="5.37092">
        <ele>369</ele>
        <time>2023-04-18T22:01:46Z</time>
      </trkpt>
      <trkpt lat="45.85259" lon="5.37122">
        <ele>367</ele>
        <time>2023-04-18T22:01:52Z</time>
      </trkpt>
      <trkpt lat="45.85259" lon="5.37148">
        <ele>366</ele>
        <time>2023-04-18T22:01:56Z</time>
      </trkpt>
      <trkpt lat="45.85226" lon="5.37245">
        <ele>367</ele>
        <time>2023-04-18T22:02:14Z</time>
      </trkpt>
      <trkpt lat="45.8518" lon="5.37312">
        <ele>371</ele>
        <time>2023-04-18T22:02:29Z</time>
      </trkpt>
      <trkpt lat="45.85132" lon="5.37395">
        <ele>366</ele>
        <time>2023-04-18T22:02:47Z</time>
      </trkpt>
      <trkpt lat="45.85093" lon="5.3745">
        <ele>363</ele>
        <time>2023-04-18T22:02:59Z</time>
      </trkpt>
      <trkpt lat="45.85043" lon="5.37504">
        <ele>363</ele>
        <time>2023-04-18T22:03:14Z</time>
      </trkpt>
      <trkpt lat="45.84956" lon="5.37651">
        <ele>354</ele>
        <time>2023-04-18T22:03:45Z</time>
      </trkpt>
      <trkpt lat="45.84898" lon="5.37734">
        <ele>348</ele>
        <time>2023-04-18T22:04:05Z</time>
      </trkpt>
      <trkpt lat="45.84751" lon="5.3793">
        <ele>339</ele>
        <time>2023-04-18T22:04:51Z</time>
      </trkpt>
      <trkpt lat="45.84604" lon="5.38087">
        <ele>329</ele>
        <time>2023-04-18T22:05:34Z</time>
      </trkpt>
      <trkpt lat="45.84586" lon="5.38088">
        <ele>329</ele>
        <time>2023-04-18T22:05:38Z</time>
      </trkpt>
      <trkpt lat="45.84582" lon="5.38085">
        <ele>330</ele>
        <time>2023-04-18T22:05:39Z</time>
      </trkpt>
      <trkpt lat="45.84555" lon="5.38084">
        <ele>334</ele>
        <time>2023-04-18T22:05:46Z</time>
      </trkpt>
      <trkpt lat="45.84501" lon="5.38102">
        <ele>339</ele>
        <time>2023-04-18T22:05:59Z</time>
      </trkpt>
      <trkpt lat="45.84481" lon="5.38104">
        <ele>339</ele>
        <time>2023-04-18T22:06:03Z</time>
      </trkpt>
      <trkpt lat="45.84475" lon="5.38107">
        <ele>339</ele>
        <time>2023-04-18T22:06:05Z</time>
      </trkpt>
      <trkpt lat="45.84443" lon="5.38147">
        <ele>333</ele>
        <time>2023-04-18T22:06:15Z</time>
      </trkpt>
      <trkpt lat="45.84395" lon="5.38199">
        <ele>329</ele>
        <time>2023-04-18T22:06:29Z</time>
      </trkpt>
      <trkpt lat="45.84364" lon="5.38229">
        <ele>328</ele>
        <time>2023-04-18T22:06:38Z</time>
      </trkpt>
      <trkpt lat="45.84344" lon="5.3824">
        <ele>329</ele>
        <time>2023-04-18T22:06:43Z</time>
      </trkpt>
      <trkpt lat="45.84311" lon="5.38274">
        <ele>328</ele>
        <time>2023-04-18T22:06:52Z</time>
      </trkpt>
      <trkpt lat="45.84288" lon="5.38294">
        <ele>327</ele>
        <time>2023-04-18T22:06:58Z</time>
      </trkpt>
      <trkpt lat="45.84273" lon="5.38268">
        <ele>330</ele>
        <time>2023-04-18T22:07:04Z</time>
      </trkpt>
      <trkpt lat="45.84252" lon="5.38239">
        <ele>334</ele>
        <time>2023-04-18T22:07:11Z</time>
      </trkpt>
      <trkpt lat="45.84243" lon="5.38233">
        <ele>335</ele>
        <time>2023-04-18T22:07:13Z</time>
      </trkpt>
      <trkpt lat="45.84232" lon="5.38232">
        <ele>335</ele>
        <time>2023-04-18T22:07:16Z</time>
      </trkpt>
      <trkpt lat="45.84222" lon="5.38233">
        <ele>335</ele>
        <time>2023-04-18T22:07:18Z</time>
      </trkpt>
      <trkpt lat="45.84208" lon="5.38239">
        <ele>335</ele>
        <time>2023-04-18T22:07:21Z</time>
      </trkpt>
      <trkpt lat="45.84171" lon="5.38242">
        <ele>337</ele>
        <time>2023-04-18T22:07:30Z</time>
      </trkpt>
      <trkpt lat="45.84138" lon="5.38276">
        <ele>336</ele>
        <time>2023-04-18T22:07:39Z</time>
      </trkpt>
      <trkpt lat="45.84123" lon="5.38283">
        <ele>336</ele>
        <time>2023-04-18T22:07:43Z</time>
      </trkpt>
      <trkpt lat="45.84091" lon="5.38287">
        <ele>338</ele>
        <time>2023-04-18T22:07:51Z</time>
      </trkpt>
      <trkpt lat="45.84069" lon="5.38287">
        <ele>338</ele>
        <time>2023-04-18T22:07:56Z</time>
      </trkpt>
      <trkpt lat="45.84041" lon="5.38278">
        <ele>339</ele>
        <time>2023-04-18T22:08:02Z</time>
      </trkpt>
      <trkpt lat="45.8404" lon="5.38283">
        <ele>339</ele>
        <time>2023-04-18T22:08:03Z</time>
      </trkpt>
      <trkpt lat="45.84046" lon="5.38335">
        <ele>336</ele>
        <time>2023-04-18T22:08:12Z</time>
      </trkpt>
      <trkpt lat="45.84065" lon="5.3835">
        <ele>335</ele>
        <time>2023-04-18T22:08:17Z</time>
      </trkpt>
      <trkpt lat="45.84083" lon="5.38358">
        <ele>334</ele>
        <time>2023-04-18T22:08:21Z</time>
      </trkpt>
      <trkpt lat="45.84111" lon="5.38363">
        <ele>331</ele>
        <time>2023-04-18T22:08:28Z</time>
      </trkpt>
      <trkpt lat="45.8412" lon="5.38361">
        <ele>331</ele>
        <time>2023-04-18T22:08:30Z</time>
      </trkpt>
      <trkpt lat="45.84143" lon="5.38362">
        <ele>328</ele>
        <time>2023-04-18T22:08:35Z</time>
      </trkpt>
      <trkpt lat="45.84159" lon="5.38358">
        <ele>327</ele>
        <time>2023-04-18T22:08:39Z</time>
      </trkpt>
      <trkpt lat="45.84174" lon="5.38367">
        <ele>325</ele>
        <time>2023-04-18T22:08:43Z</time>
      </trkpt>
      <trkpt lat="45.84184" lon="5.38364">
        <ele>325</ele>
        <time>2023-04-18T22:08:45Z</time>
      </trkpt>
      <trkpt lat="45.84191" lon="5.38366">
        <ele>324</ele>
        <time>2023-04-18T22:08:47Z</time>
      </trkpt>
      <trkpt lat="45.84217" lon="5.38409">
        <ele>319</ele>
        <time>2023-04-18T22:08:56Z</time>
      </trkpt>
      <trkpt lat="45.84234" lon="5.38457">
        <ele>314</ele>
        <time>2023-04-18T22:09:05Z</time>
      </trkpt>
      <trkpt lat="45.8425" lon="5.38488">
        <ele>312</ele>
        <time>2023-04-18T22:09:11Z</time>
      </trkpt>
      <trkpt lat="45.84256" lon="5.38539">
        <ele>310</ele>
        <time>2023-04-18T22:09:20Z</time>
      </trkpt>
      <trkpt lat="45.84237" lon="5.38548">
        <ele>309</ele>
        <time>2023-04-18T22:09:24Z</time>
      </trkpt>
      <trkpt lat="45.84232" lon="5.3856">
        <ele>309</ele>
        <time>2023-04-18T22:09:27Z</time>
      </trkpt>
      <trkpt lat="45.84223" lon="5.38568">
        <ele>309</ele>
        <time>2023-04-18T22:09:29Z</time>
      </trkpt>
      <trkpt lat="45.84216" lon="5.38583">
        <ele>308</ele>
        <time>2023-04-18T22:09:32Z</time>
      </trkpt>
      <trkpt lat="45.84215" lon="5.38589">
        <ele>308</ele>
        <time>2023-04-18T22:09:33Z</time>
      </trkpt>
      <trkpt lat="45.84218" lon="5.38593">
        <ele>308</ele>
        <time>2023-04-18T22:09:34Z</time>
      </trkpt>
      <trkpt lat="45.84211" lon="5.38597">
        <ele>308</ele>
        <time>2023-04-18T22:09:36Z</time>
      </trkpt>
      <trkpt lat="45.84199" lon="5.38621">
        <ele>307</ele>
        <time>2023-04-18T22:09:41Z</time>
      </trkpt>
      <trkpt lat="45.842" lon="5.38623">
        <ele>306</ele>
        <time>2023-04-18T22:09:41Z</time>
      </trkpt>
      <trkpt lat="45.84181" lon="5.38647">
        <ele>305</ele>
        <time>2023-04-18T22:09:47Z</time>
      </trkpt>
      <trkpt lat="45.84183" lon="5.38686">
        <ele>304</ele>
        <time>2023-04-18T22:09:53Z</time>
      </trkpt>
      <trkpt lat="45.84164" lon="5.38738">
        <ele>300</ele>
        <time>2023-04-18T22:10:03Z</time>
      </trkpt>
      <trkpt lat="45.84162" lon="5.38761">
        <ele>298</ele>
        <time>2023-04-18T22:10:07Z</time>
      </trkpt>
      <trkpt lat="45.84157" lon="5.38782">
        <ele>295</ele>
        <time>2023-04-18T22:10:10Z</time>
      </trkpt>
      <trkpt lat="45.84146" lon="5.38791">
        <ele>292</ele>
        <time>2023-04-18T22:10:13Z</time>
      </trkpt>
      <trkpt lat="45.84131" lon="5.38799">
        <ele>290</ele>
        <time>2023-04-18T22:10:17Z</time>
      </trkpt>
      <trkpt lat="45.84114" lon="5.38802">
        <ele>287</ele>
        <time>2023-04-18T22:10:21Z</time>
      </trkpt>
      <trkpt lat="45.84113" lon="5.38805">
        <ele>287</ele>
        <time>2023-04-18T22:10:22Z</time>
      </trkpt>
      <trkpt lat="45.84122" lon="5.38821">
        <ele>285</ele>
        <time>2023-04-18T22:10:25Z</time>
      </trkpt>
      <trkpt lat="45.84139" lon="5.3884">
        <ele>284</ele>
        <time>2023-04-18T22:10:30Z</time>
      </trkpt>
      <trkpt lat="45.84198" lon="5.38889">
        <ele>280</ele>
        <time>2023-04-18T22:10:46Z</time>
      </trkpt>
      <trkpt lat="45.84197" lon="5.38904">
        <ele>277</ele>
        <time>2023-04-18T22:10:48Z</time>
      </trkpt>
      <trkpt lat="45.84222" lon="5.38912">
        <ele>278</ele>
        <time>2023-04-18T22:10:54Z</time>
      </trkpt>
      <trkpt lat="45.84269" lon="5.38959">
        <ele>276</ele>
        <time>2023-04-18T22:11:08Z</time>
      </trkpt>
      <trkpt lat="45.84254" lon="5.38994">
        <ele>269</ele>
        <time>2023-04-18T22:11:14Z</time>
      </trkpt>
      <trkpt lat="45.84226" lon="5.39091">
        <ele>265</ele>
        <time>2023-04-18T22:11:31Z</time>
      </trkpt>
      <trkpt lat="45.8421" lon="5.39118">
        <ele>264</ele>
        <time>2023-04-18T22:11:37Z</time>
      </trkpt>
      <trkpt lat="45.84215" lon="5.39164">
        <ele>265</ele>
        <time>2023-04-18T22:11:45Z</time>
      </trkpt>
      <trkpt lat="45.84242" lon="5.392">
        <ele>267</ele>
        <time>2023-04-18T22:11:53Z</time>
      </trkpt>
      <trkpt lat="45.84283" lon="5.39223">
        <ele>269</ele>
        <time>2023-04-18T22:12:04Z</time>
      </trkpt>
      <trkpt lat="45.8432" lon="5.39233">
        <ele>268</ele>
        <time>2023-04-18T22:12:12Z</time>
      </trkpt>
      <trkpt lat="45.8434" lon="5.39274">
        <ele>270</ele>
        <time>2023-04-18T22:12:21Z</time>
      </trkpt>
      <trkpt lat="45.84363" lon="5.39301">
        <ele>273</ele>
        <time>2023-04-18T22:12:27Z</time>
      </trkpt>
      <trkpt lat="45.84385" lon="5.39309">
        <ele>273</ele>
        <time>2023-04-18T22:12:33Z</time>
      </trkpt>
      <trkpt lat="45.84389" lon="5.39334">
        <ele>275</ele>
        <time>2023-04-18T22:12:37Z</time>
      </trkpt>
      <trkpt lat="45.84405" lon="5.39349">
        <ele>277</ele>
        <time>2023-04-18T22:12:41Z</time>
      </trkpt>
      <trkpt lat="45.84409" lon="5.39399">
        <ele>284</ele>
        <time>2023-04-18T22:12:50Z</time>
      </trkpt>
      <trkpt lat="45.84447" lon="5.39475">
        <ele>291</ele>
        <time>2023-04-18T22:13:05Z</time>
      </trkpt>
      <trkpt lat="45.845" lon="5.39481">
        <ele>295</ele>
        <time>2023-04-18T22:13:17Z</time>
      </trkpt>
      <trkpt lat="45.84526" lon="5.39453">
        <ele>292</ele>
        <time>2023-04-18T22:13:25Z</time>
      </trkpt>
      <trkpt lat="45.84571" lon="5.39447">
        <ele>293</ele>
        <time>2023-04-18T22:13:35Z</time>
      </trkpt>
      <trkpt lat="45.84605" lon="5.39435">
        <ele>292</ele>
        <time>2023-04-18T22:13:44Z</time>
      </trkpt>
      <trkpt lat="45.84663" lon="5.39433">
        <ele>294</ele>
        <time>2023-04-18T22:13:57Z</time>
      </trkpt>
      <trkpt lat="45.84712" lon="5.39444">
        <ele>293</ele>
        <time>2023-04-18T22:14:09Z</time>
      </trkpt>
      <trkpt lat="45.84749" lon="5.3947">
        <ele>297</ele>
        <time>2023-04-18T22:14:18Z</time>
      </trkpt>
      <trkpt lat="45.8476" lon="5.3949">
        <ele>300</ele>
        <time>2023-04-18T22:14:22Z</time>
      </trkpt>
      <trkpt lat="45.84819" lon="5.39518">
        <ele>299</ele>
        <time>2023-04-18T22:14:37Z</time>
      </trkpt>
      <trkpt lat="45.84805" lon="5.39545">
        <ele>303</ele>
        <time>2023-04-18T22:14:42Z</time>
      </trkpt>
      <trkpt lat="45.8476" lon="5.39568">
        <ele>306</ele>
        <time>2023-04-18T22:14:54Z</time>
      </trkpt>
      <trkpt lat="45.84765" lon="5.39599">
        <ele>308</ele>
        <time>2023-04-18T22:14:59Z</time>
      </trkpt>
      <trkpt lat="45.84767" lon="5.39591">
        <ele>307</ele>
        <time>2023-04-18T22:15:00Z</time>
      </trkpt>
      <trkpt lat="45.84789" lon="5.39594">
        <ele>307</ele>
        <time>2023-04-18T22:15:05Z</time>
      </trkpt>
      <trkpt lat="45.84827" lon="5.39621">
        <ele>308</ele>
        <time>2023-04-18T22:15:15Z</time>
      </trkpt>
      <trkpt lat="45.84844" lon="5.39628">
        <ele>307</ele>
        <time>2023-04-18T22:15:19Z</time>
      </trkpt>
      <trkpt lat="45.84861" lon="5.39643">
        <ele>307</ele>
        <time>2023-04-18T22:15:24Z</time>
      </trkpt>
      <trkpt lat="45.84898" lon="5.39661">
        <ele>306</ele>
        <time>2023-04-18T22:15:33Z</time>
      </trkpt>
      <trkpt lat="45.84909" lon="5.39673">
        <ele>306</ele>
        <time>2023-04-18T22:15:36Z</time>
      </trkpt>
      <trkpt lat="45.84917" lon="5.39694">
        <ele>303</ele>
        <time>2023-04-18T22:15:40Z</time>
      </trkpt>
      <trkpt lat="45.84915" lon="5.39723">
        <ele>300</ele>
        <time>2023-04-18T22:15:45Z</time>
      </trkpt>
      <trkpt lat="45.84918" lon="5.39783">
        <ele>290</ele>
        <time>2023-04-18T22:15:55Z</time>
      </trkpt>
      <trkpt lat="45.84913" lon="5.39807">
        <ele>287</ele>
        <time>2023-04-18T22:15:59Z</time>
      </trkpt>
      <trkpt lat="45.84908" lon="5.39874">
        <ele>273</ele>
        <time>2023-04-18T22:16:10Z</time>
      </trkpt>
      <trkpt lat="45.84903" lon="5.39889">
        <ele>271</ele>
        <time>2023-04-18T22:16:13Z</time>
      </trkpt>
      <trkpt lat="45.84884" lon="5.39926">
        <ele>271</ele>
        <time>2023-04-18T22:16:20Z</time>
      </trkpt>
      <trkpt lat="45.849" lon="5.39929">
        <ele>264</ele>
        <time>2023-04-18T22:16:24Z</time>
      </trkpt>
      <trkpt lat="45.84931" lon="5.39904">
        <ele>259</ele>
        <time>2023-04-18T22:16:32Z</time>
      </trkpt>
      <trkpt lat="45.84978" lon="5.39891">
        <ele>249</ele>
        <time>2023-04-18T22:16:43Z</time>
      </trkpt>
      <trkpt lat="45.84992" lon="5.39892">
        <ele>246</ele>
        <time>2023-04-18T22:16:47Z</time>
      </trkpt>
      <trkpt lat="45.85016" lon="5.39873">
        <ele>242</ele>
        <time>2023-04-18T22:16:53Z</time>
      </trkpt>
      <trkpt lat="45.85031" lon="5.39855">
        <ele>240</ele>
        <time>2023-04-18T22:16:57Z</time>
      </trkpt>
      <trkpt lat="45.85043" lon="5.39822">
        <ele>241</ele>
        <time>2023-04-18T22:17:04Z</time>
      </trkpt>
      <trkpt lat="45.85056" lon="5.39802">
        <ele>239</ele>
        <time>2023-04-18T22:17:08Z</time>
      </trkpt>
      <trkpt lat="45.85065" lon="5.39776">
        <ele>239</ele>
        <time>2023-04-18T22:17:13Z</time>
      </trkpt>
      <trkpt lat="45.85066" lon="5.39756">
        <ele>240</ele>
        <time>2023-04-18T22:17:16Z</time>
      </trkpt>
      <trkpt lat="45.85055" lon="5.39721">
        <ele>248</ele>
        <time>2023-04-18T22:17:22Z</time>
      </trkpt>
      <trkpt lat="45.85056" lon="5.39701">
        <ele>249</ele>
        <time>2023-04-18T22:17:25Z</time>
      </trkpt>
      <trkpt lat="45.85072" lon="5.39711">
        <ele>240</ele>
        <time>2023-04-18T22:17:30Z</time>
      </trkpt>
      <trkpt lat="45.85133" lon="5.39699">
        <ele>225</ele>
        <time>2023-04-18T22:17:44Z</time>
      </trkpt>
      <trkpt lat="45.85178" lon="5.39711">
        <ele>218</ele>
        <time>2023-04-18T22:17:55Z</time>
      </trkpt>
      <trkpt lat="45.85224" lon="5.39772">
        <ele>215</ele>
        <time>2023-04-18T22:18:09Z</time>
      </trkpt>
      <trkpt lat="45.85245" lon="5.39807">
        <ele>215</ele>
        <time>2023-04-18T22:18:17Z</time>
      </trkpt>
      <trkpt lat="45.85264" lon="5.39831">
        <ele>216</ele>
        <time>2023-04-18T22:18:23Z</time>
      </trkpt>
      <trkpt lat="45.85314" lon="5.39887">
        <ele>218</ele>
        <time>2023-04-18T22:18:37Z</time>
      </trkpt>
      <trkpt lat="45.85346" lon="5.39927">
        <ele>222</ele>
        <time>2023-04-18T22:18:47Z</time>
      </trkpt>
      <trkpt lat="45.85374" lon="5.39952">
        <ele>224</ele>
        <time>2023-04-18T22:18:55Z</time>
      </trkpt>
      <trkpt lat="45.85442" lon="5.39998">
        <ele>219</ele>
        <time>2023-04-18T22:19:13Z</time>
      </trkpt>
      <trkpt lat="45.85491" lon="5.40011">
        <ele>211</ele>
        <time>2023-04-18T22:19:24Z</time>
      </trkpt>
      <trkpt lat="45.85509" lon="5.40032">
        <ele>208</ele>
        <time>2023-04-18T22:19:30Z</time>
      </trkpt>
      <trkpt lat="45.85452" lon="5.40275">
        <ele>199</ele>
        <time>2023-04-18T22:20:11Z</time>
      </trkpt>
      <trkpt lat="45.85447" lon="5.40304">
        <ele>199</ele>
        <time>2023-04-18T22:20:16Z</time>
      </trkpt>
      <trkpt lat="45.85449" lon="5.4032">
        <ele>199</ele>
        <time>2023-04-18T22:20:19Z</time>
      </trkpt>
      <trkpt lat="45.85461" lon="5.40348">
        <ele>199</ele>
        <time>2023-04-18T22:20:24Z</time>
      </trkpt>
      <trkpt lat="45.85467" lon="5.40377">
        <ele>199</ele>
        <time>2023-04-18T22:20:29Z</time>
      </trkpt>
      <trkpt lat="45.85357" lon="5.40463">
        <ele>201</ele>
        <time>2023-04-18T22:20:58Z</time>
      </trkpt>
      <trkpt lat="45.85326" lon="5.4051">
        <ele>200</ele>
        <time>2023-04-18T22:21:09Z</time>
      </trkpt>
      <trkpt lat="45.85306" lon="5.40514">
        <ele>202</ele>
        <time>2023-04-18T22:21:14Z</time>
      </trkpt>
      <trkpt lat="45.85285" lon="5.40525">
        <ele>203</ele>
        <time>2023-04-18T22:21:19Z</time>
      </trkpt>
      <trkpt lat="45.85303" lon="5.4055">
        <ele>201</ele>
        <time>2023-04-18T22:21:25Z</time>
      </trkpt>
      <trkpt lat="45.85314" lon="5.40574">
        <ele>200</ele>
        <time>2023-04-18T22:21:29Z</time>
      </trkpt>
      <trkpt lat="45.85356" lon="5.40673">
        <ele>200</ele>
        <time>2023-04-18T22:21:48Z</time>
      </trkpt>
      <trkpt lat="45.85355" lon="5.40684">
        <ele>200</ele>
        <time>2023-04-18T22:21:50Z</time>
      </trkpt>
      <trkpt lat="45.85122" lon="5.4093">
        <ele>204</ele>
        <time>2023-04-18T22:22:58Z</time>
      </trkpt>
      <trkpt lat="45.85114" lon="5.40952">
        <ele>204</ele>
        <time>2023-04-18T22:23:02Z</time>
      </trkpt>
      <trkpt lat="45.85088" lon="5.40979">
        <ele>203</ele>
        <time>2023-04-18T22:23:09Z</time>
      </trkpt>
      <trkpt lat="45.85067" lon="5.40993">
        <ele>202</ele>
        <time>2023-04-18T22:23:15Z</time>
      </trkpt>
      <trkpt lat="45.85043" lon="5.41014">
        <ele>201</ele>
        <time>2023-04-18T22:23:21Z</time>
      </trkpt>
      <trkpt lat="45.8501" lon="5.41062">
        <ele>202</ele>
        <time>2023-04-18T22:23:32Z</time>
      </trkpt>
      <trkpt lat="45.8493" lon="5.41202">
        <ele>200</ele>
        <time>2023-04-18T22:24:02Z</time>
      </trkpt>
      <trkpt lat="45.84943" lon="5.4122">
        <ele>200</ele>
        <time>2023-04-18T22:24:06Z</time>
      </trkpt>
      <trkpt lat="45.84946" lon="5.4123">
        <ele>200</ele>
        <time>2023-04-18T22:24:08Z</time>
      </trkpt>
      <trkpt lat="45.84957" lon="5.41232">
        <ele>200</ele>
        <time>2023-04-18T22:24:10Z</time>
      </trkpt>
      <trkpt lat="45.84962" lon="5.41237">
        <ele>201</ele>
        <time>2023-04-18T22:24:12Z</time>
      </trkpt>
      <trkpt lat="45.84964" lon="5.41244">
        <ele>201</ele>
        <time>2023-04-18T22:24:13Z</time>
      </trkpt>
      <trkpt lat="45.84901" lon="5.41315">
        <ele>200</ele>
        <time>2023-04-18T22:24:31Z</time>
      </trkpt>
      <trkpt lat="45.84869" lon="5.41336">
        <ele>199</ele>
        <time>2023-04-18T22:24:40Z</time>
      </trkpt>
      <trkpt lat="45.8485" lon="5.41389">
        <ele>200</ele>
        <time>2023-04-18T22:24:49Z</time>
      </trkpt>
      <trkpt lat="45.84814" lon="5.41439">
        <ele>201</ele>
        <time>2023-04-18T22:25:01Z</time>
      </trkpt>
      <trkpt lat="45.84796" lon="5.41482">
        <ele>201</ele>
        <time>2023-04-18T22:25:09Z</time>
      </trkpt>
      <trkpt lat="45.84775" lon="5.41491">
        <ele>201</ele>
        <time>2023-04-18T22:25:14Z</time>
      </trkpt>
      <trkpt lat="45.84722" lon="5.41538">
        <ele>200</ele>
        <time>2023-04-18T22:25:29Z</time>
      </trkpt>
      <trkpt lat="45.84704" lon="5.41545">
        <ele>200</ele>
        <time>2023-04-18T22:25:33Z</time>
      </trkpt>
      <trkpt lat="45.84681" lon="5.41559">
        <ele>200</ele>
        <time>2023-04-18T22:25:39Z</time>
      </trkpt>
      <trkpt lat="45.84574" lon="5.41646">
        <ele>200</ele>
        <time>2023-04-18T22:26:08Z</time>
      </trkpt>
      <trkpt lat="45.8456" lon="5.41661">
        <ele>201</ele>
        <time>2023-04-18T22:26:12Z</time>
      </trkpt>
      <trkpt lat="45.84553" lon="5.41679">
        <ele>200</ele>
        <time>2023-04-18T22:26:15Z</time>
      </trkpt>
      <trkpt lat="45.8457" lon="5.41834">
        <ele>200</ele>
        <time>2023-04-18T22:26:41Z</time>
      </trkpt>
      <trkpt lat="45.84573" lon="5.41904">
        <ele>205</ele>
        <time>2023-04-18T22:26:52Z</time>
      </trkpt>
      <trkpt lat="45.8457" lon="5.41917">
        <ele>206</ele>
        <time>2023-04-18T22:26:54Z</time>
      </trkpt>
      <trkpt lat="45.84565" lon="5.41913">
        <ele>206</ele>
        <time>2023-04-18T22:26:56Z</time>
      </trkpt>
      <trkpt lat="45.84523" lon="5.41905">
        <ele>205</ele>
        <time>2023-04-18T22:27:06Z</time>
      </trkpt>
      <trkpt lat="45.84347" lon="5.41909">
        <ele>204</ele>
        <time>2023-04-18T22:27:47Z</time>
      </trkpt>
      <trkpt lat="45.84229" lon="5.41899">
        <ele>202</ele>
        <time>2023-04-18T22:28:14Z</time>
      </trkpt>
      <trkpt lat="45.84221" lon="5.41914">
        <ele>203</ele>
        <time>2023-04-18T22:28:17Z</time>
      </trkpt>
      <trkpt lat="45.84217" lon="5.42096">
        <ele>208</ele>
        <time>2023-04-18T22:28:47Z</time>
      </trkpt>
      <trkpt lat="45.84225" lon="5.42108">
        <ele>209</ele>
        <time>2023-04-18T22:28:50Z</time>
      </trkpt>
      <trkpt lat="45.84258" lon="5.4214">
        <ele>210</ele>
        <time>2023-04-18T22:28:59Z</time>
      </trkpt>
      <trkpt lat="45.84262" lon="5.42158">
        <ele>210</ele>
        <time>2023-04-18T22:29:02Z</time>
      </trkpt>
      <trkpt lat="45.84288" lon="5.42178">
        <ele>211</ele>
        <time>2023-04-18T22:29:09Z</time>
      </trkpt>
      <trkpt lat="45.84303" lon="5.42182">
        <ele>211</ele>
        <time>2023-04-18T22:29:13Z</time>
      </trkpt>
      <trkpt lat="45.84306" lon="5.42186">
        <ele>211</ele>
        <time>2023-04-18T22:29:14Z</time>
      </trkpt>
      <trkpt lat="45.84302" lon="5.42188">
        <ele>211</ele>
        <time>2023-04-18T22:29:15Z</time>
      </trkpt>
      <trkpt lat="45.8431" lon="5.42189">
        <ele>212</ele>
        <time>2023-04-18T22:29:16Z</time>
      </trkpt>
      <trkpt lat="45.84316" lon="5.42218">
        <ele>214</ele>
        <time>2023-04-18T22:29:21Z</time>
      </trkpt>
      <trkpt lat="45.84343" lon="5.42251">
        <ele>218</ele>
        <time>2023-04-18T22:29:30Z</time>
      </trkpt>
      <trkpt lat="45.84357" lon="5.42249">
        <ele>220</ele>
        <time>2023-04-18T22:29:33Z</time>
      </trkpt>
      <trkpt lat="45.84407" lon="5.4223">
        <ele>223</ele>
        <time>2023-04-18T22:29:45Z</time>
      </trkpt>
      <trkpt lat="45.84466" lon="5.42213">
        <ele>225</ele>
        <time>2023-04-18T22:29:59Z</time>
      </trkpt>
      <trkpt lat="45.845" lon="5.42207">
        <ele>227</ele>
        <time>2023-04-18T22:30:07Z</time>
      </trkpt>
      <trkpt lat="45.84541" lon="5.42212">
        <ele>229</ele>
        <time>2023-04-18T22:30:17Z</time>
      </trkpt>
      <trkpt lat="45.84556" lon="5.42226">
        <ele>230</ele>
        <time>2023-04-18T22:30:21Z</time>
      </trkpt>
      <trkpt lat="45.84581" lon="5.42241">
        <ele>232</ele>
        <time>2023-04-18T22:30:27Z</time>
      </trkpt>
      <trkpt lat="45.84623" lon="5.4226">
        <ele>233</ele>
        <time>2023-04-18T22:30:37Z</time>
      </trkpt>
      <trkpt lat="45.84674" lon="5.4229">
        <ele>235</ele>
        <time>2023-04-18T22:30:50Z</time>
      </trkpt>
      <trkpt lat="45.84694" lon="5.42296">
        <ele>237</ele>
        <time>2023-04-18T22:30:55Z</time>
      </trkpt>
      <trkpt lat="45.84711" lon="5.42307">
        <ele>238</ele>
        <time>2023-04-18T22:30:59Z</time>
      </trkpt>
      <trkpt lat="45.84729" lon="5.42313">
        <ele>240</ele>
        <time>2023-04-18T22:31:04Z</time>
      </trkpt>
      <trkpt lat="45.84754" lon="5.42313">
        <ele>241</ele>
        <time>2023-04-18T22:31:10Z</time>
      </trkpt>
      <trkpt lat="45.84797" lon="5.423">
        <ele>244</ele>
        <time>2023-04-18T22:31:20Z</time>
      </trkpt>
      <trkpt lat="45.84958" lon="5.42312">
        <ele>252</ele>
        <time>2023-04-18T22:31:57Z</time>
      </trkpt>
      <trkpt lat="45.84974" lon="5.42315">
        <ele>253</ele>
        <time>2023-04-18T22:32:01Z</time>
      </trkpt>
      <trkpt lat="45.84977" lon="5.42336">
        <ele>253</ele>
        <time>2023-04-18T22:32:05Z</time>
      </trkpt>
      <trkpt lat="45.84972" lon="5.4238">
        <ele>252</ele>
        <time>2023-04-18T22:32:12Z</time>
      </trkpt>
      <trkpt lat="45.84976" lon="5.42443">
        <ele>250</ele>
        <time>2023-04-18T22:32:22Z</time>
      </trkpt>
      <trkpt lat="45.84971" lon="5.42469">
        <ele>249</ele>
        <time>2023-04-18T22:32:27Z</time>
      </trkpt>
      <trkpt lat="45.84952" lon="5.42509">
        <ele>248</ele>
        <time>2023-04-18T22:32:35Z</time>
      </trkpt>
      <trkpt lat="45.84924" lon="5.4262">
        <ele>252</ele>
        <time>2023-04-18T22:32:54Z</time>
      </trkpt>
      <trkpt lat="45.84892" lon="5.42659">
        <ele>253</ele>
        <time>2023-04-18T22:33:04Z</time>
      </trkpt>
      <trkpt lat="45.84883" lon="5.42712">
        <ele>255</ele>
        <time>2023-04-18T22:33:12Z</time>
      </trkpt>
      <trkpt lat="45.84901" lon="5.42875">
        <ele>259</ele>
        <time>2023-04-18T22:33:39Z</time>
      </trkpt>
      <trkpt lat="45.84887" lon="5.42974">
        <ele>259</ele>
        <time>2023-04-18T22:33:56Z</time>
      </trkpt>
      <trkpt lat="45.84927" lon="5.42982">
        <ele>261</ele>
        <time>2023-04-18T22:34:05Z</time>
      </trkpt>
      <trkpt lat="45.85002" lon="5.42979">
        <ele>264</ele>
        <time>2023-04-18T22:34:23Z</time>
      </trkpt>
      <trkpt lat="45.85051" lon="5.43022">
        <ele>267</ele>
        <time>2023-04-18T22:34:36Z</time>
      </trkpt>
      <trkpt lat="45.85114" lon="5.42974">
        <ele>269</ele>
        <time>2023-04-18T22:34:53Z</time>
      </trkpt>
      <trkpt lat="45.8518" lon="5.42943">
        <ele>268</ele>
        <time>2023-04-18T22:35:09Z</time>
      </trkpt>
      <trkpt lat="45.85257" lon="5.43021">
        <ele>269</ele>
        <time>2023-04-18T22:35:31Z</time>
      </trkpt>
      <trkpt lat="45.85339" lon="5.43093">
        <ele>272</ele>
        <time>2023-04-18T22:35:53Z</time>
      </trkpt>
      <trkpt lat="45.85348" lon="5.43135">
        <ele>273</ele>
        <time>2023-04-18T22:36:01Z</time>
      </trkpt>
      <trkpt lat="45.85345" lon="5.43181">
        <ele>273</ele>
        <time>2023-04-18T22:36:08Z</time>
      </trkpt>
      <trkpt lat="45.8538" lon="5.43204">
        <ele>273</ele>
        <time>2023-04-18T22:36:17Z</time>
      </trkpt>
      <trkpt lat="45.85411" lon="5.43217">
        <ele>274</ele>
        <time>2023-04-18T22:36:25Z</time>
      </trkpt>
      <trkpt lat="45.8547" lon="5.43195">
        <ele>279</ele>
        <time>2023-04-18T22:36:39Z</time>
      </trkpt>
      <trkpt lat="45.85482" lon="5.43355">
        <ele>277</ele>
        <time>2023-04-18T22:37:05Z</time>
      </trkpt>
      <trkpt lat="45.85567" lon="5.43348">
        <ele>283</ele>
        <time>2023-04-18T22:37:25Z</time>
      </trkpt>
      <trkpt lat="45.8558" lon="5.43345">
        <ele>284</ele>
        <time>2023-04-18T22:37:28Z</time>
      </trkpt>
      <trkpt lat="45.85596" lon="5.43331">
        <ele>285</ele>
        <time>2023-04-18T22:37:32Z</time>
      </trkpt>
      <trkpt lat="45.85606" lon="5.43318">
        <ele>286</ele>
        <time>2023-04-18T22:37:35Z</time>
      </trkpt>
      <trkpt lat="45.85621" lon="5.43269">
        <ele>288</ele>
        <time>2023-04-18T22:37:44Z</time>
      </trkpt>
      <trkpt lat="45.85626" lon="5.43242">
        <ele>288</ele>
        <time>2023-04-18T22:37:49Z</time>
      </trkpt>
      <trkpt lat="45.85635" lon="5.43155">
        <ele>290</ele>
        <time>2023-04-18T22:38:03Z</time>
      </trkpt>
      <trkpt lat="45.85651" lon="5.43145">
        <ele>291</ele>
        <time>2023-04-18T22:38:07Z</time>
      </trkpt>
      <trkpt lat="45.85687" lon="5.43113">
        <ele>293</ele>
        <time>2023-04-18T22:38:17Z</time>
      </trkpt>
      <trkpt lat="45.85724" lon="5.4305">
        <ele>295</ele>
        <time>2023-04-18T22:38:30Z</time>
      </trkpt>
      <trkpt lat="45.85738" lon="5.42999">
        <ele>296</ele>
        <time>2023-04-18T22:38:39Z</time>
      </trkpt>
      <trkpt lat="45.85742" lon="5.42959">
        <ele>298</ele>
        <time>2023-04-18T22:38:46Z</time>
      </trkpt>
      <trkpt lat="45.85848" lon="5.42746">
        <ele>309</ele>
        <time>2023-04-18T22:39:28Z</time>
      </trkpt>
      <trkpt lat="45.8589" lon="5.42562">
        <ele>312</ele>
        <time>2023-04-18T22:40:00Z</time>
      </trkpt>
      <trkpt lat="45.85902" lon="5.42498">
        <ele>312</ele>
        <time>2023-04-18T22:40:11Z</time>
      </trkpt>
      <trkpt lat="45.85916" lon="5.42465">
        <ele>314</ele>
        <time>2023-04-18T22:40:17Z</time>
      </trkpt>
      <trkpt lat="45.85933" lon="5.42439">
        <ele>315</ele>
        <time>2023-04-18T22:40:23Z</time>
      </trkpt>
      <trkpt lat="45.86" lon="5.42351">
        <ele>321</ele>
        <time>2023-04-18T22:40:44Z</time>
      </trkpt>
      <trkpt lat="45.86048" lon="5.42275">
        <ele>326</ele>
        <time>2023-04-18T22:41:01Z</time>
      </trkpt>
      <trkpt lat="45.86063" lon="5.42267">
        <ele>327</ele>
        <time>2023-04-18T22:41:04Z</time>
      </trkpt>
      <trkpt lat="45.86086" lon="5.42262">
        <ele>329</ele>
        <time>2023-04-18T22:41:10Z</time>
      </trkpt>
      <trkpt lat="45.86136" lon="5.42223">
        <ele>333</ele>
        <time>2023-04-18T22:41:23Z</time>
      </trkpt>
      <trkpt lat="45.86148" lon="5.4222">
        <ele>334</ele>
        <time>2023-04-18T22:41:26Z</time>
      </trkpt>
      <trkpt lat="45.86157" lon="5.42222">
        <ele>335</ele>
        <time>2023-04-18T22:41:28Z</time>
      </trkpt>
      <trkpt lat="45.86175" lon="5.42208">
        <ele>337</ele>
        <time>2023-04-18T22:41:33Z</time>
      </trkpt>
      <trkpt lat="45.86246" lon="5.42079">
        <ele>338</ele>
        <time>2023-04-18T22:42:00Z</time>
      </trkpt>
      <trkpt lat="45.86305" lon="5.41987">
        <ele>343</ele>
        <time>2023-04-18T22:42:20Z</time>
      </trkpt>
      <trkpt lat="45.86323" lon="5.41951">
        <ele>343</ele>
        <time>2023-04-18T22:42:27Z</time>
      </trkpt>
      <trkpt lat="45.86389" lon="5.41884">
        <ele>347</ele>
        <time>2023-04-18T22:42:46Z</time>
      </trkpt>
      <trkpt lat="45.86404" lon="5.41836">
        <ele>346</ele>
        <time>2023-04-18T22:42:55Z</time>
      </trkpt>
      <trkpt lat="45.86413" lon="5.41825">
        <ele>346</ele>
        <time>2023-04-18T22:42:57Z</time>
      </trkpt>
      <trkpt lat="45.86429" lon="5.41817">
        <ele>347</ele>
        <time>2023-04-18T22:43:01Z</time>
      </trkpt>
      <trkpt lat="45.86453" lon="5.41815">
        <ele>348</ele>
        <time>2023-04-18T22:43:07Z</time>
      </trkpt>
      <trkpt lat="45.86498" lon="5.41827">
        <ele>351</ele>
        <time>2023-04-18T22:43:18Z</time>
      </trkpt>
      <trkpt lat="45.86521" lon="5.41812">
        <ele>352</ele>
        <time>2023-04-18T22:43:24Z</time>
      </trkpt>
      <trkpt lat="45.86533" lon="5.41824">
        <ele>353</ele>
        <time>2023-04-18T22:43:27Z</time>
      </trkpt>
      <trkpt lat="45.86547" lon="5.41833">
        <ele>355</ele>
        <time>2023-04-18T22:43:31Z</time>
      </trkpt>
      <trkpt lat="45.86614" lon="5.41802">
        <ele>360</ele>
        <time>2023-04-18T22:43:47Z</time>
      </trkpt>
      <trkpt lat="45.86713" lon="5.41718">
        <ele>359</ele>
        <time>2023-04-18T22:44:14Z</time>
      </trkpt>
      <trkpt lat="45.86769" lon="5.4158">
        <ele>353</ele>
        <time>2023-04-18T22:44:40Z</time>
      </trkpt>
      <trkpt lat="45.86784" lon="5.4155">
        <ele>355</ele>
        <time>2023-04-18T22:44:46Z</time>
      </trkpt>
      <trkpt lat="45.86806" lon="5.41528">
        <ele>357</ele>
        <time>2023-04-18T22:44:52Z</time>
      </trkpt>
      <trkpt lat="45.86813" lon="5.41515">
        <ele>357</ele>
        <time>2023-04-18T22:44:55Z</time>
      </trkpt>
      <trkpt lat="45.8681" lon="5.41503">
        <ele>357</ele>
        <time>2023-04-18T22:44:57Z</time>
      </trkpt>
      <trkpt lat="45.86779" lon="5.41476">
        <ele>357</ele>
        <time>2023-04-18T22:45:05Z</time>
      </trkpt>
      <trkpt lat="45.86761" lon="5.41456">
        <ele>357</ele>
        <time>2023-04-18T22:45:11Z</time>
      </trkpt>
      <trkpt lat="45.86756" lon="5.41432">
        <ele>357</ele>
        <time>2023-04-18T22:45:15Z</time>
      </trkpt>
      <trkpt lat="45.86764" lon="5.41373">
        <ele>359</ele>
        <time>2023-04-18T22:45:24Z</time>
      </trkpt>
      <trkpt lat="45.86773" lon="5.41329">
        <ele>361</ele>
        <time>2023-04-18T22:45:32Z</time>
      </trkpt>
      <trkpt lat="45.86787" lon="5.41286">
        <ele>362</ele>
        <time>2023-04-18T22:45:40Z</time>
      </trkpt>
      <trkpt lat="45.86917" lon="5.40956">
        <ele>372</ele>
        <time>2023-04-18T22:46:41Z</time>
      </trkpt>
      <trkpt lat="45.86929" lon="5.40931">
        <ele>373</ele>
        <time>2023-04-18T22:46:46Z</time>
      </trkpt>
      <trkpt lat="45.86943" lon="5.40914">
        <ele>375</ele>
        <time>2023-04-18T22:46:51Z</time>
      </trkpt>
      <trkpt lat="45.86946" lon="5.40879">
        <ele>374</ele>
        <time>2023-04-18T22:46:56Z</time>
      </trkpt>
      <trkpt lat="45.8696" lon="5.40841">
        <ele>374</ele>
        <time>2023-04-18T22:47:03Z</time>
      </trkpt>
      <trkpt lat="45.87042" lon="5.4067">
        <ele>380</ele>
        <time>2023-04-18T22:47:37Z</time>
      </trkpt>
      <trkpt lat="45.87071" lon="5.4058">
        <ele>380</ele>
        <time>2023-04-18T22:47:53Z</time>
      </trkpt>
      <trkpt lat="45.87076" lon="5.40555">
        <ele>380</ele>
        <time>2023-04-18T22:47:57Z</time>
      </trkpt>
      <trkpt lat="45.87077" lon="5.40525">
        <ele>380</ele>
        <time>2023-04-18T22:48:02Z</time>
      </trkpt>
      <trkpt lat="45.87088" lon="5.40476">
        <ele>381</ele>
        <time>2023-04-18T22:48:11Z</time>
      </trkpt>
      <trkpt lat="45.87099" lon="5.40352">
        <ele>382</ele>
        <time>2023-04-18T22:48:31Z</time>
      </trkpt>
      <trkpt lat="45.87082" lon="5.40241">
        <ele>379</ele>
        <time>2023-04-18T22:48:49Z</time>
      </trkpt>
      <trkpt lat="45.87092" lon="5.40145">
        <ele>377</ele>
        <time>2023-04-18T22:49:05Z</time>
      </trkpt>
      <trkpt lat="45.87086" lon="5.40049">
        <ele>375</ele>
        <time>2023-04-18T22:49:21Z</time>
      </trkpt>
      <trkpt lat="45.87092" lon="5.39954">
        <ele>376</ele>
        <time>2023-04-18T22:49:36Z</time>
      </trkpt>
      <trkpt lat="45.87108" lon="5.39921">
        <ele>377</ele>
        <time>2023-04-18T22:49:43Z</time>
      </trkpt>
      <trkpt lat="45.87135" lon="5.39848">
        <ele>378</ele>
        <time>2023-04-18T22:49:56Z</time>
      </trkpt>
      <trkpt lat="45.8714" lon="5.39842">
        <ele>378</ele>
        <time>2023-04-18T22:49:58Z</time>
      </trkpt>
      <trkpt lat="45.8722" lon="5.39788">
        <ele>377</ele>
        <time>2023-04-18T22:50:19Z</time>
      </trkpt>
      <trkpt lat="45.87291" lon="5.39711">
        <ele>376</ele>
        <time>2023-04-18T22:50:39Z</time>
      </trkpt>
      <trkpt lat="45.87347" lon="5.39622">
        <ele>374</ele>
        <time>2023-04-18T22:50:59Z</time>
      </trkpt>
      <trkpt lat="45.87387" lon="5.39566">
        <ele>376</ele>
        <time>2023-04-18T22:51:12Z</time>
      </trkpt>
      <trkpt lat="45.87392" lon="5.3956">
        <ele>375</ele>
        <time>2023-04-18T22:51:13Z</time>
      </trkpt>
      <trkpt lat="45.87427" lon="5.39534">
        <ele>375</ele>
        <time>2023-04-18T22:51:23Z</time>
      </trkpt>
      <trkpt lat="45.87461" lon="5.39468">
        <ele>376</ele>
        <time>2023-04-18T22:51:36Z</time>
      </trkpt>
      <trkpt lat="45.87493" lon="5.39428">
        <ele>375</ele>
        <time>2023-04-18T22:51:46Z</time>
      </trkpt>
      <trkpt lat="45.87647" lon="5.39103">
        <ele>366</ele>
        <time>2023-04-18T22:52:50Z</time>
      </trkpt>
      <trkpt lat="45.87686" lon="5.39059">
        <ele>363</ele>
        <time>2023-04-18T22:53:01Z</time>
      </trkpt>
      <trkpt lat="45.87698" lon="5.39054">
        <ele>364</ele>
        <time>2023-04-18T22:53:04Z</time>
      </trkpt>
      <trkpt lat="45.87707" lon="5.39045">
        <ele>364</ele>
        <time>2023-04-18T22:53:07Z</time>
      </trkpt>
      <trkpt lat="45.87713" lon="5.38998">
        <ele>358</ele>
        <time>2023-04-18T22:53:15Z</time>
      </trkpt>
      <trkpt lat="45.87739" lon="5.38954">
        <ele>359</ele>
        <time>2023-04-18T22:53:24Z</time>
      </trkpt>
      <trkpt lat="45.8778" lon="5.38917">
        <ele>362</ele>
        <time>2023-04-18T22:53:35Z</time>
      </trkpt>
      <trkpt lat="45.87848" lon="5.38825">
        <ele>367</ele>
        <time>2023-04-18T22:53:57Z</time>
      </trkpt>
      <trkpt lat="45.87878" lon="5.38774">
        <ele>367</ele>
        <time>2023-04-18T22:54:08Z</time>
      </trkpt>
      <trkpt lat="45.87875" lon="5.38778">
        <ele>367</ele>
        <time>2023-04-18T22:54:09Z</time>
      </trkpt>
      <trkpt lat="45.87878" lon="5.38771">
        <ele>367</ele>
        <time>2023-04-18T22:54:10Z</time>
      </trkpt>
      <trkpt lat="45.87889" lon="5.3871">
        <ele>364</ele>
        <time>2023-04-18T22:54:20Z</time>
      </trkpt>
      <trkpt lat="45.87923" lon="5.38626">
        <ele>364</ele>
        <time>2023-04-18T22:54:36Z</time>
      </trkpt>
      <trkpt lat="45.87953" lon="5.38512">
        <ele>357</ele>
        <time>2023-04-18T22:54:56Z</time>
      </trkpt>
      <trkpt lat="45.87957" lon="5.38502">
        <ele>357</ele>
        <time>2023-04-18T22:54:58Z</time>
      </trkpt>
      <trkpt lat="45.87985" lon="5.38458">
        <ele>356</ele>
        <time>2023-04-18T22:55:08Z</time>
      </trkpt>
      <trkpt lat="45.88005" lon="5.38402">
        <ele>352</ele>
        <time>2023-04-18T22:55:18Z</time>
      </trkpt>
      <trkpt lat="45.88014" lon="5.38354">
        <ele>348</ele>
        <time>2023-04-18T22:55:26Z</time>
      </trkpt>
      <trkpt lat="45.8803" lon="5.38312">
        <ele>344</ele>
        <time>2023-04-18T22:55:34Z</time>
      </trkpt>
      <trkpt lat="45.8804" lon="5.38294">
        <ele>342</ele>
        <time>2023-04-18T22:55:37Z</time>
      </trkpt>
      <trkpt lat="45.88092" lon="5.3824">
        <ele>343</ele>
        <time>2023-04-18T22:55:52Z</time>
      </trkpt>
      <trkpt lat="45.8811" lon="5.38229">
        <ele>345</ele>
        <time>2023-04-18T22:55:57Z</time>
      </trkpt>
      <trkpt lat="45.88113" lon="5.38207">
        <ele>340</ele>
        <time>2023-04-18T22:56:01Z</time>
      </trkpt>
      <trkpt lat="45.88118" lon="5.38191">
        <ele>337</ele>
        <time>2023-04-18T22:56:04Z</time>
      </trkpt>
      <trkpt lat="45.88167" lon="5.38125">
        <ele>338</ele>
        <time>2023-04-18T22:56:19Z</time>
      </trkpt>
      <trkpt lat="45.88195" lon="5.38055">
        <ele>336</ele>
        <time>2023-04-18T22:56:32Z</time>
      </trkpt>
      <trkpt lat="45.88183" lon="5.37988">
        <ele>326</ele>
        <time>2023-04-18T22:56:44Z</time>
      </trkpt>
      <trkpt lat="45.88198" lon="5.37959">
        <ele>324</ele>
        <time>2023-04-18T22:56:49Z</time>
      </trkpt>
      <trkpt lat="45.8823" lon="5.38004">
        <ele>341</ele>
        <time>2023-04-18T22:57:00Z</time>
      </trkpt>
      <trkpt lat="45.8824" lon="5.38007">
        <ele>344</ele>
        <time>2023-04-18T22:57:02Z</time>
      </trkpt>
      <trkpt lat="45.88288" lon="5.3801">
        <ele>355</ele>
        <time>2023-04-18T22:57:14Z</time>
      </trkpt>
      <trkpt lat="45.88308" lon="5.38041">
        <ele>363</ele>
        <time>2023-04-18T22:57:20Z</time>
      </trkpt>
      <trkpt lat="45.88317" lon="5.38071">
        <ele>370</ele>
        <time>2023-04-18T22:57:26Z</time>
      </trkpt>
      <trkpt lat="45.88319" lon="5.38112">
        <ele>377</ele>
        <time>2023-04-18T22:57:32Z</time>
      </trkpt>
      <trkpt lat="45.88316" lon="5.38137">
        <ele>381</ele>
        <time>2023-04-18T22:57:37Z</time>
      </trkpt>
      <trkpt lat="45.88299" lon="5.38182">
        <ele>384</ele>
        <time>2023-04-18T22:57:45Z</time>
      </trkpt>
      <trkpt lat="45.88298" lon="5.38238">
        <ele>394</ele>
        <time>2023-04-18T22:57:54Z</time>
      </trkpt>
      <trkpt lat="45.88308" lon="5.3824">
        <ele>398</ele>
        <time>2023-04-18T22:57:56Z</time>
      </trkpt>
      <trkpt lat="45.88371" lon="5.3818">
        <ele>403</ele>
        <time>2023-04-18T22:58:14Z</time>
      </trkpt>
      <trkpt lat="45.88482" lon="5.38142">
        <ele>423</ele>
        <time>2023-04-18T22:58:41Z</time>
      </trkpt>
      <trkpt lat="45.88496" lon="5.38143">
        <ele>427</ele>
        <time>2023-04-18T22:58:44Z</time>
      </trkpt>
      <trkpt lat="45.88523" lon="5.38159">
        <ele>431</ele>
        <time>2023-04-18T22:58:51Z</time>
      </trkpt>
      <trkpt lat="45.88568" lon="5.38206">
        <ele>435</ele>
        <time>2023-04-18T22:59:04Z</time>
      </trkpt>
      <trkpt lat="45.88598" lon="5.38225">
        <ele>436</ele>
        <time>2023-04-18T22:59:11Z</time>
      </trkpt>
      <trkpt lat="45.88692" lon="5.38247">
        <ele>448</ele>
        <time>2023-04-18T22:59:34Z</time>
      </trkpt>
      <trkpt lat="45.88704" lon="5.38254">
        <ele>451</ele>
        <time>2023-04-18T22:59:37Z</time>
      </trkpt>
      <trkpt lat="45.88746" lon="5.38307">
        <ele>458</ele>
        <time>2023-04-18T22:59:50Z</time>
      </trkpt>
      <trkpt lat="45.8875" lon="5.38305">
        <ele>458</ele>
        <time>2023-04-18T22:59:51Z</time>
      </trkpt>
      <trkpt lat="45.88748" lon="5.38346">
        <ele>459</ele>
        <time>2023-04-18T22:59:57Z</time>
      </trkpt>
      <trkpt lat="45.88749" lon="5.38389">
        <ele>461</ele>
        <time>2023-04-18T23:00:04Z</time>
      </trkpt>
      <trkpt lat="45.88756" lon="5.38432">
        <ele>462</ele>
        <time>2023-04-18T23:00:12Z</time>
      </trkpt>
      <trkpt lat="45.88767" lon="5.38471">
        <ele>462</ele>
        <time>2023-04-18T23:00:18Z</time>
      </trkpt>
      <trkpt lat="45.88784" lon="5.38505">
        <ele>464</ele>
        <time>2023-04-18T23:00:25Z</time>
      </trkpt>
      <trkpt lat="45.8881" lon="5.3853">
        <ele>471</ele>
        <time>2023-04-18T23:00:32Z</time>
      </trkpt>
      <trkpt lat="45.88822" lon="5.38538">
        <ele>474</ele>
        <time>2023-04-18T23:00:36Z</time>
      </trkpt>
      <trkpt lat="45.88826" lon="5.38551">
        <ele>476</ele>
        <time>2023-04-18T23:00:38Z</time>
      </trkpt>
      <trkpt lat="45.88817" lon="5.38581">
        <ele>478</ele>
        <time>2023-04-18T23:00:43Z</time>
      </trkpt>
      <trkpt lat="45.88757" lon="5.38691">
        <ele>487</ele>
        <time>2023-04-18T23:01:06Z</time>
      </trkpt>
      <trkpt lat="45.88733" lon="5.38844">
        <ele>499</ele>
        <time>2023-04-18T23:01:31Z</time>
      </trkpt>
      <trkpt lat="45.88711" lon="5.38904">
        <ele>503</ele>
        <time>2023-04-18T23:01:42Z</time>
      </trkpt>
      <trkpt lat="45.8868" lon="5.39032">
        <ele>522</ele>
        <time>2023-04-18T23:02:04Z</time>
      </trkpt>
      <trkpt lat="45.88667" lon="5.39114">
        <ele>537</ele>
        <time>2023-04-18T23:02:18Z</time>
      </trkpt>
      <trkpt lat="45.88667" lon="5.39149">
        <ele>542</ele>
        <time>2023-04-18T23:02:24Z</time>
      </trkpt>
      <trkpt lat="45.88658" lon="5.39197">
        <ele>545</ele>
        <time>2023-04-18T23:02:32Z</time>
      </trkpt>
      <trkpt lat="45.88649" lon="5.39288">
        <ele>555</ele>
        <time>2023-04-18T23:02:47Z</time>
      </trkpt>
      <trkpt lat="45.88609" lon="5.39376">
        <ele>567</ele>
        <time>2023-04-18T23:03:04Z</time>
      </trkpt>
      <trkpt lat="45.88426" lon="5.39733">
        <ele>628</ele>
        <time>2023-04-18T23:04:16Z</time>
      </trkpt>
      <trkpt lat="45.88373" lon="5.39824">
        <ele>640</ele>
        <time>2023-04-18T23:04:35Z</time>
      </trkpt>
      <trkpt lat="45.88338" lon="5.39899">
        <ele>643</ele>
        <time>2023-04-18T23:04:50Z</time>
      </trkpt>
      <trkpt lat="45.88276" lon="5.39955">
        <ele>649</ele>
        <time>2023-04-18T23:05:07Z</time>
      </trkpt>
      <trkpt lat="45.88336" lon="5.39901">
        <ele>643</ele>
        <time>2023-04-18T23:05:24Z</time>
      </trkpt>
      <trkpt lat="45.88287" lon="5.40023">
        <ele>646</ele>
        <time>2023-04-18T23:05:46Z</time>
      </trkpt>
      <trkpt lat="45.88277" lon="5.40053">
        <ele>645</ele>
        <time>2023-04-18T23:05:52Z</time>
      </trkpt>
      <trkpt lat="45.88256" lon="5.40099">
        <ele>642</ele>
        <time>2023-04-18T23:06:01Z</time>
      </trkpt>
      <trkpt lat="45.88262" lon="5.4014">
        <ele>641</ele>
        <time>2023-04-18T23:06:08Z</time>
      </trkpt>
      <trkpt lat="45.88253" lon="5.40182">
        <ele>640</ele>
        <time>2023-04-18T23:06:15Z</time>
      </trkpt>
      <trkpt lat="45.88256" lon="5.402">
        <ele>640</ele>
        <time>2023-04-18T23:06:18Z</time>
      </trkpt>
      <trkpt lat="45.88288" lon="5.40158">
        <ele>638</ele>
        <time>2023-04-18T23:06:28Z</time>
      </trkpt>
      <trkpt lat="45.88256" lon="5.402">
        <ele>640</ele>
        <time>2023-04-18T23:06:38Z</time>
      </trkpt>
      <trkpt lat="45.88221" lon="5.40254">
        <ele>642</ele>
        <time>2023-04-18T23:06:50Z</time>
      </trkpt>
      <trkpt lat="45.88206" lon="5.40284">
        <ele>642</ele>
        <time>2023-04-18T23:06:56Z</time>
      </trkpt>
      <trkpt lat="45.88195" lon="5.40322">
        <ele>642</ele>
        <time>2023-04-18T23:07:03Z</time>
      </trkpt>
      <trkpt lat="45.88191" lon="5.40399">
        <ele>644</ele>
        <time>2023-04-18T23:07:15Z</time>
      </trkpt>
      <trkpt lat="45.88134" lon="5.40509">
        <ele>655</ele>
        <time>2023-04-18T23:07:38Z</time>
      </trkpt>
      <trkpt lat="45.88134" lon="5.40525">
        <ele>656</ele>
        <time>2023-04-18T23:07:40Z</time>
      </trkpt>
      <trkpt lat="45.88151" lon="5.40534">
        <ele>655</ele>
        <time>2023-04-18T23:07:44Z</time>
      </trkpt>
      <trkpt lat="45.88162" lon="5.40551">
        <ele>655</ele>
        <time>2023-04-18T23:07:48Z</time>
      </trkpt>
      <trkpt lat="45.88161" lon="5.40564">
        <ele>656</ele>
        <time>2023-04-18T23:07:50Z</time>
      </trkpt>
      <trkpt lat="45.88139" lon="5.40589">
        <ele>660</ele>
        <time>2023-04-18T23:07:57Z</time>
      </trkpt>
      <trkpt lat="45.88074" lon="5.40601">
        <ele>667</ele>
        <time>2023-04-18T23:08:12Z</time>
      </trkpt>
      <trkpt lat="45.88117" lon="5.40628">
        <ele>665</ele>
        <time>2023-04-18T23:08:23Z</time>
      </trkpt>
      <trkpt lat="45.88164" lon="5.40672">
        <ele>665</ele>
        <time>2023-04-18T23:08:36Z</time>
      </trkpt>
      <trkpt lat="45.88256" lon="5.40791">
        <ele>668</ele>
        <time>2023-04-18T23:09:05Z</time>
      </trkpt>
      <trkpt lat="45.88266" lon="5.40818">
        <ele>670</ele>
        <time>2023-04-18T23:09:10Z</time>
      </trkpt>
      <trkpt lat="45.88285" lon="5.40892">
        <ele>677</ele>
        <time>2023-04-18T23:09:23Z</time>
      </trkpt>
      <trkpt lat="45.88312" lon="5.41164">
        <ele>714</ele>
        <time>2023-04-18T23:10:08Z</time>
      </trkpt>
      <trkpt lat="45.88316" lon="5.41185">
        <ele>716</ele>
        <time>2023-04-18T23:10:11Z</time>
      </trkpt>
      <trkpt lat="45.88366" lon="5.41251">
        <ele>719</ele>
        <time>2023-04-18T23:10:27Z</time>
      </trkpt>
      <trkpt lat="45.8838" lon="5.41278">
        <ele>721</ele>
        <time>2023-04-18T23:10:32Z</time>
      </trkpt>
      <trkpt lat="45.88383" lon="5.41309">
        <ele>726</ele>
        <time>2023-04-18T23:10:38Z</time>
      </trkpt>
      <trkpt lat="45.88379" lon="5.41328">
        <ele>731</ele>
        <time>2023-04-18T23:10:41Z</time>
      </trkpt>
      <trkpt lat="45.88375" lon="5.41332">
        <ele>732</ele>
        <time>2023-04-18T23:10:42Z</time>
      </trkpt>
      <trkpt lat="45.88359" lon="5.41327">
        <ele>735</ele>
        <time>2023-04-18T23:10:46Z</time>
      </trkpt>
      <trkpt lat="45.88298" lon="5.41276">
        <ele>737</ele>
        <time>2023-04-18T23:11:02Z</time>
      </trkpt>
      <trkpt lat="45.88281" lon="5.41255">
        <ele>737</ele>
        <time>2023-04-18T23:11:07Z</time>
      </trkpt>
      <trkpt lat="45.88229" lon="5.41221">
        <ele>742</ele>
        <time>2023-04-18T23:11:21Z</time>
      </trkpt>
      <trkpt lat="45.88225" lon="5.41227">
        <ele>743</ele>
        <time>2023-04-18T23:11:22Z</time>
      </trkpt>
      <trkpt lat="45.88219" lon="5.41228">
        <ele>743</ele>
        <time>2023-04-18T23:11:24Z</time>
      </trkpt>
      <trkpt lat="45.88215" lon="5.4121">
        <ele>742</ele>
        <time>2023-04-18T23:11:27Z</time>
      </trkpt>
      <trkpt lat="45.88218" lon="5.41235">
        <ele>744</ele>
        <time>2023-04-18T23:11:31Z</time>
      </trkpt>
      <trkpt lat="45.88236" lon="5.41283">
        <ele>747</ele>
        <time>2023-04-18T23:11:40Z</time>
      </trkpt>
      <trkpt lat="45.8827" lon="5.41335">
        <ele>751</ele>
        <time>2023-04-18T23:11:51Z</time>
      </trkpt>
      <trkpt lat="45.88276" lon="5.41349">
        <ele>752</ele>
        <time>2023-04-18T23:11:54Z</time>
      </trkpt>
      <trkpt lat="45.88276" lon="5.41399">
        <ele>759</ele>
        <time>2023-04-18T23:12:02Z</time>
      </trkpt>
      <trkpt lat="45.88283" lon="5.41414">
        <ele>762</ele>
        <time>2023-04-18T23:12:05Z</time>
      </trkpt>
      <trkpt lat="45.88301" lon="5.41429">
        <ele>765</ele>
        <time>2023-04-18T23:12:10Z</time>
      </trkpt>
      <trkpt lat="45.88339" lon="5.41468">
        <ele>770</ele>
        <time>2023-04-18T23:12:21Z</time>
      </trkpt>
      <trkpt lat="45.88369" lon="5.41492">
        <ele>766</ele>
        <time>2023-04-18T23:12:29Z</time>
      </trkpt>
      <trkpt lat="45.88378" lon="5.41503">
        <ele>766</ele>
        <time>2023-04-18T23:12:32Z</time>
      </trkpt>
      <trkpt lat="45.88415" lon="5.41588">
        <ele>767</ele>
        <time>2023-04-18T23:12:48Z</time>
      </trkpt>
      <trkpt lat="45.88428" lon="5.41623">
        <ele>762</ele>
        <time>2023-04-18T23:12:54Z</time>
      </trkpt>
      <trkpt lat="45.88431" lon="5.41643">
        <ele>761</ele>
        <time>2023-04-18T23:12:58Z</time>
      </trkpt>
      <trkpt lat="45.88431" lon="5.41667">
        <ele>762</ele>
        <time>2023-04-18T23:13:01Z</time>
      </trkpt>
      <trkpt lat="45.8845" lon="5.41744">
        <ele>757</ele>
        <time>2023-04-18T23:13:15Z</time>
      </trkpt>
      <trkpt lat="45.88455" lon="5.41801">
        <ele>754</ele>
        <time>2023-04-18T23:13:24Z</time>
      </trkpt>
      <trkpt lat="45.88489" lon="5.41919">
        <ele>757</ele>
        <time>2023-04-18T23:13:45Z</time>
      </trkpt>
      <trkpt lat="45.88498" lon="5.4193">
        <ele>760</ele>
        <time>2023-04-18T23:13:48Z</time>
      </trkpt>
      <trkpt lat="45.88511" lon="5.41936">
        <ele>759</ele>
        <time>2023-04-18T23:13:51Z</time>
      </trkpt>
      <trkpt lat="45.88513" lon="5.41941">
        <ele>759</ele>
        <time>2023-04-18T23:13:52Z</time>
      </trkpt>
      <trkpt lat="45.88512" lon="5.41956">
        <ele>761</ele>
        <time>2023-04-18T23:13:54Z</time>
      </trkpt>
      <trkpt lat="45.88404" lon="5.4213">
        <ele>768</ele>
        <time>2023-04-18T23:14:32Z</time>
      </trkpt>
      <trkpt lat="45.88403" lon="5.42128">
        <ele>768</ele>
        <time>2023-04-18T23:14:32Z</time>
      </trkpt>
      <trkpt lat="45.88401" lon="5.42131">
        <ele>768</ele>
        <time>2023-04-18T23:14:33Z</time>
      </trkpt>
      <trkpt lat="45.88404" lon="5.42136">
        <ele>769</ele>
        <time>2023-04-18T23:14:34Z</time>
      </trkpt>
      <trkpt lat="45.88415" lon="5.42134">
        <ele>772</ele>
        <time>2023-04-18T23:14:37Z</time>
      </trkpt>
      <trkpt lat="45.8842" lon="5.42142">
        <ele>774</ele>
        <time>2023-04-18T23:14:39Z</time>
      </trkpt>
      <trkpt lat="45.88423" lon="5.42154">
        <ele>776</ele>
        <time>2023-04-18T23:14:41Z</time>
      </trkpt>
      <trkpt lat="45.88423" lon="5.42177">
        <ele>779</ele>
        <time>2023-04-18T23:14:44Z</time>
      </trkpt>
      <trkpt lat="45.88416" lon="5.4224">
        <ele>780</ele>
        <time>2023-04-18T23:14:55Z</time>
      </trkpt>
      <trkpt lat="45.88417" lon="5.42272">
        <ele>779</ele>
        <time>2023-04-18T23:15:00Z</time>
      </trkpt>
      <trkpt lat="45.88425" lon="5.42296">
        <ele>778</ele>
        <time>2023-04-18T23:15:04Z</time>
      </trkpt>
      <trkpt lat="45.88439" lon="5.42314">
        <ele>779</ele>
        <time>2023-04-18T23:15:09Z</time>
      </trkpt>
      <trkpt lat="45.88454" lon="5.42324">
        <ele>781</ele>
        <time>2023-04-18T23:15:13Z</time>
      </trkpt>
      <trkpt lat="45.88483" lon="5.42396">
        <ele>781</ele>
        <time>2023-04-18T23:15:26Z</time>
      </trkpt>
      <trkpt lat="45.88489" lon="5.42418">
        <ele>781</ele>
        <time>2023-04-18T23:15:30Z</time>
      </trkpt>
      <trkpt lat="45.88487" lon="5.42441">
        <ele>785</ele>
        <time>2023-04-18T23:15:34Z</time>
      </trkpt>
      <trkpt lat="45.88482" lon="5.42463">
        <ele>787</ele>
        <time>2023-04-18T23:15:37Z</time>
      </trkpt>
      <trkpt lat="45.88477" lon="5.42468">
        <ele>787</ele>
        <time>2023-04-18T23:15:39Z</time>
      </trkpt>
      <trkpt lat="45.88464" lon="5.42473">
        <ele>786</ele>
        <time>2023-04-18T23:15:42Z</time>
      </trkpt>
      <trkpt lat="45.88439" lon="5.42476">
        <ele>783</ele>
        <time>2023-04-18T23:15:48Z</time>
      </trkpt>
      <trkpt lat="45.88391" lon="5.42472">
        <ele>776</ele>
        <time>2023-04-18T23:15:59Z</time>
      </trkpt>
      <trkpt lat="45.88356" lon="5.42462">
        <ele>772</ele>
        <time>2023-04-18T23:16:07Z</time>
      </trkpt>
      <trkpt lat="45.88297" lon="5.42462">
        <ele>767</ele>
        <time>2023-04-18T23:16:21Z</time>
      </trkpt>
      <trkpt lat="45.88265" lon="5.42457">
        <ele>764</ele>
        <time>2023-04-18T23:16:29Z</time>
      </trkpt>
      <trkpt lat="45.88244" lon="5.42459">
        <ele>762</ele>
        <time>2023-04-18T23:16:34Z</time>
      </trkpt>
      <trkpt lat="45.88227" lon="5.42468">
        <ele>760</ele>
        <time>2023-04-18T23:16:38Z</time>
      </trkpt>
      <trkpt lat="45.88211" lon="5.42473">
        <ele>758</ele>
        <time>2023-04-18T23:16:42Z</time>
      </trkpt>
      <trkpt lat="45.882" lon="5.42473">
        <ele>756</ele>
        <time>2023-04-18T23:16:44Z</time>
      </trkpt>
      <trkpt lat="45.88189" lon="5.42479">
        <ele>755</ele>
        <time>2023-04-18T23:16:47Z</time>
      </trkpt>
      <trkpt lat="45.88179" lon="5.42479">
        <ele>753</ele>
        <time>2023-04-18T23:16:49Z</time>
      </trkpt>
      <trkpt lat="45.88174" lon="5.42482">
        <ele>752</ele>
        <time>2023-04-18T23:16:51Z</time>
      </trkpt>
      <trkpt lat="45.88155" lon="5.42481">
        <ele>749</ele>
        <time>2023-04-18T23:16:55Z</time>
      </trkpt>
      <trkpt lat="45.88149" lon="5.42477">
        <ele>748</ele>
        <time>2023-04-18T23:16:57Z</time>
      </trkpt>
      <trkpt lat="45.88142" lon="5.42476">
        <ele>747</ele>
        <time>2023-04-18T23:16:58Z</time>
      </trkpt>
      <trkpt lat="45.88113" lon="5.42478">
        <ele>743</ele>
        <time>2023-04-18T23:17:05Z</time>
      </trkpt>
      <trkpt lat="45.88105" lon="5.42483">
        <ele>742</ele>
        <time>2023-04-18T23:17:07Z</time>
      </trkpt>
      <trkpt lat="45.88082" lon="5.42482">
        <ele>739</ele>
        <time>2023-04-18T23:17:12Z</time>
      </trkpt>
      <trkpt lat="45.88061" lon="5.42495">
        <ele>736</ele>
        <time>2023-04-18T23:17:18Z</time>
      </trkpt>
      <trkpt lat="45.88037" lon="5.42502">
        <ele>733</ele>
        <time>2023-04-18T23:17:23Z</time>
      </trkpt>
      <trkpt lat="45.88016" lon="5.42495">
        <ele>730</ele>
        <time>2023-04-18T23:17:29Z</time>
      </trkpt>
      <trkpt lat="45.87971" lon="5.42488">
        <ele>721</ele>
        <time>2023-04-18T23:17:39Z</time>
      </trkpt>
      <trkpt lat="45.87954" lon="5.4248">
        <ele>716</ele>
        <time>2023-04-18T23:17:43Z</time>
      </trkpt>
      <trkpt lat="45.87942" lon="5.42478">
        <ele>712</ele>
        <time>2023-04-18T23:17:46Z</time>
      </trkpt>
      <trkpt lat="45.87936" lon="5.42471">
        <ele>710</ele>
        <time>2023-04-18T23:17:48Z</time>
      </trkpt>
      <trkpt lat="45.87934" lon="5.42459">
        <ele>709</ele>
        <time>2023-04-18T23:17:50Z</time>
      </trkpt>
      <trkpt lat="45.87936" lon="5.4245">
        <ele>709</ele>
        <time>2023-04-18T23:17:51Z</time>
      </trkpt>
      <trkpt lat="45.87943" lon="5.42424">
        <ele>710</ele>
        <time>2023-04-18T23:17:56Z</time>
      </trkpt>
      <trkpt lat="45.87954" lon="5.42406">
        <ele>710</ele>
        <time>2023-04-18T23:18:00Z</time>
      </trkpt>
      <trkpt lat="45.87954" lon="5.42402">
        <ele>709</ele>
        <time>2023-04-18T23:18:01Z</time>
      </trkpt>
      <trkpt lat="45.87956" lon="5.42405">
        <ele>711</ele>
        <time>2023-04-18T23:18:01Z</time>
      </trkpt>
      <trkpt lat="45.87959" lon="5.42404">
        <ele>712</ele>
        <time>2023-04-18T23:18:02Z</time>
      </trkpt>
      <trkpt lat="45.87957" lon="5.42403">
        <ele>711</ele>
        <time>2023-04-18T23:18:02Z</time>
      </trkpt>
      <trkpt lat="45.87957" lon="5.42406">
        <ele>712</ele>
        <time>2023-04-18T23:18:03Z</time>
      </trkpt>
      <trkpt lat="45.87942" lon="5.42421">
        <ele>709</ele>
        <time>2023-04-18T23:18:07Z</time>
      </trkpt>
      <trkpt lat="45.87933" lon="5.42461">
        <ele>708</ele>
        <time>2023-04-18T23:18:14Z</time>
      </trkpt>
      <trkpt lat="45.87945" lon="5.42496">
        <ele>714</ele>
        <time>2023-04-18T23:18:20Z</time>
      </trkpt>
      <trkpt lat="45.87953" lon="5.42532">
        <ele>716</ele>
        <time>2023-04-18T23:18:26Z</time>
      </trkpt>
      <trkpt lat="45.87917" lon="5.42598">
        <ele>714</ele>
        <time>2023-04-18T23:18:40Z</time>
      </trkpt>
      <trkpt lat="45.87922" lon="5.42601">
        <ele>715</ele>
        <time>2023-04-18T23:18:41Z</time>
      </trkpt>
      <trkpt lat="45.87792" lon="5.42552">
        <ele>695</ele>
        <time>2023-04-18T23:19:13Z</time>
      </trkpt>
      <trkpt lat="45.87747" lon="5.42503">
        <ele>675</ele>
        <time>2023-04-18T23:19:26Z</time>
      </trkpt>
      <trkpt lat="45.87652" lon="5.42465">
        <ele>654</ele>
        <time>2023-04-18T23:19:49Z</time>
      </trkpt>
      <trkpt lat="45.87574" lon="5.42502">
        <ele>654</ele>
        <time>2023-04-18T23:20:08Z</time>
      </trkpt>
      <trkpt lat="45.87432" lon="5.42486">
        <ele>624</ele>
        <time>2023-04-18T23:20:41Z</time>
      </trkpt>
      <trkpt lat="45.8736" lon="5.42465">
        <ele>607</ele>
        <time>2023-04-18T23:20:59Z</time>
      </trkpt>
      <trkpt lat="45.87305" lon="5.42466">
        <ele>598</ele>
        <time>2023-04-18T23:21:11Z</time>
      </trkpt>
      <trkpt lat="45.8723" lon="5.42423">
        <ele>574</ele>
        <time>2023-04-18T23:21:30Z</time>
      </trkpt>
      <trkpt lat="45.87151" lon="5.42499">
        <ele>574</ele>
        <time>2023-04-18T23:21:52Z</time>
      </trkpt>
      <trkpt lat="45.87054" lon="5.42553">
        <ele>559</ele>
        <time>2023-04-18T23:22:17Z</time>
      </trkpt>
      <trkpt lat="45.87054" lon="5.42557">
        <ele>560</ele>
        <time>2023-04-18T23:22:17Z</time>
      </trkpt>
      <trkpt lat="45.87058" lon="5.42551">
        <ele>560</ele>
        <time>2023-04-18T23:22:19Z</time>
      </trkpt>
      <trkpt lat="45.87066" lon="5.42547">
        <ele>561</ele>
        <time>2023-04-18T23:22:21Z</time>
      </trkpt>
      <trkpt lat="45.87067" lon="5.42545">
        <ele>561</ele>
        <time>2023-04-18T23:22:21Z</time>
      </trkpt>
      <trkpt lat="45.87058" lon="5.42551">
        <ele>560</ele>
        <time>2023-04-18T23:22:23Z</time>
      </trkpt>
      <trkpt lat="45.87065" lon="5.4254">
        <ele>559</ele>
        <time>2023-04-18T23:22:26Z</time>
      </trkpt>
      <trkpt lat="45.87055" lon="5.42552">
        <ele>559</ele>
        <time>2023-04-18T23:22:29Z</time>
      </trkpt>
      <trkpt lat="45.87008" lon="5.42576">
        <ele>550</ele>
        <time>2023-04-18T23:22:41Z</time>
      </trkpt>
      <trkpt lat="45.86985" lon="5.42594">
        <ele>548</ele>
        <time>2023-04-18T23:22:47Z</time>
      </trkpt>
      <trkpt lat="45.86887" lon="5.4273">
        <ele>545</ele>
        <time>2023-04-18T23:23:19Z</time>
      </trkpt>
      <trkpt lat="45.86881" lon="5.42733">
        <ele>545</ele>
        <time>2023-04-18T23:23:20Z</time>
      </trkpt>
      <trkpt lat="45.86852" lon="5.4273">
        <ele>540</ele>
        <time>2023-04-18T23:23:27Z</time>
      </trkpt>
      <trkpt lat="45.8679" lon="5.42711">
        <ele>530</ele>
        <time>2023-04-18T23:23:42Z</time>
      </trkpt>
      <trkpt lat="45.86785" lon="5.42718">
        <ele>530</ele>
        <time>2023-04-18T23:23:43Z</time>
      </trkpt>
      <trkpt lat="45.86782" lon="5.42794">
        <ele>534</ele>
        <time>2023-04-18T23:23:56Z</time>
      </trkpt>
      <trkpt lat="45.86765" lon="5.42855">
        <ele>534</ele>
        <time>2023-04-18T23:24:06Z</time>
      </trkpt>
      <trkpt lat="45.86757" lon="5.42872">
        <ele>534</ele>
        <time>2023-04-18T23:24:10Z</time>
      </trkpt>
      <trkpt lat="45.86754" lon="5.42894">
        <ele>535</ele>
        <time>2023-04-18T23:24:13Z</time>
      </trkpt>
      <trkpt lat="45.86758" lon="5.42979">
        <ele>542</ele>
        <time>2023-04-18T23:24:27Z</time>
      </trkpt>
      <trkpt lat="45.86754" lon="5.43014">
        <ele>545</ele>
        <time>2023-04-18T23:24:33Z</time>
      </trkpt>
      <trkpt lat="45.86713" lon="5.43105">
        <ele>548</ele>
        <time>2023-04-18T23:24:51Z</time>
      </trkpt>
      <trkpt lat="45.86673" lon="5.43167">
        <ele>547</ele>
        <time>2023-04-18T23:25:04Z</time>
      </trkpt>
      <trkpt lat="45.86661" lon="5.43212">
        <ele>546</ele>
        <time>2023-04-18T23:25:12Z</time>
      </trkpt>
      <trkpt lat="45.86655" lon="5.43258">
        <ele>547</ele>
        <time>2023-04-18T23:25:20Z</time>
      </trkpt>
      <trkpt lat="45.86653" lon="5.43314">
        <ele>546</ele>
        <time>2023-04-18T23:25:29Z</time>
      </trkpt>
      <trkpt lat="45.86657" lon="5.43345">
        <ele>547</ele>
        <time>2023-04-18T23:25:34Z</time>
      </trkpt>
      <trkpt lat="45.86691" lon="5.43512">
        <ele>547</ele>
        <time>2023-04-18T23:26:02Z</time>
      </trkpt>
      <trkpt lat="45.86744" lon="5.43551">
        <ele>559</ele>
        <time>2023-04-18T23:26:16Z</time>
      </trkpt>
      <trkpt lat="45.86807" lon="5.43572">
        <ele>574</ele>
        <time>2023-04-18T23:26:31Z</time>
      </trkpt>
      <trkpt lat="45.86827" lon="5.43586">
        <ele>578</ele>
        <time>2023-04-18T23:26:36Z</time>
      </trkpt>
      <trkpt lat="45.86844" lon="5.43591">
        <ele>584</ele>
        <time>2023-04-18T23:26:41Z</time>
      </trkpt>
      <trkpt lat="45.86851" lon="5.43601">
        <ele>589</ele>
        <time>2023-04-18T23:26:43Z</time>
      </trkpt>
      <trkpt lat="45.8684" lon="5.4362">
        <ele>588</ele>
        <time>2023-04-18T23:26:47Z</time>
      </trkpt>
      <trkpt lat="45.86797" lon="5.43646">
        <ele>575</ele>
        <time>2023-04-18T23:26:58Z</time>
      </trkpt>
      <trkpt lat="45.86785" lon="5.43672">
        <ele>574</ele>
        <time>2023-04-18T23:27:03Z</time>
      </trkpt>
      <trkpt lat="45.86745" lon="5.4379">
        <ele>582</ele>
        <time>2023-04-18T23:27:24Z</time>
      </trkpt>
      <trkpt lat="45.86737" lon="5.43831">
        <ele>588</ele>
        <time>2023-04-18T23:27:31Z</time>
      </trkpt>
      <trkpt lat="45.86679" lon="5.43899">
        <ele>583</ele>
        <time>2023-04-18T23:27:49Z</time>
      </trkpt>
      <trkpt lat="45.86664" lon="5.43946">
        <ele>591</ele>
        <time>2023-04-18T23:27:57Z</time>
      </trkpt>
      <trkpt lat="45.86559" lon="5.43952">
        <ele>578</ele>
        <time>2023-04-18T23:28:22Z</time>
      </trkpt>
      <trkpt lat="45.86435" lon="5.43976">
        <ele>570</ele>
        <time>2023-04-18T23:28:51Z</time>
      </trkpt>
      <trkpt lat="45.86378" lon="5.44004">
        <ele>567</ele>
        <time>2023-04-18T23:29:05Z</time>
      </trkpt>
      <trkpt lat="45.8634" lon="5.44037">
        <ele>569</ele>
        <time>2023-04-18T23:29:15Z</time>
      </trkpt>
      <trkpt lat="45.8631" lon="5.44049">
        <ele>564</ele>
        <time>2023-04-18T23:29:22Z</time>
      </trkpt>
      <trkpt lat="45.86206" lon="5.4412">
        <ele>555</ele>
        <time>2023-04-18T23:29:49Z</time>
      </trkpt>
      <trkpt lat="45.86112" lon="5.44239">
        <ele>548</ele>
        <time>2023-04-18T23:30:19Z</time>
      </trkpt>
      <trkpt lat="45.86058" lon="5.44281">
        <ele>527</ele>
        <time>2023-04-18T23:30:33Z</time>
      </trkpt>
      <trkpt lat="45.86062" lon="5.44276">
        <ele>528</ele>
        <time>2023-04-18T23:30:34Z</time>
      </trkpt>
      <trkpt lat="45.86046" lon="5.44296">
        <ele>523</ele>
        <time>2023-04-18T23:30:39Z</time>
      </trkpt>
      <trkpt lat="45.85985" lon="5.44347">
        <ele>501</ele>
        <time>2023-04-18T23:30:56Z</time>
      </trkpt>
      <trkpt lat="45.85925" lon="5.44422">
        <ele>486</ele>
        <time>2023-04-18T23:31:14Z</time>
      </trkpt>
      <trkpt lat="45.85913" lon="5.4441">
        <ele>479</ele>
        <time>2023-04-18T23:31:18Z</time>
      </trkpt>
      <trkpt lat="45.85904" lon="5.44409">
        <ele>477</ele>
        <time>2023-04-18T23:31:20Z</time>
      </trkpt>
      <trkpt lat="45.8589" lon="5.4442">
        <ele>474</ele>
        <time>2023-04-18T23:31:23Z</time>
      </trkpt>
      <trkpt lat="45.85857" lon="5.44404">
        <ele>464</ele>
        <time>2023-04-18T23:31:32Z</time>
      </trkpt>
      <trkpt lat="45.85831" lon="5.4438">
        <ele>457</ele>
        <time>2023-04-18T23:31:39Z</time>
      </trkpt>
      <trkpt lat="45.85828" lon="5.44395">
        <ele>457</ele>
        <time>2023-04-18T23:31:41Z</time>
      </trkpt>
      <trkpt lat="45.85822" lon="5.44407">
        <ele>456</ele>
        <time>2023-04-18T23:31:44Z</time>
      </trkpt>
      <trkpt lat="45.858" lon="5.44412">
        <ele>450</ele>
        <time>2023-04-18T23:31:49Z</time>
      </trkpt>
      <trkpt lat="45.85798" lon="5.44423">
        <ele>451</ele>
        <time>2023-04-18T23:31:51Z</time>
      </trkpt>
      <trkpt lat="45.85799" lon="5.44444">
        <ele>452</ele>
        <time>2023-04-18T23:31:54Z</time>
      </trkpt>
      <trkpt lat="45.85796" lon="5.44449">
        <ele>452</ele>
        <time>2023-04-18T23:31:55Z</time>
      </trkpt>
      <trkpt lat="45.8579" lon="5.44448">
        <ele>450</ele>
        <time>2023-04-18T23:31:57Z</time>
      </trkpt>
      <trkpt lat="45.85781" lon="5.4444">
        <ele>447</ele>
        <time>2023-04-18T23:31:59Z</time>
      </trkpt>
      <trkpt lat="45.85775" lon="5.44419">
        <ele>444</ele>
        <time>2023-04-18T23:32:03Z</time>
      </trkpt>
      <trkpt lat="45.85762" lon="5.44398">
        <ele>440</ele>
        <time>2023-04-18T23:32:07Z</time>
      </trkpt>
      <trkpt lat="45.85746" lon="5.44394">
        <ele>436</ele>
        <time>2023-04-18T23:32:11Z</time>
      </trkpt>
      <trkpt lat="45.85736" lon="5.44396">
        <ele>432</ele>
        <time>2023-04-18T23:32:14Z</time>
      </trkpt>
      <trkpt lat="45.85734" lon="5.44455">
        <ele>434</ele>
        <time>2023-04-18T23:32:23Z</time>
      </trkpt>
      <trkpt lat="45.85743" lon="5.44534">
        <ele>443</ele>
        <time>2023-04-18T23:32:36Z</time>
      </trkpt>
      <trkpt lat="45.85742" lon="5.44553">
        <ele>446</ele>
        <time>2023-04-18T23:32:39Z</time>
      </trkpt>
      <trkpt lat="45.85739" lon="5.44559">
        <ele>446</ele>
        <time>2023-04-18T23:32:41Z</time>
      </trkpt>
      <trkpt lat="45.85741" lon="5.44566">
        <ele>448</ele>
        <time>2023-04-18T23:32:42Z</time>
      </trkpt>
      <trkpt lat="45.85738" lon="5.44571">
        <ele>448</ele>
        <time>2023-04-18T23:32:43Z</time>
      </trkpt>
      <trkpt lat="45.85733" lon="5.44573">
        <ele>447</ele>
        <time>2023-04-18T23:32:44Z</time>
      </trkpt>
      <trkpt lat="45.85712" lon="5.44603">
        <ele>445</ele>
        <time>2023-04-18T23:32:51Z</time>
      </trkpt>
      <trkpt lat="45.85698" lon="5.44617">
        <ele>442</ele>
        <time>2023-04-18T23:32:55Z</time>
      </trkpt>
      <trkpt lat="45.85686" lon="5.44621">
        <ele>439</ele>
        <time>2023-04-18T23:32:58Z</time>
      </trkpt>
      <trkpt lat="45.85677" lon="5.44639">
        <ele>439</ele>
        <time>2023-04-18T23:33:01Z</time>
      </trkpt>
      <trkpt lat="45.85667" lon="5.4469">
        <ele>442</ele>
        <time>2023-04-18T23:33:10Z</time>
      </trkpt>
      <trkpt lat="45.85657" lon="5.44708">
        <ele>441</ele>
        <time>2023-04-18T23:33:14Z</time>
      </trkpt>
      <trkpt lat="45.85648" lon="5.44718">
        <ele>439</ele>
        <time>2023-04-18T23:33:16Z</time>
      </trkpt>
      <trkpt lat="45.85645" lon="5.44712">
        <ele>438</ele>
        <time>2023-04-18T23:33:18Z</time>
      </trkpt>
      <trkpt lat="45.8565" lon="5.44679">
        <ele>436</ele>
        <time>2023-04-18T23:33:23Z</time>
      </trkpt>
      <trkpt lat="45.85645" lon="5.44643">
        <ele>430</ele>
        <time>2023-04-18T23:33:29Z</time>
      </trkpt>
      <trkpt lat="45.8564" lon="5.44637">
        <ele>428</ele>
        <time>2023-04-18T23:33:31Z</time>
      </trkpt>
      <trkpt lat="45.85606" lon="5.44626">
        <ele>418</ele>
        <time>2023-04-18T23:33:39Z</time>
      </trkpt>
      <trkpt lat="45.85597" lon="5.44613">
        <ele>414</ele>
        <time>2023-04-18T23:33:42Z</time>
      </trkpt>
      <trkpt lat="45.85581" lon="5.44535">
        <ele>403</ele>
        <time>2023-04-18T23:33:55Z</time>
      </trkpt>
      <trkpt lat="45.85575" lon="5.44528">
        <ele>403</ele>
        <time>2023-04-18T23:33:57Z</time>
      </trkpt>
      <trkpt lat="45.85538" lon="5.44534">
        <ele>404</ele>
        <time>2023-04-18T23:34:05Z</time>
      </trkpt>
      <trkpt lat="45.85501" lon="5.44561">
        <ele>403</ele>
        <time>2023-04-18T23:34:15Z</time>
      </trkpt>
      <trkpt lat="45.85496" lon="5.44555">
        <ele>405</ele>
        <time>2023-04-18T23:34:17Z</time>
      </trkpt>
      <trkpt lat="45.85494" lon="5.44544">
        <ele>406</ele>
        <time>2023-04-18T23:34:19Z</time>
      </trkpt>
      <trkpt lat="45.85511" lon="5.44516">
        <ele>405</ele>
        <time>2023-04-18T23:34:25Z</time>
      </trkpt>
      <trkpt lat="45.85533" lon="5.44498">
        <ele>404</ele>
        <time>2023-04-18T23:34:30Z</time>
      </trkpt>
      <trkpt lat="45.85543" lon="5.44477">
        <ele>406</ele>
        <time>2023-04-18T23:34:35Z</time>
      </trkpt>
      <trkpt lat="45.85546" lon="5.44457">
        <ele>407</ele>
        <time>2023-04-18T23:34:38Z</time>
      </trkpt>
      <trkpt lat="45.85549" lon="5.44371">
        <ele>413</ele>
        <time>2023-04-18T23:34:52Z</time>
      </trkpt>
      <trkpt lat="45.85567" lon="5.44302">
        <ele>408</ele>
        <time>2023-04-18T23:35:04Z</time>
      </trkpt>
      <trkpt lat="45.85568" lon="5.44287">
        <ele>407</ele>
        <time>2023-04-18T23:35:06Z</time>
      </trkpt>
      <trkpt lat="45.85555" lon="5.44249">
        <ele>411</ele>
        <time>2023-04-18T23:35:13Z</time>
      </trkpt>
      <trkpt lat="45.85544" lon="5.44228">
        <ele>413</ele>
        <time>2023-04-18T23:35:18Z</time>
      </trkpt>
      <trkpt lat="45.85532" lon="5.44218">
        <ele>417</ele>
        <time>2023-04-18T23:35:21Z</time>
      </trkpt>
      <trkpt lat="45.85521" lon="5.44201">
        <ele>421</ele>
        <time>2023-04-18T23:35:25Z</time>
      </trkpt>
      <trkpt lat="45.8552" lon="5.4419">
        <ele>420</ele>
        <time>2023-04-18T23:35:26Z</time>
      </trkpt>
      <trkpt lat="45.8552" lon="5.44178">
        <ele>419</ele>
        <time>2023-04-18T23:35:28Z</time>
      </trkpt>
      <trkpt lat="45.85534" lon="5.44118">
        <ele>411</ele>
        <time>2023-04-18T23:35:39Z</time>
      </trkpt>
      <trkpt lat="45.85528" lon="5.44096">
        <ele>415</ele>
        <time>2023-04-18T23:35:42Z</time>
      </trkpt>
      <trkpt lat="45.85537" lon="5.44089">
        <ele>409</ele>
        <time>2023-04-18T23:35:45Z</time>
      </trkpt>
      <trkpt lat="45.85537" lon="5.44074">
        <ele>410</ele>
        <time>2023-04-18T23:35:47Z</time>
      </trkpt>
      <trkpt lat="45.85543" lon="5.44031">
        <ele>408</ele>
        <time>2023-04-18T23:35:54Z</time>
      </trkpt>
      <trkpt lat="45.8554" lon="5.43981">
        <ele>413</ele>
        <time>2023-04-18T23:36:03Z</time>
      </trkpt>
      <trkpt lat="45.85545" lon="5.43922">
        <ele>411</ele>
        <time>2023-04-18T23:36:12Z</time>
      </trkpt>
      <trkpt lat="45.85545" lon="5.43847">
        <ele>416</ele>
        <time>2023-04-18T23:36:24Z</time>
      </trkpt>
      <trkpt lat="45.85552" lon="5.43808">
        <ele>405</ele>
        <time>2023-04-18T23:36:31Z</time>
      </trkpt>
      <trkpt lat="45.85546" lon="5.43761">
        <ele>398</ele>
        <time>2023-04-18T23:36:39Z</time>
      </trkpt>
      <trkpt lat="45.85524" lon="5.43719">
        <ele>389</ele>
        <time>2023-04-18T23:36:47Z</time>
      </trkpt>
      <trkpt lat="45.85502" lon="5.43699">
        <ele>385</ele>
        <time>2023-04-18T23:36:53Z</time>
      </trkpt>
      <trkpt lat="45.8549" lon="5.43692">
        <ele>381</ele>
        <time>2023-04-18T23:36:56Z</time>
      </trkpt>
      <trkpt lat="45.85482" lon="5.43691">
        <ele>380</ele>
        <time>2023-04-18T23:36:58Z</time>
      </trkpt>
      <trkpt lat="45.85372" lon="5.43707">
        <ele>382</ele>
        <time>2023-04-18T23:37:24Z</time>
      </trkpt>
      <trkpt lat="45.85295" lon="5.43734">
        <ele>380</ele>
        <time>2023-04-18T23:37:43Z</time>
      </trkpt>
      <trkpt lat="45.85225" lon="5.43767">
        <ele>378</ele>
        <time>2023-04-18T23:38:00Z</time>
      </trkpt>
      <trkpt lat="45.8516" lon="5.43775">
        <ele>364</ele>
        <time>2023-04-18T23:38:15Z</time>
      </trkpt>
      <trkpt lat="45.85107" lon="5.43804">
        <ele>362</ele>
        <time>2023-04-18T23:38:28Z</time>
      </trkpt>
      <trkpt lat="45.85013" lon="5.43825">
        <ele>351</ele>
        <time>2023-04-18T23:38:51Z</time>
      </trkpt>
      <trkpt lat="45.85016" lon="5.43808">
        <ele>347</ele>
        <time>2023-04-18T23:38:53Z</time>
      </trkpt>
      <trkpt lat="45.85091" lon="5.43739">
        <ele>340</ele>
        <time>2023-04-18T23:39:14Z</time>
      </trkpt>
      <trkpt lat="45.85191" lon="5.43684">
        <ele>341</ele>
        <time>2023-04-18T23:39:39Z</time>
      </trkpt>
      <trkpt lat="45.85198" lon="5.43676">
        <ele>340</ele>
        <time>2023-04-18T23:39:41Z</time>
      </trkpt>
      <trkpt lat="45.8521" lon="5.43652">
        <ele>334</ele>
        <time>2023-04-18T23:39:46Z</time>
      </trkpt>
      <trkpt lat="45.85224" lon="5.4364">
        <ele>332</ele>
        <time>2023-04-18T23:39:50Z</time>
      </trkpt>
      <trkpt lat="45.85267" lon="5.43622">
        <ele>332</ele>
        <time>2023-04-18T23:40:00Z</time>
      </trkpt>
      <trkpt lat="45.85299" lon="5.436">
        <ele>329</ele>
        <time>2023-04-18T23:40:09Z</time>
      </trkpt>
      <trkpt lat="45.85298" lon="5.43576">
        <ele>321</ele>
        <time>2023-04-18T23:40:13Z</time>
      </trkpt>
      <trkpt lat="45.85307" lon="5.43561">
        <ele>318</ele>
        <time>2023-04-18T23:40:16Z</time>
      </trkpt>
      <trkpt lat="45.85405" lon="5.43492">
        <ele>301</ele>
        <time>2023-04-18T23:40:41Z</time>
      </trkpt>
      <trkpt lat="45.85453" lon="5.43484">
        <ele>298</ele>
        <time>2023-04-18T23:40:53Z</time>
      </trkpt>
      <trkpt lat="45.85474" lon="5.43477">
        <ele>296</ele>
        <time>2023-04-18T23:40:58Z</time>
      </trkpt>
      <trkpt lat="45.85537" lon="5.43438">
        <ele>287</ele>
        <time>2023-04-18T23:41:14Z</time>
      </trkpt>
      <trkpt lat="45.85554" lon="5.43423">
        <ele>284</ele>
        <time>2023-04-18T23:41:18Z</time>
      </trkpt>
      <trkpt lat="45.85564" lon="5.43353">
        <ele>283</ele>
        <time>2023-04-18T23:41:30Z</time>
      </trkpt>
      <trkpt lat="45.8558" lon="5.43345">
        <ele>284</ele>
        <time>2023-04-18T23:41:34Z</time>
      </trkpt>
      <trkpt lat="45.85596" lon="5.43331">
        <ele>285</ele>
        <time>2023-04-18T23:41:38Z</time>
      </trkpt>
      <trkpt lat="45.85606" lon="5.43318">
        <ele>286</ele>
        <time>2023-04-18T23:41:41Z</time>
      </trkpt>
      <trkpt lat="45.85614" lon="5.43296">
        <ele>287</ele>
        <time>2023-04-18T23:41:45Z</time>
      </trkpt>
      <trkpt lat="45.85626" lon="5.43242">
        <ele>288</ele>
        <time>2023-04-18T23:41:55Z</time>
      </trkpt>
      <trkpt lat="45.85635" lon="5.43155">
        <ele>290</ele>
        <time>2023-04-18T23:42:09Z</time>
      </trkpt>
      <trkpt lat="45.85651" lon="5.43145">
        <ele>291</ele>
        <time>2023-04-18T23:42:13Z</time>
      </trkpt>
      <trkpt lat="45.85674" lon="5.43124">
        <ele>293</ele>
        <time>2023-04-18T23:42:19Z</time>
      </trkpt>
      <trkpt lat="45.85722" lon="5.43049">
        <ele>295</ele>
        <time>2023-04-18T23:42:36Z</time>
      </trkpt>
      <trkpt lat="45.85771" lon="5.42886">
        <ele>300</ele>
        <time>2023-04-18T23:43:05Z</time>
      </trkpt>
      <trkpt lat="45.85779" lon="5.42887">
        <ele>300</ele>
        <time>2023-04-18T23:43:07Z</time>
      </trkpt>
      <trkpt lat="45.85848" lon="5.42746">
        <ele>309</ele>
        <time>2023-04-18T23:43:35Z</time>
      </trkpt>
      <trkpt lat="45.8589" lon="5.42562">
        <ele>312</ele>
        <time>2023-04-18T23:44:06Z</time>
      </trkpt>
      <trkpt lat="45.85902" lon="5.42498">
        <ele>312</ele>
        <time>2023-04-18T23:44:17Z</time>
      </trkpt>
      <trkpt lat="45.85916" lon="5.42465">
        <ele>314</ele>
        <time>2023-04-18T23:44:23Z</time>
      </trkpt>
      <trkpt lat="45.85933" lon="5.42439">
        <ele>315</ele>
        <time>2023-04-18T23:44:29Z</time>
      </trkpt>
      <trkpt lat="45.86" lon="5.42351">
        <ele>321</ele>
        <time>2023-04-18T23:44:50Z</time>
      </trkpt>
      <trkpt lat="45.86048" lon="5.42275">
        <ele>326</ele>
        <time>2023-04-18T23:45:07Z</time>
      </trkpt>
      <trkpt lat="45.86063" lon="5.42267">
        <ele>327</ele>
        <time>2023-04-18T23:45:11Z</time>
      </trkpt>
      <trkpt lat="45.86086" lon="5.42262">
        <ele>329</ele>
        <time>2023-04-18T23:45:16Z</time>
      </trkpt>
      <trkpt lat="45.86136" lon="5.42223">
        <ele>333</ele>
        <time>2023-04-18T23:45:29Z</time>
      </trkpt>
      <trkpt lat="45.86148" lon="5.4222">
        <ele>334</ele>
        <time>2023-04-18T23:45:32Z</time>
      </trkpt>
      <trkpt lat="45.86157" lon="5.42222">
        <ele>335</ele>
        <time>2023-04-18T23:45:34Z</time>
      </trkpt>
      <trkpt lat="45.86175" lon="5.42208">
        <ele>337</ele>
        <time>2023-04-18T23:45:39Z</time>
      </trkpt>
      <trkpt lat="45.86246" lon="5.42079">
        <ele>338</ele>
        <time>2023-04-18T23:46:06Z</time>
      </trkpt>
      <trkpt lat="45.86305" lon="5.41987">
        <ele>343</ele>
        <time>2023-04-18T23:46:26Z</time>
      </trkpt>
      <trkpt lat="45.86323" lon="5.41951">
        <ele>343</ele>
        <time>2023-04-18T23:46:33Z</time>
      </trkpt>
      <trkpt lat="45.86389" lon="5.41884">
        <ele>347</ele>
        <time>2023-04-18T23:46:52Z</time>
      </trkpt>
      <trkpt lat="45.86404" lon="5.41836">
        <ele>346</ele>
        <time>2023-04-18T23:47:01Z</time>
      </trkpt>
      <trkpt lat="45.86413" lon="5.41825">
        <ele>346</ele>
        <time>2023-04-18T23:47:04Z</time>
      </trkpt>
      <trkpt lat="45.86429" lon="5.41817">
        <ele>347</ele>
        <time>2023-04-18T23:47:08Z</time>
      </trkpt>
      <trkpt lat="45.86453" lon="5.41815">
        <ele>348</ele>
        <time>2023-04-18T23:47:13Z</time>
      </trkpt>
      <trkpt lat="45.86498" lon="5.41827">
        <ele>351</ele>
        <time>2023-04-18T23:47:24Z</time>
      </trkpt>
      <trkpt lat="45.86521" lon="5.41812">
        <ele>352</ele>
        <time>2023-04-18T23:47:30Z</time>
      </trkpt>
      <trkpt lat="45.86533" lon="5.41824">
        <ele>353</ele>
        <time>2023-04-18T23:47:33Z</time>
      </trkpt>
      <trkpt lat="45.86547" lon="5.41833">
        <ele>355</ele>
        <time>2023-04-18T23:47:37Z</time>
      </trkpt>
      <trkpt lat="45.86614" lon="5.41802">
        <ele>360</ele>
        <time>2023-04-18T23:47:53Z</time>
      </trkpt>
      <trkpt lat="45.86713" lon="5.41718">
        <ele>359</ele>
        <time>2023-04-18T23:48:20Z</time>
      </trkpt>
      <trkpt lat="45.86769" lon="5.4158">
        <ele>353</ele>
        <time>2023-04-18T23:48:46Z</time>
      </trkpt>
      <trkpt lat="45.86784" lon="5.4155">
        <ele>355</ele>
        <time>2023-04-18T23:48:52Z</time>
      </trkpt>
      <trkpt lat="45.86806" lon="5.41528">
        <ele>357</ele>
        <time>2023-04-18T23:48:58Z</time>
      </trkpt>
      <trkpt lat="45.86813" lon="5.41515">
        <ele>357</ele>
        <time>2023-04-18T23:49:01Z</time>
      </trkpt>
      <trkpt lat="45.8681" lon="5.41503">
        <ele>357</ele>
        <time>2023-04-18T23:49:03Z</time>
      </trkpt>
      <trkpt lat="45.86779" lon="5.41476">
        <ele>357</ele>
        <time>2023-04-18T23:49:12Z</time>
      </trkpt>
      <trkpt lat="45.86761" lon="5.41456">
        <ele>357</ele>
        <time>2023-04-18T23:49:17Z</time>
      </trkpt>
      <trkpt lat="45.86756" lon="5.41432">
        <ele>357</ele>
        <time>2023-04-18T23:49:21Z</time>
      </trkpt>
      <trkpt lat="45.86764" lon="5.41373">
        <ele>359</ele>
        <time>2023-04-18T23:49:31Z</time>
      </trkpt>
      <trkpt lat="45.86773" lon="5.41329">
        <ele>361</ele>
        <time>2023-04-18T23:49:38Z</time>
      </trkpt>
      <trkpt lat="45.86787" lon="5.41286">
        <ele>362</ele>
        <time>2023-04-18T23:49:46Z</time>
      </trkpt>
      <trkpt lat="45.86917" lon="5.40956">
        <ele>372</ele>
        <time>2023-04-18T23:50:48Z</time>
      </trkpt>
      <trkpt lat="45.86929" lon="5.40931">
        <ele>373</ele>
        <time>2023-04-18T23:50:52Z</time>
      </trkpt>
      <trkpt lat="45.86943" lon="5.40914">
        <ele>375</ele>
        <time>2023-04-18T23:50:57Z</time>
      </trkpt>
      <trkpt lat="45.86946" lon="5.40879">
        <ele>374</ele>
        <time>2023-04-18T23:51:02Z</time>
      </trkpt>
      <trkpt lat="45.8696" lon="5.40841">
        <ele>374</ele>
        <time>2023-04-18T23:51:09Z</time>
      </trkpt>
      <trkpt lat="45.87042" lon="5.4067">
        <ele>380</ele>
        <time>2023-04-18T23:51:43Z</time>
      </trkpt>
      <trkpt lat="45.87071" lon="5.4058">
        <ele>380</ele>
        <time>2023-04-18T23:51:59Z</time>
      </trkpt>
      <trkpt lat="45.87076" lon="5.40555">
        <ele>380</ele>
        <time>2023-04-18T23:52:04Z</time>
      </trkpt>
      <trkpt lat="45.87077" lon="5.40525">
        <ele>380</ele>
        <time>2023-04-18T23:52:08Z</time>
      </trkpt>
      <trkpt lat="45.87088" lon="5.40476">
        <ele>381</ele>
        <time>2023-04-18T23:52:17Z</time>
      </trkpt>
      <trkpt lat="45.87099" lon="5.40352">
        <ele>382</ele>
        <time>2023-04-18T23:52:37Z</time>
      </trkpt>
      <trkpt lat="45.87082" lon="5.40241">
        <ele>379</ele>
        <time>2023-04-18T23:52:56Z</time>
      </trkpt>
      <trkpt lat="45.87092" lon="5.40145">
        <ele>377</ele>
        <time>2023-04-18T23:53:11Z</time>
      </trkpt>
      <trkpt lat="45.87086" lon="5.40049">
        <ele>375</ele>
        <time>2023-04-18T23:53:27Z</time>
      </trkpt>
      <trkpt lat="45.87092" lon="5.39954">
        <ele>376</ele>
        <time>2023-04-18T23:53:43Z</time>
      </trkpt>
      <trkpt lat="45.8708" lon="5.39944">
        <ele>376</ele>
        <time>2023-04-18T23:53:46Z</time>
      </trkpt>
      <trkpt lat="45.87064" lon="5.39942">
        <ele>375</ele>
        <time>2023-04-18T23:53:50Z</time>
      </trkpt>
      <trkpt lat="45.87049" lon="5.3993">
        <ele>374</ele>
        <time>2023-04-18T23:53:54Z</time>
      </trkpt>
      <trkpt lat="45.87038" lon="5.39917">
        <ele>374</ele>
        <time>2023-04-18T23:53:57Z</time>
      </trkpt>
      <trkpt lat="45.87004" lon="5.39895">
        <ele>372</ele>
        <time>2023-04-18T23:54:06Z</time>
      </trkpt>
      <trkpt lat="45.8699" lon="5.39894">
        <ele>371</ele>
        <time>2023-04-18T23:54:09Z</time>
      </trkpt>
      <trkpt lat="45.8693" lon="5.39904">
        <ele>363</ele>
        <time>2023-04-18T23:54:23Z</time>
      </trkpt>
      <trkpt lat="45.86913" lon="5.3989">
        <ele>361</ele>
        <time>2023-04-18T23:54:28Z</time>
      </trkpt>
      <trkpt lat="45.86883" lon="5.39884">
        <ele>355</ele>
        <time>2023-04-18T23:54:35Z</time>
      </trkpt>
      <trkpt lat="45.8685" lon="5.39903">
        <ele>349</ele>
        <time>2023-04-18T23:54:43Z</time>
      </trkpt>
      <trkpt lat="45.8684" lon="5.39954">
        <ele>349</ele>
        <time>2023-04-18T23:54:52Z</time>
      </trkpt>
      <trkpt lat="45.8683" lon="5.39974">
        <ele>348</ele>
        <time>2023-04-18T23:54:56Z</time>
      </trkpt>
      <trkpt lat="45.86814" lon="5.39987">
        <ele>345</ele>
        <time>2023-04-18T23:55:00Z</time>
      </trkpt>
      <trkpt lat="45.8677" lon="5.40003">
        <ele>336</ele>
        <time>2023-04-18T23:55:11Z</time>
      </trkpt>
      <trkpt lat="45.86739" lon="5.4002">
        <ele>332</ele>
        <time>2023-04-18T23:55:18Z</time>
      </trkpt>
      <trkpt lat="45.86734" lon="5.40027">
        <ele>331</ele>
        <time>2023-04-18T23:55:20Z</time>
      </trkpt>
      <trkpt lat="45.86689" lon="5.40025">
        <ele>323</ele>
        <time>2023-04-18T23:55:30Z</time>
      </trkpt>
      <trkpt lat="45.86659" lon="5.40042">
        <ele>320</ele>
        <time>2023-04-18T23:55:38Z</time>
      </trkpt>
      <trkpt lat="45.86638" lon="5.40074">
        <ele>320</ele>
        <time>2023-04-18T23:55:45Z</time>
      </trkpt>
      <trkpt lat="45.86616" lon="5.40081">
        <ele>317</ele>
        <time>2023-04-18T23:55:50Z</time>
      </trkpt>
      <trkpt lat="45.86588" lon="5.40114">
        <ele>313</ele>
        <time>2023-04-18T23:55:59Z</time>
      </trkpt>
      <trkpt lat="45.86534" lon="5.40235">
        <ele>305</ele>
        <time>2023-04-18T23:56:22Z</time>
      </trkpt>
      <trkpt lat="45.86515" lon="5.40261">
        <ele>303</ele>
        <time>2023-04-18T23:56:28Z</time>
      </trkpt>
      <trkpt lat="45.86521" lon="5.40276">
        <ele>304</ele>
        <time>2023-04-18T23:56:31Z</time>
      </trkpt>
      <trkpt lat="45.86581" lon="5.40309">
        <ele>313</ele>
        <time>2023-04-18T23:56:46Z</time>
      </trkpt>
      <trkpt lat="45.8661" lon="5.40351">
        <ele>319</ele>
        <time>2023-04-18T23:56:56Z</time>
      </trkpt>
      <trkpt lat="45.86627" lon="5.40342">
        <ele>321</ele>
        <time>2023-04-18T23:57:00Z</time>
      </trkpt>
      <trkpt lat="45.86645" lon="5.40376">
        <ele>326</ele>
        <time>2023-04-18T23:57:07Z</time>
      </trkpt>
      <trkpt lat="45.86687" lon="5.40427">
        <ele>336</ele>
        <time>2023-04-18T23:57:20Z</time>
      </trkpt>
      <trkpt lat="45.86655" lon="5.40435">
        <ele>332</ele>
        <time>2023-04-18T23:57:27Z</time>
      </trkpt>
      <trkpt lat="45.86648" lon="5.40444">
        <ele>331</ele>
        <time>2023-04-18T23:57:30Z</time>
      </trkpt>
      <trkpt lat="45.86627" lon="5.40454">
        <ele>330</ele>
        <time>2023-04-18T23:57:35Z</time>
      </trkpt>
      <trkpt lat="45.86608" lon="5.40457">
        <ele>328</ele>
        <time>2023-04-18T23:57:39Z</time>
      </trkpt>
      <trkpt lat="45.86592" lon="5.40463">
        <ele>327</ele>
        <time>2023-04-18T23:57:43Z</time>
      </trkpt>
      <trkpt lat="45.86585" lon="5.4047">
        <ele>327</ele>
        <time>2023-04-18T23:57:45Z</time>
      </trkpt>
      <trkpt lat="45.86581" lon="5.40481">
        <ele>328</ele>
        <time>2023-04-18T23:57:47Z</time>
      </trkpt>
      <trkpt lat="45.8658" lon="5.40501">
        <ele>331</ele>
        <time>2023-04-18T23:57:50Z</time>
      </trkpt>
      <trkpt lat="45.8657" lon="5.4053">
        <ele>329</ele>
        <time>2023-04-18T23:57:56Z</time>
      </trkpt>
      <trkpt lat="45.8657" lon="5.40545">
        <ele>329</ele>
        <time>2023-04-18T23:57:58Z</time>
      </trkpt>
      <trkpt lat="45.86578" lon="5.40556">
        <ele>330</ele>
        <time>2023-04-18T23:58:01Z</time>
      </trkpt>
      <trkpt lat="45.86573" lon="5.40576">
        <ele>330</ele>
        <time>2023-04-18T23:58:04Z</time>
      </trkpt>
      <trkpt lat="45.86569" lon="5.40578">
        <ele>329</ele>
        <time>2023-04-18T23:58:05Z</time>
      </trkpt>
      <trkpt lat="45.86561" lon="5.40574">
        <ele>328</ele>
        <time>2023-04-18T23:58:07Z</time>
      </trkpt>
      <trkpt lat="45.86553" lon="5.40563">
        <ele>327</ele>
        <time>2023-04-18T23:58:10Z</time>
      </trkpt>
      <trkpt lat="45.86527" lon="5.40544">
        <ele>324</ele>
        <time>2023-04-18T23:58:16Z</time>
      </trkpt>
      <trkpt lat="45.86518" lon="5.40547">
        <ele>323</ele>
        <time>2023-04-18T23:58:19Z</time>
      </trkpt>
      <trkpt lat="45.8651" lon="5.40563">
        <ele>322</ele>
        <time>2023-04-18T23:58:22Z</time>
      </trkpt>
      <trkpt lat="45.86501" lon="5.4056">
        <ele>321</ele>
        <time>2023-04-18T23:58:24Z</time>
      </trkpt>
      <trkpt lat="45.86493" lon="5.40565">
        <ele>320</ele>
        <time>2023-04-18T23:58:26Z</time>
      </trkpt>
      <trkpt lat="45.86488" lon="5.40565">
        <ele>319</ele>
        <time>2023-04-18T23:58:27Z</time>
      </trkpt>
      <trkpt lat="45.86474" lon="5.40549">
        <ele>317</ele>
        <time>2023-04-18T23:58:31Z</time>
      </trkpt>
      <trkpt lat="45.86465" lon="5.40543">
        <ele>315</ele>
        <time>2023-04-18T23:58:34Z</time>
      </trkpt>
      <trkpt lat="45.86461" lon="5.40544">
        <ele>314</ele>
        <time>2023-04-18T23:58:35Z</time>
      </trkpt>
      <trkpt lat="45.86456" lon="5.40541">
        <ele>314</ele>
        <time>2023-04-18T23:58:36Z</time>
      </trkpt>
      <trkpt lat="45.86437" lon="5.40514">
        <ele>310</ele>
        <time>2023-04-18T23:58:42Z</time>
      </trkpt>
      <trkpt lat="45.86426" lon="5.40514">
        <ele>308</ele>
        <time>2023-04-18T23:58:45Z</time>
      </trkpt>
      <trkpt lat="45.8643" lon="5.40537">
        <ele>309</ele>
        <time>2023-04-18T23:58:49Z</time>
      </trkpt>
      <trkpt lat="45.86446" lon="5.40565">
        <ele>312</ele>
        <time>2023-04-18T23:58:54Z</time>
      </trkpt>
      <trkpt lat="45.86449" lon="5.40591">
        <ele>314</ele>
        <time>2023-04-18T23:58:59Z</time>
      </trkpt>
      <trkpt lat="45.86418" lon="5.4061">
        <ele>311</ele>
        <time>2023-04-18T23:59:07Z</time>
      </trkpt>
      <trkpt lat="45.8641" lon="5.40621">
        <ele>311</ele>
        <time>2023-04-18T23:59:09Z</time>
      </trkpt>
      <trkpt lat="45.864" lon="5.40627">
        <ele>310</ele>
        <time>2023-04-18T23:59:12Z</time>
      </trkpt>
      <trkpt lat="45.86368" lon="5.40622">
        <ele>307</ele>
        <time>2023-04-18T23:59:19Z</time>
      </trkpt>
      <trkpt lat="45.86345" lon="5.4063">
        <ele>305</ele>
        <time>2023-04-18T23:59:25Z</time>
      </trkpt>
      <trkpt lat="45.86341" lon="5.40635">
        <ele>305</ele>
        <time>2023-04-18T23:59:26Z</time>
      </trkpt>
      <trkpt lat="45.86339" lon="5.40647">
        <ele>306</ele>
        <time>2023-04-18T23:59:28Z</time>
      </trkpt>
      <trkpt lat="45.86333" lon="5.40657">
        <ele>306</ele>
        <time>2023-04-18T23:59:30Z</time>
      </trkpt>
      <trkpt lat="45.86293" lon="5.40669">
        <ele>303</ele>
        <time>2023-04-18T23:59:40Z</time>
      </trkpt>
      <trkpt lat="45.86274" lon="5.4068">
        <ele>302</ele>
        <time>2023-04-18T23:59:44Z</time>
      </trkpt>
      <trkpt lat="45.86277" lon="5.40722">
        <ele>305</ele>
        <time>2023-04-18T23:59:51Z</time>
      </trkpt>
      <trkpt lat="45.86306" lon="5.40741">
        <ele>308</ele>
        <time>2023-04-18T23:59:59Z</time>
      </trkpt>
      <trkpt lat="45.86307" lon="5.40745">
        <ele>308</ele>
        <time>2023-04-18T23:59:59Z</time>
      </trkpt>
      <trkpt lat="45.86309" lon="5.40775">
        <ele>309</ele>
        <time>2023-04-19T00:00:04Z</time>
      </trkpt>
      <trkpt lat="45.86288" lon="5.40808">
        <ele>309</ele>
        <time>2023-04-19T00:00:12Z</time>
      </trkpt>
      <trkpt lat="45.8629" lon="5.40812">
        <ele>310</ele>
        <time>2023-04-19T00:00:12Z</time>
      </trkpt>
      <trkpt lat="45.86288" lon="5.40808">
        <ele>309</ele>
        <time>2023-04-19T00:00:13Z</time>
      </trkpt>
      <trkpt lat="45.86244" lon="5.40794">
        <ele>306</ele>
        <time>2023-04-19T00:00:24Z</time>
      </trkpt>
      <trkpt lat="45.86229" lon="5.40786">
        <ele>304</ele>
        <time>2023-04-19T00:00:27Z</time>
      </trkpt>
      <trkpt lat="45.86208" lon="5.40785">
        <ele>302</ele>
        <time>2023-04-19T00:00:32Z</time>
      </trkpt>
      <trkpt lat="45.86175" lon="5.40801">
        <ele>301</ele>
        <time>2023-04-19T00:00:41Z</time>
      </trkpt>
      <trkpt lat="45.86164" lon="5.40813">
        <ele>301</ele>
        <time>2023-04-19T00:00:44Z</time>
      </trkpt>
      <trkpt lat="45.86152" lon="5.40832">
        <ele>302</ele>
        <time>2023-04-19T00:00:48Z</time>
      </trkpt>
      <trkpt lat="45.86138" lon="5.40847">
        <ele>300</ele>
        <time>2023-04-19T00:00:52Z</time>
      </trkpt>
      <trkpt lat="45.8613" lon="5.40838">
        <ele>299</ele>
        <time>2023-04-19T00:00:54Z</time>
      </trkpt>
      <trkpt lat="45.86093" lon="5.40862">
        <ele>293</ele>
        <time>2023-04-19T00:01:04Z</time>
      </trkpt>
      <trkpt lat="45.86082" lon="5.40852">
        <ele>291</ele>
        <time>2023-04-19T00:01:07Z</time>
      </trkpt>
      <trkpt lat="45.86062" lon="5.40849">
        <ele>287</ele>
        <time>2023-04-19T00:01:12Z</time>
      </trkpt>
      <trkpt lat="45.86054" lon="5.40846">
        <ele>286</ele>
        <time>2023-04-19T00:01:14Z</time>
      </trkpt>
      <trkpt lat="45.86047" lon="5.40839">
        <ele>284</ele>
        <time>2023-04-19T00:01:16Z</time>
      </trkpt>
      <trkpt lat="45.8604" lon="5.40818">
        <ele>281</ele>
        <time>2023-04-19T00:01:19Z</time>
      </trkpt>
      <trkpt lat="45.86031" lon="5.40804">
        <ele>279</ele>
        <time>2023-04-19T00:01:22Z</time>
      </trkpt>
      <trkpt lat="45.86027" lon="5.40791">
        <ele>277</ele>
        <time>2023-04-19T00:01:25Z</time>
      </trkpt>
      <trkpt lat="45.86035" lon="5.40781">
        <ele>278</ele>
        <time>2023-04-19T00:01:27Z</time>
      </trkpt>
      <trkpt lat="45.86034" lon="5.40777">
        <ele>277</ele>
        <time>2023-04-19T00:01:28Z</time>
      </trkpt>
      <trkpt lat="45.86029" lon="5.40775">
        <ele>276</ele>
        <time>2023-04-19T00:01:29Z</time>
      </trkpt>
      <trkpt lat="45.86017" lon="5.40777">
        <ele>274</ele>
        <time>2023-04-19T00:01:32Z</time>
      </trkpt>
      <trkpt lat="45.85971" lon="5.40788">
        <ele>266</ele>
        <time>2023-04-19T00:01:43Z</time>
      </trkpt>
      <trkpt lat="45.85965" lon="5.40807">
        <ele>265</ele>
        <time>2023-04-19T00:01:46Z</time>
      </trkpt>
      <trkpt lat="45.85966" lon="5.40842">
        <ele>267</ele>
        <time>2023-04-19T00:01:52Z</time>
      </trkpt>
      <trkpt lat="45.85963" lon="5.40857">
        <ele>268</ele>
        <time>2023-04-19T00:01:54Z</time>
      </trkpt>
      <trkpt lat="45.85954" lon="5.40879">
        <ele>268</ele>
        <time>2023-04-19T00:01:59Z</time>
      </trkpt>
      <trkpt lat="45.85952" lon="5.40877">
        <ele>267</ele>
        <time>2023-04-19T00:01:59Z</time>
      </trkpt>
      <trkpt lat="45.85992" lon="5.40908">
        <ele>274</ele>
        <time>2023-04-19T00:02:10Z</time>
      </trkpt>
      <trkpt lat="45.85996" lon="5.40917">
        <ele>275</ele>
        <time>2023-04-19T00:02:12Z</time>
      </trkpt>
      <trkpt lat="45.85975" lon="5.40937">
        <ele>275</ele>
        <time>2023-04-19T00:02:17Z</time>
      </trkpt>
      <trkpt lat="45.85925" lon="5.40944">
        <ele>273</ele>
        <time>2023-04-19T00:02:29Z</time>
      </trkpt>
      <trkpt lat="45.85925" lon="5.40962">
        <ele>276</ele>
        <time>2023-04-19T00:02:32Z</time>
      </trkpt>
      <trkpt lat="45.85929" lon="5.40971">
        <ele>277</ele>
        <time>2023-04-19T00:02:34Z</time>
      </trkpt>
      <trkpt lat="45.85939" lon="5.40984">
        <ele>280</ele>
        <time>2023-04-19T00:02:37Z</time>
      </trkpt>
      <trkpt lat="45.85945" lon="5.40988">
        <ele>280</ele>
        <time>2023-04-19T00:02:38Z</time>
      </trkpt>
      <trkpt lat="45.85943" lon="5.41001">
        <ele>282</ele>
        <time>2023-04-19T00:02:41Z</time>
      </trkpt>
      <trkpt lat="45.85926" lon="5.41016">
        <ele>283</ele>
        <time>2023-04-19T00:02:45Z</time>
      </trkpt>
      <trkpt lat="45.85917" lon="5.41036">
        <ele>284</ele>
        <time>2023-04-19T00:02:49Z</time>
      </trkpt>
      <trkpt lat="45.85916" lon="5.41049">
        <ele>285</ele>
        <time>2023-04-19T00:02:51Z</time>
      </trkpt>
      <trkpt lat="45.85941" lon="5.4108">
        <ele>289</ele>
        <time>2023-04-19T00:02:59Z</time>
      </trkpt>
      <trkpt lat="45.85965" lon="5.41096">
        <ele>291</ele>
        <time>2023-04-19T00:03:05Z</time>
      </trkpt>
      <trkpt lat="45.85978" lon="5.41097">
        <ele>292</ele>
        <time>2023-04-19T00:03:08Z</time>
      </trkpt>
      <trkpt lat="45.85982" lon="5.41093">
        <ele>292</ele>
        <time>2023-04-19T00:03:09Z</time>
      </trkpt>
      <trkpt lat="45.85987" lon="5.41099">
        <ele>293</ele>
        <time>2023-04-19T00:03:11Z</time>
      </trkpt>
      <trkpt lat="45.86014" lon="5.41107">
        <ele>294</ele>
        <time>2023-04-19T00:03:17Z</time>
      </trkpt>
      <trkpt lat="45.86025" lon="5.41109">
        <ele>295</ele>
        <time>2023-04-19T00:03:20Z</time>
      </trkpt>
      <trkpt lat="45.86038" lon="5.41107">
        <ele>295</ele>
        <time>2023-04-19T00:03:23Z</time>
      </trkpt>
      <trkpt lat="45.86066" lon="5.41116">
        <ele>297</ele>
        <time>2023-04-19T00:03:30Z</time>
      </trkpt>
      <trkpt lat="45.86084" lon="5.41118">
        <ele>298</ele>
        <time>2023-04-19T00:03:34Z</time>
      </trkpt>
      <trkpt lat="45.86109" lon="5.41116">
        <ele>299</ele>
        <time>2023-04-19T00:03:40Z</time>
      </trkpt>
      <trkpt lat="45.86125" lon="5.41123">
        <ele>300</ele>
        <time>2023-04-19T00:03:44Z</time>
      </trkpt>
      <trkpt lat="45.8615" lon="5.41142">
        <ele>302</ele>
        <time>2023-04-19T00:03:50Z</time>
      </trkpt>
      <trkpt lat="45.86174" lon="5.41171">
        <ele>303</ele>
        <time>2023-04-19T00:03:58Z</time>
      </trkpt>
      <trkpt lat="45.86198" lon="5.41181">
        <ele>303</ele>
        <time>2023-04-19T00:04:03Z</time>
      </trkpt>
      <trkpt lat="45.86207" lon="5.41192">
        <ele>302</ele>
        <time>2023-04-19T00:04:06Z</time>
      </trkpt>
      <trkpt lat="45.86219" lon="5.41197">
        <ele>302</ele>
        <time>2023-04-19T00:04:09Z</time>
      </trkpt>
      <trkpt lat="45.86231" lon="5.41206">
        <ele>302</ele>
        <time>2023-04-19T00:04:12Z</time>
      </trkpt>
      <trkpt lat="45.86242" lon="5.41223">
        <ele>301</ele>
        <time>2023-04-19T00:04:16Z</time>
      </trkpt>
      <trkpt lat="45.86287" lon="5.41252">
        <ele>306</ele>
        <time>2023-04-19T00:04:28Z</time>
      </trkpt>
      <trkpt lat="45.86338" lon="5.41301">
        <ele>311</ele>
        <time>2023-04-19T00:04:42Z</time>
      </trkpt>
      <trkpt lat="45.86337" lon="5.41321">
        <ele>309</ele>
        <time>2023-04-19T00:04:45Z</time>
      </trkpt>
      <trkpt lat="45.86327" lon="5.41339">
        <ele>306</ele>
        <time>2023-04-19T00:04:49Z</time>
      </trkpt>
      <trkpt lat="45.86323" lon="5.41341">
        <ele>305</ele>
        <time>2023-04-19T00:04:50Z</time>
      </trkpt>
      <trkpt lat="45.86299" lon="5.4133">
        <ele>299</ele>
        <time>2023-04-19T00:04:56Z</time>
      </trkpt>
      <trkpt lat="45.86287" lon="5.41328">
        <ele>297</ele>
        <time>2023-04-19T00:04:59Z</time>
      </trkpt>
      <trkpt lat="45.86252" lon="5.41334">
        <ele>288</ele>
        <time>2023-04-19T00:05:07Z</time>
      </trkpt>
      <trkpt lat="45.86243" lon="5.41324">
        <ele>288</ele>
        <time>2023-04-19T00:05:09Z</time>
      </trkpt>
      <trkpt lat="45.86205" lon="5.41318">
        <ele>287</ele>
        <time>2023-04-19T00:05:18Z</time>
      </trkpt>
      <trkpt lat="45.8618" lon="5.41325">
        <ele>285</ele>
        <time>2023-04-19T00:05:24Z</time>
      </trkpt>
      <trkpt lat="45.86145" lon="5.41328">
        <ele>283</ele>
        <time>2023-04-19T00:05:33Z</time>
      </trkpt>
      <trkpt lat="45.86066" lon="5.41327">
        <ele>278</ele>
        <time>2023-04-19T00:05:51Z</time>
      </trkpt>
      <trkpt lat="45.86032" lon="5.41333">
        <ele>276</ele>
        <time>2023-04-19T00:05:59Z</time>
      </trkpt>
      <trkpt lat="45.86001" lon="5.41351">
        <ele>279</ele>
        <time>2023-04-19T00:06:07Z</time>
      </trkpt>
      <trkpt lat="45.8598" lon="5.41354">
        <ele>279</ele>
        <time>2023-04-19T00:06:12Z</time>
      </trkpt>
      <trkpt lat="45.85948" lon="5.41351">
        <ele>277</ele>
        <time>2023-04-19T00:06:19Z</time>
      </trkpt>
      <trkpt lat="45.85925" lon="5.41352">
        <ele>276</ele>
        <time>2023-04-19T00:06:25Z</time>
      </trkpt>
      <trkpt lat="45.85908" lon="5.41349">
        <ele>275</ele>
        <time>2023-04-19T00:06:29Z</time>
      </trkpt>
      <trkpt lat="45.85877" lon="5.41339">
        <ele>270</ele>
        <time>2023-04-19T00:06:36Z</time>
      </trkpt>
      <trkpt lat="45.85776" lon="5.41323">
        <ele>261</ele>
        <time>2023-04-19T00:07:00Z</time>
      </trkpt>
      <trkpt lat="45.85723" lon="5.41306">
        <ele>252</ele>
        <time>2023-04-19T00:07:12Z</time>
      </trkpt>
      <trkpt lat="45.85711" lon="5.41309">
        <ele>250</ele>
        <time>2023-04-19T00:07:15Z</time>
      </trkpt>
      <trkpt lat="45.85703" lon="5.41317">
        <ele>249</ele>
        <time>2023-04-19T00:07:18Z</time>
      </trkpt>
      <trkpt lat="45.85696" lon="5.41334">
        <ele>249</ele>
        <time>2023-04-19T00:07:21Z</time>
      </trkpt>
      <trkpt lat="45.85668" lon="5.41347">
        <ele>246</ele>
        <time>2023-04-19T00:07:28Z</time>
      </trkpt>
      <trkpt lat="45.85652" lon="5.41366">
        <ele>246</ele>
        <time>2023-04-19T00:07:32Z</time>
      </trkpt>
      <trkpt lat="45.85596" lon="5.414">
        <ele>236</ele>
        <time>2023-04-19T00:07:47Z</time>
      </trkpt>
      <trkpt lat="45.85575" lon="5.41402">
        <ele>231</ele>
        <time>2023-04-19T00:07:52Z</time>
      </trkpt>
      <trkpt lat="45.85556" lon="5.41395">
        <ele>228</ele>
        <time>2023-04-19T00:07:56Z</time>
      </trkpt>
      <trkpt lat="45.85536" lon="5.41379">
        <ele>224</ele>
        <time>2023-04-19T00:08:02Z</time>
      </trkpt>
      <trkpt lat="45.85518" lon="5.4136">
        <ele>219</ele>
        <time>2023-04-19T00:08:07Z</time>
      </trkpt>
      <trkpt lat="45.85506" lon="5.4134">
        <ele>216</ele>
        <time>2023-04-19T00:08:11Z</time>
      </trkpt>
      <trkpt lat="45.85501" lon="5.41326">
        <ele>215</ele>
        <time>2023-04-19T00:08:14Z</time>
      </trkpt>
      <trkpt lat="45.855" lon="5.41292">
        <ele>214</ele>
        <time>2023-04-19T00:08:19Z</time>
      </trkpt>
      <trkpt lat="45.85506" lon="5.41253">
        <ele>213</ele>
        <time>2023-04-19T00:08:26Z</time>
      </trkpt>
      <trkpt lat="45.85533" lon="5.41171">
        <ele>212</ele>
        <time>2023-04-19T00:08:40Z</time>
      </trkpt>
      <trkpt lat="45.85591" lon="5.41058">
        <ele>210</ele>
        <time>2023-04-19T00:09:03Z</time>
      </trkpt>
      <trkpt lat="45.85563" lon="5.41038">
        <ele>207</ele>
        <time>2023-04-19T00:09:10Z</time>
      </trkpt>
      <trkpt lat="45.85558" lon="5.4103">
        <ele>207</ele>
        <time>2023-04-19T00:09:12Z</time>
      </trkpt>
      <trkpt lat="45.85511" lon="5.4099">
        <ele>204</ele>
        <time>2023-04-19T00:09:25Z</time>
      </trkpt>
      <trkpt lat="45.85474" lon="5.4094">
        <ele>204</ele>
        <time>2023-04-19T00:09:37Z</time>
      </trkpt>
      <trkpt lat="45.8547" lon="5.40928">
        <ele>204</ele>
        <time>2023-04-19T00:09:39Z</time>
      </trkpt>
      <trkpt lat="45.85472" lon="5.40924">
        <ele>204</ele>
        <time>2023-04-19T00:09:40Z</time>
      </trkpt>
      <trkpt lat="45.8539" lon="5.40737">
        <ele>198</ele>
        <time>2023-04-19T00:10:16Z</time>
      </trkpt>
      <trkpt lat="45.85364" lon="5.40683">
        <ele>200</ele>
        <time>2023-04-19T00:10:26Z</time>
      </trkpt>
      <trkpt lat="45.85302" lon="5.40533">
        <ele>202</ele>
        <time>2023-04-19T00:10:55Z</time>
      </trkpt>
      <trkpt lat="45.85283" lon="5.40527">
        <ele>203</ele>
        <time>2023-04-19T00:10:59Z</time>
      </trkpt>
      <trkpt lat="45.85256" lon="5.40536">
        <ele>206</ele>
        <time>2023-04-19T00:11:06Z</time>
      </trkpt>
      <trkpt lat="45.85245" lon="5.40556">
        <ele>207</ele>
        <time>2023-04-19T00:11:10Z</time>
      </trkpt>
      <trkpt lat="45.85174" lon="5.40626">
        <ele>208</ele>
        <time>2023-04-19T00:11:30Z</time>
      </trkpt>
      <trkpt lat="45.8514" lon="5.40651">
        <ele>208</ele>
        <time>2023-04-19T00:11:39Z</time>
      </trkpt>
      <trkpt lat="45.85113" lon="5.40677">
        <ele>207</ele>
        <time>2023-04-19T00:11:47Z</time>
      </trkpt>
      <trkpt lat="45.85082" lon="5.40716">
        <ele>207</ele>
        <time>2023-04-19T00:11:56Z</time>
      </trkpt>
      <trkpt lat="45.8502" lon="5.40806">
        <ele>212</ele>
        <time>2023-04-19T00:12:17Z</time>
      </trkpt>
      <trkpt lat="45.84922" lon="5.40978">
        <ele>209</ele>
        <time>2023-04-19T00:12:53Z</time>
      </trkpt>
      <trkpt lat="45.84799" lon="5.41203">
        <ele>214</ele>
        <time>2023-04-19T00:13:39Z</time>
      </trkpt>
      <trkpt lat="45.84718" lon="5.41339">
        <ele>208</ele>
        <time>2023-04-19T00:14:09Z</time>
      </trkpt>
      <trkpt lat="45.84636" lon="5.41422">
        <ele>208</ele>
        <time>2023-04-19T00:14:32Z</time>
      </trkpt>
      <trkpt lat="45.84586" lon="5.41463">
        <ele>207</ele>
        <time>2023-04-19T00:14:45Z</time>
      </trkpt>
      <trkpt lat="45.84545" lon="5.41491">
        <ele>207</ele>
        <time>2023-04-19T00:14:56Z</time>
      </trkpt>
      <trkpt lat="45.84512" lon="5.41508">
        <ele>208</ele>
        <time>2023-04-19T00:15:04Z</time>
      </trkpt>
      <trkpt lat="45.84428" lon="5.41544">
        <ele>211</ele>
        <time>2023-04-19T00:15:25Z</time>
      </trkpt>
      <trkpt lat="45.8439" lon="5.41556">
        <ele>211</ele>
        <time>2023-04-19T00:15:34Z</time>
      </trkpt>
      <trkpt lat="45.84268" lon="5.41586">
        <ele>209</ele>
        <time>2023-04-19T00:16:03Z</time>
      </trkpt>
      <trkpt lat="45.84194" lon="5.41613">
        <ele>206</ele>
        <time>2023-04-19T00:16:21Z</time>
      </trkpt>
      <trkpt lat="45.84097" lon="5.4162">
        <ele>206</ele>
        <time>2023-04-19T00:16:43Z</time>
      </trkpt>
      <trkpt lat="45.84086" lon="5.41606">
        <ele>208</ele>
        <time>2023-04-19T00:16:47Z</time>
      </trkpt>
      <trkpt lat="45.84072" lon="5.41603">
        <ele>208</ele>
        <time>2023-04-19T00:16:50Z</time>
      </trkpt>
      <trkpt lat="45.83935" lon="5.41609">
        <ele>211</ele>
        <time>2023-04-19T00:17:22Z</time>
      </trkpt>
      <trkpt lat="45.83903" lon="5.41616">
        <ele>212</ele>
        <time>2023-04-19T00:17:30Z</time>
      </trkpt>
      <trkpt lat="45.8387" lon="5.41632">
        <ele>214</ele>
        <time>2023-04-19T00:17:38Z</time>
      </trkpt>
      <trkpt lat="45.83858" lon="5.41642">
        <ele>214</ele>
        <time>2023-04-19T00:17:41Z</time>
      </trkpt>
      <trkpt lat="45.83823" lon="5.4172">
        <ele>211</ele>
        <time>2023-04-19T00:17:56Z</time>
      </trkpt>
      <trkpt lat="45.83801" lon="5.41726">
        <ele>215</ele>
        <time>2023-04-19T00:18:01Z</time>
      </trkpt>
      <trkpt lat="45.83827" lon="5.41677">
        <ele>214</ele>
        <time>2023-04-19T00:18:11Z</time>
      </trkpt>
      <trkpt lat="45.83837" lon="5.41633">
        <ele>217</ele>
        <time>2023-04-19T00:18:19Z</time>
      </trkpt>
      <trkpt lat="45.83836" lon="5.41602">
        <ele>220</ele>
        <time>2023-04-19T00:18:24Z</time>
      </trkpt>
      <trkpt lat="45.83812" lon="5.41561">
        <ele>224</ele>
        <time>2023-04-19T00:18:33Z</time>
      </trkpt>
      <trkpt lat="45.838" lon="5.41546">
        <ele>225</ele>
        <time>2023-04-19T00:18:36Z</time>
      </trkpt>
      <trkpt lat="45.83784" lon="5.41532">
        <ele>226</ele>
        <time>2023-04-19T00:18:41Z</time>
      </trkpt>
      <trkpt lat="45.83777" lon="5.41517">
        <ele>227</ele>
        <time>2023-04-19T00:18:44Z</time>
      </trkpt>
      <trkpt lat="45.83781" lon="5.41502">
        <ele>226</ele>
        <time>2023-04-19T00:18:46Z</time>
      </trkpt>
      <trkpt lat="45.83772" lon="5.4149">
        <ele>228</ele>
        <time>2023-04-19T00:18:49Z</time>
      </trkpt>
      <trkpt lat="45.83762" lon="5.41481">
        <ele>229</ele>
        <time>2023-04-19T00:18:52Z</time>
      </trkpt>
      <trkpt lat="45.83746" lon="5.41475">
        <ele>231</ele>
        <time>2023-04-19T00:18:56Z</time>
      </trkpt>
      <trkpt lat="45.83733" lon="5.41472">
        <ele>231</ele>
        <time>2023-04-19T00:18:59Z</time>
      </trkpt>
      <trkpt lat="45.83711" lon="5.41471">
        <ele>233</ele>
        <time>2023-04-19T00:19:04Z</time>
      </trkpt>
      <trkpt lat="45.83722" lon="5.4151">
        <ele>230</ele>
        <time>2023-04-19T00:19:11Z</time>
      </trkpt>
      <trkpt lat="45.83716" lon="5.41596">
        <ele>230</ele>
        <time>2023-04-19T00:19:25Z</time>
      </trkpt>
      <trkpt lat="45.83717" lon="5.41627">
        <ele>231</ele>
        <time>2023-04-19T00:19:30Z</time>
      </trkpt>
      <trkpt lat="45.83727" lon="5.4169">
        <ele>230</ele>
        <time>2023-04-19T00:19:40Z</time>
      </trkpt>
      <trkpt lat="45.83722" lon="5.41695">
        <ele>231</ele>
        <time>2023-04-19T00:19:42Z</time>
      </trkpt>
      <trkpt lat="45.83726" lon="5.41699">
        <ele>230</ele>
        <time>2023-04-19T00:19:43Z</time>
      </trkpt>
      <trkpt lat="45.83727" lon="5.41707">
        <ele>229</ele>
        <time>2023-04-19T00:19:44Z</time>
      </trkpt>
      <trkpt lat="45.83722" lon="5.41726">
        <ele>229</ele>
        <time>2023-04-19T00:19:48Z</time>
      </trkpt>
      <trkpt lat="45.83723" lon="5.41737">
        <ele>228</ele>
        <time>2023-04-19T00:19:49Z</time>
      </trkpt>
      <trkpt lat="45.8372" lon="5.41739">
        <ele>229</ele>
        <time>2023-04-19T00:19:50Z</time>
      </trkpt>
      <trkpt lat="45.83713" lon="5.41763">
        <ele>227</ele>
        <time>2023-04-19T00:19:54Z</time>
      </trkpt>
      <trkpt lat="45.83715" lon="5.41788">
        <ele>223</ele>
        <time>2023-04-19T00:19:58Z</time>
      </trkpt>
      <trkpt lat="45.83707" lon="5.41801">
        <ele>222</ele>
        <time>2023-04-19T00:20:01Z</time>
      </trkpt>
      <trkpt lat="45.8369" lon="5.41819">
        <ele>223</ele>
        <time>2023-04-19T00:20:06Z</time>
      </trkpt>
      <trkpt lat="45.83677" lon="5.41824">
        <ele>224</ele>
        <time>2023-04-19T00:20:09Z</time>
      </trkpt>
      <trkpt lat="45.83673" lon="5.41838">
        <ele>223</ele>
        <time>2023-04-19T00:20:12Z</time>
      </trkpt>
      <trkpt lat="45.83677" lon="5.41856">
        <ele>219</ele>
        <time>2023-04-19T00:20:15Z</time>
      </trkpt>
      <trkpt lat="45.83673" lon="5.4187">
        <ele>218</ele>
        <time>2023-04-19T00:20:17Z</time>
      </trkpt>
      <trkpt lat="45.83659" lon="5.41886">
        <ele>217</ele>
        <time>2023-04-19T00:20:22Z</time>
      </trkpt>
      <trkpt lat="45.83651" lon="5.41891">
        <ele>217</ele>
        <time>2023-04-19T00:20:24Z</time>
      </trkpt>
      <trkpt lat="45.83603" lon="5.41908">
        <ele>222</ele>
        <time>2023-04-19T00:20:35Z</time>
      </trkpt>
      <trkpt lat="45.83543" lon="5.41919">
        <ele>225</ele>
        <time>2023-04-19T00:20:49Z</time>
      </trkpt>
      <trkpt lat="45.83529" lon="5.4193">
        <ele>224</ele>
        <time>2023-04-19T00:20:53Z</time>
      </trkpt>
      <trkpt lat="45.83517" lon="5.41944">
        <ele>222</ele>
        <time>2023-04-19T00:20:57Z</time>
      </trkpt>
      <trkpt lat="45.83505" lon="5.41946">
        <ele>223</ele>
        <time>2023-04-19T00:20:59Z</time>
      </trkpt>
      <trkpt lat="45.835" lon="5.41957">
        <ele>221</ele>
        <time>2023-04-19T00:21:02Z</time>
      </trkpt>
      <trkpt lat="45.83492" lon="5.41964">
        <ele>220</ele>
        <time>2023-04-19T00:21:04Z</time>
      </trkpt>
      <trkpt lat="45.83465" lon="5.41962">
        <ele>220</ele>
        <time>2023-04-19T00:21:10Z</time>
      </trkpt>
      <trkpt lat="45.83447" lon="5.41964">
        <ele>219</ele>
        <time>2023-04-19T00:21:14Z</time>
      </trkpt>
      <trkpt lat="45.83439" lon="5.41968">
        <ele>218</ele>
        <time>2023-04-19T00:21:16Z</time>
      </trkpt>
      <trkpt lat="45.83431" lon="5.41964">
        <ele>219</ele>
        <time>2023-04-19T00:21:18Z</time>
      </trkpt>
      <trkpt lat="45.83416" lon="5.41946">
        <ele>220</ele>
        <time>2023-04-19T00:21:23Z</time>
      </trkpt>
      <trkpt lat="45.83412" lon="5.41928">
        <ele>222</ele>
        <time>2023-04-19T00:21:26Z</time>
      </trkpt>
      <trkpt lat="45.83402" lon="5.41907">
        <ele>223</ele>
        <time>2023-04-19T00:21:30Z</time>
      </trkpt>
      <trkpt lat="45.83408" lon="5.41868">
        <ele>226</ele>
        <time>2023-04-19T00:21:37Z</time>
      </trkpt>
      <trkpt lat="45.83414" lon="5.41859">
        <ele>228</ele>
        <time>2023-04-19T00:21:39Z</time>
      </trkpt>
      <trkpt lat="45.83414" lon="5.41852">
        <ele>228</ele>
        <time>2023-04-19T00:21:40Z</time>
      </trkpt>
      <trkpt lat="45.83391" lon="5.41847">
        <ele>227</ele>
        <time>2023-04-19T00:21:45Z</time>
      </trkpt>
      <trkpt lat="45.8337" lon="5.4187">
        <ele>223</ele>
        <time>2023-04-19T00:21:51Z</time>
      </trkpt>
      <trkpt lat="45.8336" lon="5.41872">
        <ele>223</ele>
        <time>2023-04-19T00:21:54Z</time>
      </trkpt>
      <trkpt lat="45.8334" lon="5.41867">
        <ele>221</ele>
        <time>2023-04-19T00:21:58Z</time>
      </trkpt>
      <trkpt lat="45.83323" lon="5.41869">
        <ele>221</ele>
        <time>2023-04-19T00:22:02Z</time>
      </trkpt>
      <trkpt lat="45.83303" lon="5.41882">
        <ele>219</ele>
        <time>2023-04-19T00:22:07Z</time>
      </trkpt>
      <trkpt lat="45.83284" lon="5.41879">
        <ele>219</ele>
        <time>2023-04-19T00:22:12Z</time>
      </trkpt>
      <trkpt lat="45.83219" lon="5.41882">
        <ele>216</ele>
        <time>2023-04-19T00:22:27Z</time>
      </trkpt>
      <trkpt lat="45.83187" lon="5.41862">
        <ele>214</ele>
        <time>2023-04-19T00:22:35Z</time>
      </trkpt>
      <trkpt lat="45.83169" lon="5.41868">
        <ele>213</ele>
        <time>2023-04-19T00:22:40Z</time>
      </trkpt>
      <trkpt lat="45.83158" lon="5.41875">
        <ele>213</ele>
        <time>2023-04-19T00:22:42Z</time>
      </trkpt>
      <trkpt lat="45.83144" lon="5.41869">
        <ele>212</ele>
        <time>2023-04-19T00:22:46Z</time>
      </trkpt>
      <trkpt lat="45.83119" lon="5.41867">
        <ele>211</ele>
        <time>2023-04-19T00:22:52Z</time>
      </trkpt>
      <trkpt lat="45.83093" lon="5.41858">
        <ele>210</ele>
        <time>2023-04-19T00:22:58Z</time>
      </trkpt>
      <trkpt lat="45.83053" lon="5.41851">
        <ele>210</ele>
        <time>2023-04-19T00:23:07Z</time>
      </trkpt>
      <trkpt lat="45.82997" lon="5.41821">
        <ele>210</ele>
        <time>2023-04-19T00:23:21Z</time>
      </trkpt>
      <trkpt lat="45.82953" lon="5.41782">
        <ele>211</ele>
        <time>2023-04-19T00:23:33Z</time>
      </trkpt>
      <trkpt lat="45.82913" lon="5.41772">
        <ele>210</ele>
        <time>2023-04-19T00:23:43Z</time>
      </trkpt>
      <trkpt lat="45.8285" lon="5.41768">
        <ele>209</ele>
        <time>2023-04-19T00:23:58Z</time>
      </trkpt>
      <trkpt lat="45.82849" lon="5.4181">
        <ele>210</ele>
        <time>2023-04-19T00:24:04Z</time>
      </trkpt>
      <trkpt lat="45.82834" lon="5.41851">
        <ele>210</ele>
        <time>2023-04-19T00:24:12Z</time>
      </trkpt>
      <trkpt lat="45.82724" lon="5.41827">
        <ele>209</ele>
        <time>2023-04-19T00:24:38Z</time>
      </trkpt>
      <trkpt lat="45.82696" lon="5.41849">
        <ele>208</ele>
        <time>2023-04-19T00:24:45Z</time>
      </trkpt>
      <trkpt lat="45.82585" lon="5.41809">
        <ele>206</ele>
        <time>2023-04-19T00:25:12Z</time>
      </trkpt>
      <trkpt lat="45.82573" lon="5.41778">
        <ele>206</ele>
        <time>2023-04-19T00:25:18Z</time>
      </trkpt>
      <trkpt lat="45.82552" lon="5.41771">
        <ele>206</ele>
        <time>2023-04-19T00:25:23Z</time>
      </trkpt>
      <trkpt lat="45.82546" lon="5.4178">
        <ele>206</ele>
        <time>2023-04-19T00:25:25Z</time>
      </trkpt>
      <trkpt lat="45.82543" lon="5.41793">
        <ele>206</ele>
        <time>2023-04-19T00:25:27Z</time>
      </trkpt>
      <trkpt lat="45.82544" lon="5.41805">
        <ele>206</ele>
        <time>2023-04-19T00:25:29Z</time>
      </trkpt>
      <trkpt lat="45.8255" lon="5.41819">
        <ele>206</ele>
        <time>2023-04-19T00:25:32Z</time>
      </trkpt>
      <trkpt lat="45.82556" lon="5.41821">
        <ele>206</ele>
        <time>2023-04-19T00:25:33Z</time>
      </trkpt>
      <trkpt lat="45.82565" lon="5.41833">
        <ele>206</ele>
        <time>2023-04-19T00:25:36Z</time>
      </trkpt>
      <trkpt lat="45.82571" lon="5.42063">
        <ele>205</ele>
        <time>2023-04-19T00:26:14Z</time>
      </trkpt>
      <trkpt lat="45.82597" lon="5.42214">
        <ele>204</ele>
        <time>2023-04-19T00:26:39Z</time>
      </trkpt>
      <trkpt lat="45.82673" lon="5.42158">
        <ele>204</ele>
        <time>2023-04-19T00:26:59Z</time>
      </trkpt>
      <trkpt lat="45.82732" lon="5.42098">
        <ele>205</ele>
        <time>2023-04-19T00:27:16Z</time>
      </trkpt>
    </trkseg>
  </trk>
</gpx>